Wetterdaten: Samstag, 27.05.2017
Datum Zeit Temp. A. Pool Temp. Feuchte A. Luftdruck Regen Wind Richtung Richtung Sonnenschein ET UV Solar Taupunkt Windchill Windben Empfang
27.05.2017 00:00 16,1 C 22,2 C 72 % 1018,9 hPa 0,0 l/m 0,0 km/h (0 Bft) O-SO 113 0 min 0,000 mm 0,0 UV-I 0 W/m 11,0 C 16,1 C 1,6 km/h (1 Bft) 94,00 %
27.05.2017 00:02 16,1 C 22,2 C 72 % 1018,9 hPa 0,0 l/m 0,7 km/h (0 Bft) O-SO 113 0 min 0,000 mm 0,0 UV-I 0 W/m 11,0 C 16,1 C 1,6 km/h (1 Bft) 9,09 %
27.05.2017 00:04 16,0 C 22,2 C 73 % 1018,9 hPa 0,0 l/m 0,3 km/h (0 Bft) O-SO 113 0 min 0,000 mm 0,0 UV-I 0 W/m 11,2 C 16,0 C 1,6 km/h (1 Bft) 94,59 %
27.05.2017 00:06 16,0 C 22,2 C 75 % 1018,8 hPa 0,0 l/m 0,0 km/h (0 Bft) O-SO 113 0 min 0,000 mm 0,0 UV-I 0 W/m 11,6 C 16,0 C 1,6 km/h (1 Bft) 89,47 %
27.05.2017 00:08 15,9 C 22,2 C 76 % 1018,9 hPa 0,0 l/m 0,0 km/h (0 Bft) O-SO 113 0 min 0,000 mm 0,0 UV-I 0 W/m 11,7 C 15,9 C 1,6 km/h (1 Bft) 94,00 %
27.05.2017 00:10 16,0 C 22,2 C 75 % 1018,9 hPa 0,0 l/m 0,0 km/h (0 Bft) O-SO 113 0 min 0,000 mm 0,0 UV-I 0 W/m 11,6 C 16,0 C 0,0 km/h (0 Bft) 93,62 %
27.05.2017 00:12 16,1 C 22,2 C 74 % 1018,9 hPa 0,0 l/m 0,0 km/h (0 Bft) O-SO 113 0 min 0,000 mm 0,0 UV-I 0 W/m 11,5 C 16,1 C 0,0 km/h (0 Bft) 94,00 %
27.05.2017 00:14 16,2 C 22,2 C 75 % 1018,9 hPa 0,0 l/m 0,0 km/h (0 Bft) O-SO 113 0 min 0,000 mm 0,0 UV-I 0 W/m 11,8 C 16,2 C 0,0 km/h (0 Bft) 92,68 %
27.05.2017 00:16 16,2 C 22,2 C 73 % 1018,9 hPa 0,0 l/m 0,1 km/h (0 Bft) O-SO 113 0 min 0,000 mm 0,0 UV-I 0 W/m 11,4 C 16,2 C 1,6 km/h (1 Bft) 94,00 %
27.05.2017 00:18 16,2 C 22,2 C 73 % 1018,9 hPa 0,0 l/m 0,0 km/h (0 Bft) O-SO 113 0 min 0,000 mm 0,0 UV-I 0 W/m 11,4 C 16,2 C 1,6 km/h (1 Bft) 96,00 %
27.05.2017 00:20 16,3 C 22,2 C 74 % 1018,9 hPa 0,0 l/m 0,0 km/h (0 Bft) O-SO 113 0 min 0,000 mm 0,0 UV-I 0 W/m 11,7 C 16,3 C 0,0 km/h (0 Bft) 92,00 %
27.05.2017 00:22 16,3 C 22,2 C 74 % 1018,9 hPa 0,0 l/m 0,0 km/h (0 Bft) O-SO 113 0 min 0,000 mm 0,0 UV-I 0 W/m 11,7 C 16,3 C 0,0 km/h (0 Bft) 95,74 %
27.05.2017 00:24 16,3 C 22,2 C 74 % 1019,0 hPa 0,0 l/m 0,0 km/h (0 Bft) O-SO 113 0 min 0,000 mm 0,0 UV-I 0 W/m 11,7 C 16,3 C 0,0 km/h (0 Bft) 94,29 %
27.05.2017 00:26 16,3 C 22,2 C 74 % 1018,9 hPa 0,0 l/m 0,0 km/h (0 Bft) O-SO 113 0 min 0,000 mm 0,0 UV-I 0 W/m 11,7 C 16,3 C 0,0 km/h (0 Bft) 96,00 %
27.05.2017 00:28 16,3 C 22,2 C 74 % 1018,9 hPa 0,0 l/m 0,1 km/h (0 Bft) O-SO 113 0 min 0,000 mm 0,0 UV-I 0 W/m 11,7 C 16,3 C 1,6 km/h (1 Bft) 98,11 %
27.05.2017 00:30 16,3 C 22,2 C 73 % 1018,9 hPa 0,0 l/m 0,0 km/h (0 Bft) O-SO 113 0 min 0,000 mm 0,0 UV-I 0 W/m 11,4 C 16,3 C 1,6 km/h (1 Bft) 94,87 %
27.05.2017 00:32 16,2 C 22,2 C 73 % 1018,9 hPa 0,0 l/m 0,0 km/h (0 Bft) O-SO 113 0 min 0,000 mm 0,0 UV-I 0 W/m 11,4 C 16,2 C 0,0 km/h (0 Bft) 97,87 %
27.05.2017 00:34 16,2 C 22,2 C 74 % 1018,9 hPa 0,0 l/m 0,0 km/h (0 Bft) O-SO 113 0 min 0,000 mm 0,0 UV-I 0 W/m 11,6 C 16,2 C 0,0 km/h (0 Bft) 96,00 %
27.05.2017 00:36 16,2 C 22,2 C 74 % 1018,9 hPa 0,0 l/m 0,0 km/h (0 Bft) O-SO 113 0 min 0,000 mm 0,0 UV-I 0 W/m 11,6 C 16,2 C 0,0 km/h (0 Bft) 95,74 %
27.05.2017 00:38 16,2 C 22,2 C 74 % 1018,9 hPa 0,0 l/m 0,0 km/h (0 Bft) O-SO 113 0 min 0,000 mm 0,0 UV-I 0 W/m 11,6 C 16,2 C 0,0 km/h (0 Bft) 91,49 %
27.05.2017 00:40 16,2 C 22,2 C 73 % 1018,9 hPa 0,0 l/m 0,0 km/h (0 Bft) O-SO 113 0 min 0,000 mm 0,0 UV-I 0 W/m 11,4 C 16,2 C 0,0 km/h (0 Bft) 98,11 %
27.05.2017 00:42 16,2 C 22,2 C 72 % 1018,9 hPa 0,0 l/m 0,0 km/h (0 Bft) O-SO 113 0 min 0,000 mm 0,0 UV-I 0 W/m 11,1 C 16,2 C 0,0 km/h (0 Bft) 95,74 %
27.05.2017 00:44 16,2 C 22,2 C 72 % 1018,9 hPa 0,0 l/m 0,0 km/h (0 Bft) O-SO 113 0 min 0,000 mm 0,0 UV-I 0 W/m 11,1 C 16,2 C 0,0 km/h (0 Bft) 97,87 %
27.05.2017 00:46 16,2 C 22,2 C 72 % 1018,9 hPa 0,0 l/m 0,0 km/h (0 Bft) O-SO 113 0 min 0,000 mm 0,0 UV-I 0 W/m 11,1 C 16,2 C 0,0 km/h (0 Bft) 94,74 %
27.05.2017 00:48 16,1 C 22,2 C 73 % 1018,9 hPa 0,0 l/m 0,1 km/h (0 Bft) O-SO 113 0 min 0,000 mm 0,0 UV-I 0 W/m 11,3 C 16,1 C 1,6 km/h (1 Bft) 98,00 %
27.05.2017 00:50 16,1 C 22,2 C 74 % 1018,9 hPa 0,0 l/m 0,3 km/h (0 Bft) O-SO 113 0 min 0,000 mm 0,0 UV-I 0 W/m 11,5 C 16,1 C 1,6 km/h (1 Bft) 97,87 %
27.05.2017 00:52 16,1 C 22,2 C 74 % 1018,8 hPa 0,0 l/m 0,1 km/h (0 Bft) O-SO 113 0 min 0,000 mm 0,0 UV-I 0 W/m 11,5 C 16,1 C 1,6 km/h (1 Bft) 97,14 %
27.05.2017 00:54 16,0 C 22,2 C 75 % 1018,9 hPa 0,0 l/m 0,0 km/h (0 Bft) O-SO 113 0 min 0,000 mm 0,0 UV-I 0 W/m 11,6 C 16,0 C 0,0 km/h (0 Bft) 100,00 %
27.05.2017 00:56 15,9 C 22,2 C 75 % 1018,9 hPa 0,0 l/m 0,0 km/h (0 Bft) O-SO 113 0 min 0,000 mm 0,0 UV-I 0 W/m 11,5 C 15,9 C 0,0 km/h (0 Bft) 97,87 %
27.05.2017 00:58 15,8 C 22,2 C 75 % 1018,9 hPa 0,0 l/m 0,0 km/h (0 Bft) O-SO 113 0 min 0,000 mm 0,0 UV-I 0 W/m 11,4 C 15,8 C 0,0 km/h (0 Bft) 90,57 %
27.05.2017 01:00 15,8 C 22,2 C 75 % 1018,9 hPa 0,0 l/m 1,4 km/h (1 Bft) O-SO 113 0 min 0,000 mm 0,0 UV-I 0 W/m 11,4 C 15,8 C 3,2 km/h (1 Bft) 97,56 %
27.05.2017 01:02 15,8 C 22,2 C 76 % 1018,9 hPa 0,0 l/m 1,2 km/h (1 Bft) O-SO 113 0 min 0,000 mm 0,0 UV-I 0 W/m 11,6 C 15,8 C 3,2 km/h (1 Bft) 96,00 %
27.05.2017 01:04 15,7 C 22,2 C 76 % 1018,9 hPa 0,0 l/m 2,0 km/h (1 Bft) O-SO 113 0 min 0,000 mm 0,0 UV-I 0 W/m 11,5 C 15,7 C 3,2 km/h (1 Bft) 95,74 %
27.05.2017 01:06 15,7 C 22,2 C 76 % 1018,9 hPa 0,0 l/m 2,1 km/h (1 Bft) O-SO 113 0 min 0,000 mm 0,0 UV-I 0 W/m 11,5 C 15,7 C 3,2 km/h (1 Bft) 98,11 %
27.05.2017 01:08 15,6 C 22,2 C 77 % 1019,0 hPa 0,0 l/m 2,9 km/h (1 Bft) O-SO 115 0 min 0,000 mm 0,0 UV-I 0 W/m 11,6 C 15,6 C 3,2 km/h (1 Bft) 95,12 %
27.05.2017 01:10 15,6 C 22,2 C 78 % 1019,0 hPa 0,0 l/m 2,6 km/h (1 Bft) O-SO 115 0 min 0,000 mm 0,0 UV-I 0 W/m 11,8 C 15,6 C 3,2 km/h (1 Bft) 97,22 %
27.05.2017 01:12 15,5 C 22,2 C 78 % 1018,9 hPa 0,0 l/m 0,6 km/h (0 Bft) O-SO 115 0 min 0,000 mm 0,0 UV-I 0 W/m 11,7 C 15,5 C 1,6 km/h (1 Bft) 96,36 %
27.05.2017 01:14 15,4 C 22,2 C 78 % 1019,0 hPa 0,0 l/m 0,0 km/h (0 Bft) O-SO 115 0 min 0,000 mm 0,0 UV-I 0 W/m 11,6 C 15,4 C 0,0 km/h (0 Bft) 92,00 %
27.05.2017 01:16 15,4 C 22,2 C 78 % 1019,0 hPa 0,0 l/m 0,0 km/h (0 Bft) O-SO 115 0 min 0,000 mm 0,0 UV-I 0 W/m 11,6 C 15,4 C 0,0 km/h (0 Bft) 95,74 %
27.05.2017 01:18 15,3 C 22,2 C 79 % 1019,0 hPa 0,0 l/m 0,0 km/h (0 Bft) O-SO 115 0 min 0,000 mm 0,0 UV-I 0 W/m 11,7 C 15,3 C 0,0 km/h (0 Bft) 94,00 %
27.05.2017 01:20 15,3 C 22,2 C 79 % 1019,0 hPa 0,0 l/m 0,0 km/h (0 Bft) O-SO 115 0 min 0,000 mm 0,0 UV-I 0 W/m 11,7 C 15,3 C 0,0 km/h (0 Bft) 93,62 %
27.05.2017 01:22 15,2 C 22,2 C 78 % 1019,0 hPa 0,0 l/m 0,0 km/h (0 Bft) O-SO 115 0 min 0,000 mm 0,0 UV-I 0 W/m 11,4 C 15,2 C 0,0 km/h (0 Bft) 95,74 %
27.05.2017 01:24 15,2 C 22,2 C 78 % 1018,9 hPa 0,0 l/m 0,0 km/h (0 Bft) O-SO 115 0 min 0,000 mm 0,0 UV-I 0 W/m 11,4 C 15,2 C 0,0 km/h (0 Bft) 97,87 %
27.05.2017 01:26 15,2 C 22,2 C 79 % 1018,9 hPa 0,0 l/m 0,0 km/h (0 Bft) O-SO 115 0 min 0,000 mm 0,0 UV-I 0 W/m 11,6 C 15,2 C 0,0 km/h (0 Bft) 96,00 %
27.05.2017 01:28 15,1 C 22,2 C 79 % 1018,9 hPa 0,0 l/m 0,1 km/h (0 Bft) O-SO 115 0 min 0,000 mm 0,0 UV-I 0 W/m 11,5 C 15,1 C 1,6 km/h (1 Bft) 94,29 %
27.05.2017 01:30 15,0 C 22,2 C 80 % 1018,9 hPa 0,0 l/m 1,7 km/h (1 Bft) O-SO 115 0 min 0,000 mm 0,0 UV-I 0 W/m 11,6 C 15,0 C 3,2 km/h (1 Bft) 93,62 %
27.05.2017 01:32 14,9 C 22,2 C 80 % 1018,9 hPa 0,0 l/m 2,7 km/h (1 Bft) O-SO 115 0 min 0,000 mm 0,0 UV-I 0 W/m 11,5 C 14,9 C 4,8 km/h (1 Bft) 97,92 %
27.05.2017 01:34 14,8 C 22,2 C 80 % 1018,9 hPa 0,0 l/m 1,7 km/h (1 Bft) O-SO 116 0 min 0,000 mm 0,0 UV-I 0 W/m 11,4 C 14,8 C 3,2 km/h (1 Bft) 98,00 %
27.05.2017 01:36 14,7 C 22,2 C 82 % 1018,9 hPa 0,0 l/m 3,7 km/h (1 Bft) S-SO 152 0 min 0,000 mm 0,0 UV-I 0 W/m 11,7 C 14,7 C 6,4 km/h (2 Bft) 100,00 %
27.05.2017 01:38 14,5 C 22,2 C 82 % 1019,0 hPa 0,0 l/m 2,5 km/h (1 Bft) S-SO 152 0 min 0,000 mm 0,0 UV-I 0 W/m 11,5 C 14,5 C 4,8 km/h (1 Bft) 96,00 %
27.05.2017 01:40 14,4 C 22,2 C 82 % 1019,0 hPa 0,0 l/m 2,2 km/h (1 Bft) S-SO 152 0 min 0,000 mm 0,0 UV-I 0 W/m 11,4 C 14,4 C 3,2 km/h (1 Bft) 100,00 %
27.05.2017 01:42 14,1 C 22,2 C 82 % 1019,0 hPa 0,0 l/m 1,0 km/h (0 Bft) S-SO 152 0 min 0,000 mm 0,0 UV-I 0 W/m 11,1 C 14,1 C 3,2 km/h (1 Bft) 98,15 %
27.05.2017 01:44 13,9 C 22,2 C 82 % 1019,0 hPa 0,0 l/m 0,7 km/h (0 Bft) S-SO 152 0 min 0,000 mm 0,0 UV-I 0 W/m 10,9 C 13,9 C 1,6 km/h (1 Bft) 98,00 %
27.05.2017 01:46 13,8 C 22,2 C 83 % 1019,0 hPa 0,0 l/m 2,1 km/h (1 Bft) S-SO 152 0 min 0,000 mm 0,0 UV-I 0 W/m 11,0 C 13,8 C 3,2 km/h (1 Bft) 100,00 %
27.05.2017 01:48 13,8 C 22,2 C 83 % 1019,0 hPa 0,0 l/m 1,2 km/h (1 Bft) S-SO 152 0 min 0,000 mm 0,0 UV-I 0 W/m 11,0 C 13,8 C 3,2 km/h (1 Bft) 100,00 %
27.05.2017 01:50 13,9 C 22,2 C 83 % 1019,0 hPa 0,0 l/m 0,6 km/h (0 Bft) S-SO 152 0 min 0,000 mm 0,0 UV-I 0 W/m 11,1 C 13,9 C 1,6 km/h (1 Bft) 97,87 %
27.05.2017 01:52 14,0 C 22,2 C 83 % 1019,0 hPa 0,0 l/m 2,5 km/h (1 Bft) S-SO 152 0 min 0,000 mm 0,0 UV-I 0 W/m 11,2 C 14,0 C 3,2 km/h (1 Bft) 100,00 %
27.05.2017 01:54 14,2 C 22,2 C 83 % 1019,0 hPa 0,0 l/m 3,3 km/h (1 Bft) S-SO 152 0 min 0,000 mm 0,0 UV-I 0 W/m 11,4 C 14,2 C 4,8 km/h (1 Bft) 98,39 %
27.05.2017 01:56 14,3 C 22,2 C 83 % 1019,0 hPa 0,0 l/m 2,5 km/h (1 Bft) S-SO 152 0 min 0,000 mm 0,0 UV-I 0 W/m 11,5 C 14,3 C 3,2 km/h (1 Bft) 97,87 %
27.05.2017 01:58 14,4 C 22,2 C 82 % 1018,9 hPa 0,0 l/m 0,4 km/h (0 Bft) S-SO 152 0 min 0,000 mm 0,0 UV-I 0 W/m 11,4 C 14,4 C 1,6 km/h (1 Bft) 95,74 %
27.05.2017 02:00 14,4 C 22,2 C 82 % 1018,9 hPa 0,0 l/m 0,0 km/h (0 Bft) S-SO 152 0 min 0,000 mm 0,0 UV-I 0 W/m 11,4 C 14,4 C 0,0 km/h (0 Bft) 98,00 %
27.05.2017 02:02 14,4 C 22,2 C 82 % 1019,0 hPa 0,0 l/m 1,1 km/h (1 Bft) S-SO 152 0 min 0,000 mm 0,0 UV-I 0 W/m 11,4 C 14,4 C 3,2 km/h (1 Bft) 100,00 %
27.05.2017 02:04 14,4 C 22,2 C 82 % 1019,0 hPa 0,0 l/m 2,2 km/h (1 Bft) S-SO 152 0 min 0,000 mm 0,0 UV-I 0 W/m 11,4 C 14,4 C 3,2 km/h (1 Bft) 98,00 %
27.05.2017 02:06 14,3 C 22,2 C 82 % 1018,9 hPa 0,0 l/m 2,1 km/h (1 Bft) S-SO 152 0 min 0,000 mm 0,0 UV-I 0 W/m 11,3 C 14,3 C 3,2 km/h (1 Bft) 98,11 %
27.05.2017 02:08 14,3 C 22,2 C 82 % 1018,9 hPa 0,0 l/m 2,1 km/h (1 Bft) S-SO 152 0 min 0,000 mm 0,0 UV-I 0 W/m 11,3 C 14,3 C 3,2 km/h (1 Bft) 100,00 %
27.05.2017 02:10 14,1 C 22,2 C 82 % 1018,9 hPa 0,0 l/m 1,9 km/h (1 Bft) S-SO 152 0 min 0,000 mm 0,0 UV-I 0 W/m 11,1 C 14,1 C 3,2 km/h (1 Bft) 100,00 %
27.05.2017 02:12 13,9 C 22,2 C 83 % 1018,9 hPa 0,0 l/m 0,4 km/h (0 Bft) S-SO 152 0 min 0,000 mm 0,0 UV-I 0 W/m 11,1 C 13,9 C 1,6 km/h (1 Bft) 100,00 %
27.05.2017 02:14 13,8 C 22,2 C 83 % 1018,9 hPa 0,0 l/m 1,0 km/h (0 Bft) S-SO 152 0 min 0,000 mm 0,0 UV-I 0 W/m 11,0 C 13,8 C 3,2 km/h (1 Bft) 97,87 %
27.05.2017 02:16 13,6 C 22,2 C 83 % 1018,9 hPa 0,0 l/m 0,5 km/h (0 Bft) S-SO 152 0 min 0,000 mm 0,0 UV-I 0 W/m 10,8 C 13,6 C 1,6 km/h (1 Bft) 100,00 %
27.05.2017 02:18 13,5 C 22,2 C 84 % 1018,9 hPa 0,0 l/m 0,8 km/h (0 Bft) S-SO 152 0 min 0,000 mm 0,0 UV-I 0 W/m 10,8 C 13,5 C 1,6 km/h (1 Bft) 100,00 %
27.05.2017 02:20 13,5 C 22,2 C 84 % 1018,8 hPa 0,0 l/m 1,2 km/h (1 Bft) S-SO 152 0 min 0,000 mm 0,0 UV-I 0 W/m 10,8 C 13,5 C 3,2 km/h (1 Bft) 96,43 %
27.05.2017 02:22 13,6 C 22,2 C 85 % 1018,8 hPa 0,0 l/m 3,2 km/h (1 Bft) S-SO 152 0 min 0,000 mm 0,0 UV-I 0 W/m 11,1 C 13,6 C 4,8 km/h (1 Bft) 97,73 %
27.05.2017 02:24 13,7 C 22,2 C 84 % 1018,8 hPa 0,0 l/m 3,1 km/h (1 Bft) S-SO 152 0 min 0,000 mm 0,0 UV-I 0 W/m 11,0 C 13,7 C 4,8 km/h (1 Bft) 100,00 %
27.05.2017 02:26 13,7 C 22,2 C 84 % 1018,8 hPa 0,0 l/m 2,9 km/h (1 Bft) S-SO 152 0 min 0,000 mm 0,0 UV-I 0 W/m 11,0 C 13,7 C 3,2 km/h (1 Bft) 98,00 %
27.05.2017 02:28 13,6 C 22,2 C 84 % 1018,8 hPa 0,0 l/m 2,4 km/h (1 Bft) S-SO 152 0 min 0,000 mm 0,0 UV-I 0 W/m 10,9 C 13,6 C 4,8 km/h (1 Bft) 100,00 %
27.05.2017 02:30 13,6 C 22,2 C 85 % 1018,8 hPa 0,0 l/m 0,2 km/h (0 Bft) S-SO 152 0 min 0,000 mm 0,0 UV-I 0 W/m 11,1 C 13,6 C 1,6 km/h (1 Bft) 97,44 %
27.05.2017 02:32 13,5 C 22,2 C 85 % 1018,8 hPa 0,0 l/m 1,0 km/h (0 Bft) S-SO 152 0 min 0,000 mm 0,0 UV-I 0 W/m 11,0 C 13,5 C 3,2 km/h (1 Bft) 98,15 %
27.05.2017 02:34 13,5 C 22,2 C 85 % 1018,8 hPa 0,0 l/m 2,5 km/h (1 Bft) S-SO 152 0 min 0,000 mm 0,0 UV-I 0 W/m 11,0 C 13,5 C 4,8 km/h (1 Bft) 100,00 %
27.05.2017 02:36 13,5 C 22,2 C 85 % 1018,8 hPa 0,0 l/m 0,2 km/h (0 Bft) S-SO 152 0 min 0,000 mm 0,0 UV-I 0 W/m 11,0 C 13,5 C 1,6 km/h (1 Bft) 94,87 %
27.05.2017 02:38 13,5 C 22,2 C 84 % 1018,8 hPa 0,0 l/m 0,9 km/h (0 Bft) S-SO 152 0 min 0,000 mm 0,0 UV-I 0 W/m 10,8 C 13,5 C 3,2 km/h (1 Bft) 100,00 %
27.05.2017 02:40 13,5 C 22,2 C 84 % 1018,8 hPa 0,0 l/m 2,0 km/h (1 Bft) S-SO 152 0 min 0,000 mm 0,0 UV-I 0 W/m 10,8 C 13,5 C 3,2 km/h (1 Bft) 95,74 %
27.05.2017 02:42 13,5 C 22,2 C 85 % 1018,8 hPa 0,0 l/m 1,7 km/h (1 Bft) S-SO 152 0 min 0,000 mm 0,0 UV-I 0 W/m 11,0 C 13,5 C 3,2 km/h (1 Bft) 100,00 %
27.05.2017 02:44 13,5 C 22,2 C 85 % 1018,8 hPa 0,0 l/m 1,4 km/h (1 Bft) S-SO 152 0 min 0,000 mm 0,0 UV-I 0 W/m 11,0 C 13,5 C 3,2 km/h (1 Bft) 97,87 %
27.05.2017 02:46 13,5 C 22,2 C 85 % 1018,8 hPa 0,0 l/m 2,3 km/h (1 Bft) S-SO 152 0 min 0,000 mm 0,0 UV-I 0 W/m 11,0 C 13,5 C 3,2 km/h (1 Bft) 98,11 %
27.05.2017 02:48 13,4 C 22,2 C 85 % 1018,8 hPa 0,0 l/m 0,7 km/h (0 Bft) S-SO 152 0 min 0,000 mm 0,0 UV-I 0 W/m 10,9 C 13,4 C 1,6 km/h (1 Bft) 100,00 %
27.05.2017 02:50 13,4 C 22,2 C 84 % 1018,9 hPa 0,0 l/m 0,1 km/h (0 Bft) S-SO 152 0 min 0,000 mm 0,0 UV-I 0 W/m 10,8 C 13,4 C 1,6 km/h (1 Bft) 97,87 %
27.05.2017 02:52 13,3 C 22,2 C 84 % 1018,9 hPa 0,0 l/m 0,1 km/h (0 Bft) S-SO 152 0 min 0,000 mm 0,0 UV-I 0 W/m 10,7 C 13,3 C 1,6 km/h (1 Bft) 100,00 %
27.05.2017 02:54 13,3 C 22,2 C 85 % 1018,9 hPa 0,0 l/m 0,0 km/h (0 Bft) S-SO 152 0 min 0,000 mm 0,0 UV-I 0 W/m 10,8 C 13,3 C 0,0 km/h (0 Bft) 98,00 %
27.05.2017 02:56 13,4 C 22,2 C 85 % 1019,0 hPa 0,0 l/m 0,0 km/h (0 Bft) S-SO 152 0 min 0,000 mm 0,0 UV-I 0 W/m 10,9 C 13,4 C 0,0 km/h (0 Bft) 95,74 %
27.05.2017 02:58 13,4 C 22,2 C 84 % 1018,9 hPa 0,0 l/m 0,0 km/h (0 Bft) S-SO 152 0 min 0,000 mm 0,0 UV-I 0 W/m 10,8 C 13,4 C 0,0 km/h (0 Bft) 98,11 %
27.05.2017 03:00 13,4 C 22,2 C 84 % 1019,0 hPa 0,0 l/m 0,4 km/h (0 Bft) S-SO 152 0 min 0,000 mm 0,0 UV-I 0 W/m 10,8 C 13,4 C 1,6 km/h (1 Bft) 97,37 %
27.05.2017 03:02 13,4 C 22,2 C 84 % 1018,9 hPa 0,0 l/m 0,8 km/h (0 Bft) S-SO 152 0 min 0,000 mm 0,0 UV-I 0 W/m 10,8 C 13,4 C 3,2 km/h (1 Bft) 98,11 %
27.05.2017 03:04 13,4 C 22,2 C 84 % 1019,0 hPa 0,0 l/m 1,7 km/h (1 Bft) S-SO 152 0 min 0,000 mm 0,0 UV-I 0 W/m 10,8 C 13,4 C 3,2 km/h (1 Bft) 97,22 %
27.05.2017 03:06 13,3 C 22,2 C 84 % 1019,0 hPa 0,0 l/m 1,3 km/h (1 Bft) S-SO 152 0 min 0,000 mm 0,0 UV-I 0 W/m 10,7 C 13,3 C 3,2 km/h (1 Bft) 96,15 %
27.05.2017 03:08 13,2 C 22,2 C 84 % 1019,0 hPa 0,0 l/m 0,0 km/h (0 Bft) S-SO 152 0 min 0,000 mm 0,0 UV-I 0 W/m 10,6 C 13,2 C 1,6 km/h (1 Bft) 97,22 %
27.05.2017 03:10 13,2 C 22,2 C 84 % 1019,0 hPa 0,0 l/m 0,5 km/h (0 Bft) S-SO 152 0 min 0,000 mm 0,0 UV-I 0 W/m 10,6 C 13,2 C 1,6 km/h (1 Bft) 96,88 %
27.05.2017 03:12 13,1 C 22,2 C 85 % 1019,0 hPa 0,0 l/m 0,4 km/h (0 Bft) S-SO 152 0 min 0,000 mm 0,0 UV-I 0 W/m 10,6 C 13,1 C 1,6 km/h (1 Bft) 92,86 %
27.05.2017 03:14 13,1 C 22,2 C 85 % 1019,0 hPa 0,0 l/m 0,2 km/h (0 Bft) S-SO 152 0 min 0,000 mm 0,0 UV-I 0 W/m 10,6 C 13,1 C 1,6 km/h (1 Bft) 96,23 %
27.05.2017 03:16 13,0 C 22,2 C 85 % 1019,0 hPa 0,0 l/m 1,0 km/h (0 Bft) S-SO 152 0 min 0,000 mm 0,0 UV-I 0 W/m 10,5 C 13,0 C 3,2 km/h (1 Bft) 95,12 %
27.05.2017 03:18 12,9 C 22,2 C 86 % 1019,1 hPa 0,0 l/m 2,7 km/h (1 Bft) S-SO 152 0 min 0,000 mm 0,0 UV-I 0 W/m 10,6 C 12,9 C 3,2 km/h (1 Bft) 94,34 %
27.05.2017 03:20 12,9 C 22,2 C 86 % 1019,0 hPa 0,0 l/m 2,5 km/h (1 Bft) S-SO 152 0 min 0,000 mm 0,0 UV-I 0 W/m 10,6 C 12,9 C 3,2 km/h (1 Bft) 92,11 %
27.05.2017 03:22 12,8 C 22,2 C 86 % 1019,0 hPa 0,0 l/m 2,7 km/h (1 Bft) S-SO 152 0 min 0,000 mm 0,0 UV-I 0 W/m 10,5 C 12,8 C 3,2 km/h (1 Bft) 94,00 %
27.05.2017 03:24 12,7 C 22,2 C 86 % 1019,0 hPa 0,0 l/m 2,1 km/h (1 Bft) S-SO 152 0 min 0,000 mm 0,0 UV-I 0 W/m 10,4 C 12,7 C 3,2 km/h (1 Bft) 94,00 %
27.05.2017 03:26 12,7 C 22,2 C 86 % 1019,1 hPa 0,0 l/m 1,6 km/h (1 Bft) S-SO 152 0 min 0,000 mm 0,0 UV-I 0 W/m 10,4 C 12,7 C 3,2 km/h (1 Bft) 97,87 %
27.05.2017 03:28 12,5 C 22,2 C 86 % 1019,1 hPa 0,0 l/m 2,3 km/h (1 Bft) S-SO 152 0 min 0,000 mm 0,0 UV-I 0 W/m 10,2 C 12,5 C 3,2 km/h (1 Bft) 95,12 %
27.05.2017 03:30 12,5 C 22,2 C 87 % 1019,1 hPa 0,0 l/m 0,4 km/h (0 Bft) S-SO 152 0 min 0,000 mm 0,0 UV-I 0 W/m 10,4 C 12,5 C 3,2 km/h (1 Bft) 94,34 %
27.05.2017 03:32 12,5 C 22,2 C 87 % 1019,1 hPa 0,0 l/m 2,7 km/h (1 Bft) S-SO 152 0 min 0,000 mm 0,0 UV-I 0 W/m 10,4 C 12,5 C 3,2 km/h (1 Bft) 92,11 %
27.05.2017 03:34 12,6 C 22,2 C 87 % 1019,1 hPa 0,0 l/m 2,3 km/h (1 Bft) S-SO 152 0 min 0,000 mm 0,0 UV-I 0 W/m 10,5 C 12,6 C 3,2 km/h (1 Bft) 94,34 %
27.05.2017 03:36 12,6 C 22,2 C 87 % 1019,1 hPa 0,0 l/m 1,3 km/h (1 Bft) S-SO 152 0 min 0,000 mm 0,0 UV-I 0 W/m 10,5 C 12,6 C 1,6 km/h (1 Bft) 95,12 %
27.05.2017 03:38 12,6 C 22,2 C 87 % 1019,1 hPa 0,0 l/m 1,8 km/h (1 Bft) S-SO 152 0 min 0,000 mm 0,0 UV-I 0 W/m 10,5 C 12,6 C 4,8 km/h (1 Bft) 97,87 %
27.05.2017 03:40 12,6 C 21,7 C 87 % 1019,1 hPa 0,0 l/m 3,2 km/h (1 Bft) S-SO 152 0 min 0,000 mm 0,0 UV-I 0 W/m 10,5 C 12,6 C 4,8 km/h (1 Bft) 96,23 %
27.05.2017 03:42 12,6 C 21,7 C 87 % 1019,1 hPa 0,0 l/m 3,3 km/h (1 Bft) S-SO 152 0 min 0,000 mm 0,0 UV-I 0 W/m 10,5 C 12,6 C 4,8 km/h (1 Bft) 97,56 %
27.05.2017 03:44 12,6 C 22,2 C 87 % 1019,2 hPa 0,0 l/m 1,7 km/h (1 Bft) S-SO 152 0 min 0,000 mm 0,0 UV-I 0 W/m 10,5 C 12,6 C 4,8 km/h (1 Bft) 93,62 %
27.05.2017 03:46 12,6 C 21,7 C 87 % 1019,2 hPa 0,0 l/m 1,3 km/h (1 Bft) S-SO 152 0 min 0,000 mm 0,0 UV-I 0 W/m 10,5 C 12,6 C 3,2 km/h (1 Bft) 98,11 %
27.05.2017 03:48 12,6 C 21,7 C 87 % 1019,2 hPa 0,0 l/m 2,4 km/h (1 Bft) S-SO 152 0 min 0,000 mm 0,0 UV-I 0 W/m 10,5 C 12,6 C 3,2 km/h (1 Bft) 97,62 %
27.05.2017 03:50 12,6 C 21,7 C 87 % 1019,1 hPa 0,0 l/m 3,4 km/h (1 Bft) S-SO 152 0 min 0,000 mm 0,0 UV-I 0 W/m 10,5 C 12,6 C 4,8 km/h (1 Bft) 97,14 %
27.05.2017 03:52 12,6 C 21,7 C 86 % 1019,2 hPa 0,0 l/m 2,6 km/h (1 Bft) S-SO 152 0 min 0,000 mm 0,0 UV-I 0 W/m 10,3 C 12,6 C 3,2 km/h (1 Bft) 95,16 %
27.05.2017 03:54 12,6 C 21,7 C 87 % 1019,2 hPa 0,0 l/m 2,1 km/h (1 Bft) S-SO 152 0 min 0,000 mm 0,0 UV-I 0 W/m 10,5 C 12,6 C 3,2 km/h (1 Bft) 97,87 %
27.05.2017 03:56 12,6 C 21,7 C 86 % 1019,2 hPa 0,0 l/m 1,1 km/h (1 Bft) S-SO 152 0 min 0,000 mm 0,0 UV-I 0 W/m 10,3 C 12,6 C 3,2 km/h (1 Bft) 96,00 %
27.05.2017 03:58 12,6 C 21,7 C 86 % 1019,1 hPa 0,0 l/m 2,2 km/h (1 Bft) S-SO 152 0 min 0,000 mm 0,0 UV-I 0 W/m 10,3 C 12,6 C 4,8 km/h (1 Bft) 94,74 %
27.05.2017 04:00 12,7 C 21,7 C 86 % 1019,2 hPa 0,0 l/m 3,1 km/h (1 Bft) S-SO 153 0 min 0,000 mm 0,0 UV-I 0 W/m 10,4 C 12,7 C 4,8 km/h (1 Bft) 96,23 %
27.05.2017 04:02 12,8 C 21,7 C 86 % 1019,1 hPa 0,0 l/m 0,0 km/h (0 Bft) S-SO 153 0 min 0,000 mm 0,0 UV-I 0 W/m 10,5 C 12,8 C 0,0 km/h (0 Bft) 100,00 %
27.05.2017 04:04 12,8 C 21,7 C 86 % 1019,1 hPa 0,0 l/m 2,4 km/h (1 Bft) S-SO 153 0 min 0,000 mm 0,0 UV-I 0 W/m 10,5 C 12,8 C 4,8 km/h (1 Bft) 96,00 %
27.05.2017 04:06 12,9 C 21,7 C 86 % 1019,1 hPa 0,0 l/m 3,0 km/h (1 Bft) S-SO 157 0 min 0,000 mm 0,0 UV-I 0 W/m 10,6 C 12,9 C 4,8 km/h (1 Bft) 95,12 %
27.05.2017 04:08 12,9 C 21,7 C 86 % 1019,1 hPa 0,0 l/m 3,0 km/h (1 Bft) S-SO 157 0 min 0,000 mm 0,0 UV-I 0 W/m 10,6 C 12,9 C 4,8 km/h (1 Bft) 95,74 %
27.05.2017 04:10 12,9 C 21,7 C 85 % 1019,1 hPa 0,0 l/m 2,9 km/h (1 Bft) S-SO 158 0 min 0,000 mm 0,0 UV-I 0 W/m 10,4 C 12,9 C 4,8 km/h (1 Bft) 96,00 %
27.05.2017 04:12 12,9 C 21,7 C 85 % 1019,1 hPa 0,0 l/m 3,5 km/h (1 Bft) S-SO 159 0 min 0,000 mm 0,0 UV-I 0 W/m 10,4 C 12,9 C 6,4 km/h (2 Bft) 97,87 %
27.05.2017 04:14 12,9 C 21,7 C 85 % 1019,1 hPa 0,0 l/m 3,4 km/h (1 Bft) S 182 0 min 0,000 mm 0,0 UV-I 0 W/m 10,4 C 12,9 C 6,4 km/h (2 Bft) 100,00 %
27.05.2017 04:16 12,9 C 21,7 C 85 % 1019,1 hPa 0,0 l/m 3,4 km/h (1 Bft) S 182 0 min 0,000 mm 0,0 UV-I 0 W/m 10,4 C 12,9 C 4,8 km/h (1 Bft) 97,37 %
27.05.2017 04:18 12,8 C 21,7 C 86 % 1019,1 hPa 0,0 l/m 3,8 km/h (1 Bft) S-SW 198 0 min 0,000 mm 0,0 UV-I 0 W/m 10,5 C 12,8 C 4,8 km/h (1 Bft) 100,00 %
27.05.2017 04:20 12,8 C 21,7 C 86 % 1019,1 hPa 0,0 l/m 3,7 km/h (1 Bft) S-SW 198 0 min 0,000 mm 0,0 UV-I 0 W/m 10,5 C 12,8 C 4,8 km/h (1 Bft) 98,11 %
27.05.2017 04:22 12,7 C 21,7 C 86 % 1019,0 hPa 0,0 l/m 3,6 km/h (1 Bft) S-SW 198 0 min 0,000 mm 0,0 UV-I 0 W/m 10,4 C 12,7 C 4,8 km/h (1 Bft) 97,56 %
27.05.2017 04:24 12,7 C 21,7 C 86 % 1019,1 hPa 0,0 l/m 3,6 km/h (1 Bft) S-SW 198 0 min 0,000 mm 0,0 UV-I 0 W/m 10,4 C 12,7 C 4,8 km/h (1 Bft) 100,00 %
27.05.2017 04:26 12,7 C 21,7 C 86 % 1019,1 hPa 0,0 l/m 2,9 km/h (1 Bft) S-SW 198 0 min 0,000 mm 0,0 UV-I 0 W/m 10,4 C 12,7 C 4,8 km/h (1 Bft) 95,74 %
27.05.2017 04:28 12,7 C 21,7 C 86 % 1019,1 hPa 0,0 l/m 3,9 km/h (1 Bft) S-SW 198 0 min 0,000 mm 0,0 UV-I 0 W/m 10,4 C 12,7 C 4,8 km/h (1 Bft) 97,87 %
27.05.2017 04:30 12,7 C 21,7 C 86 % 1019,2 hPa 0,0 l/m 3,6 km/h (1 Bft) S-SW 201 0 min 0,000 mm 0,0 UV-I 0 W/m 10,4 C 12,7 C 6,4 km/h (2 Bft) 95,24 %
27.05.2017 04:32 12,7 C 21,7 C 86 % 1019,2 hPa 0,0 l/m 4,2 km/h (1 Bft) S-SW 201 0 min 0,000 mm 0,0 UV-I 0 W/m 10,4 C 12,7 C 4,8 km/h (1 Bft) 97,73 %
27.05.2017 04:34 12,7 C 21,7 C 87 % 1019,2 hPa 0,0 l/m 2,8 km/h (1 Bft) S-SW 201 0 min 0,000 mm 0,0 UV-I 0 W/m 10,6 C 12,7 C 3,2 km/h (1 Bft) 100,00 %
27.05.2017 04:36 12,7 C 21,7 C 86 % 1019,2 hPa 0,0 l/m 2,5 km/h (1 Bft) S-SW 201 0 min 0,000 mm 0,0 UV-I 0 W/m 10,4 C 12,7 C 4,8 km/h (1 Bft) 98,11 %
27.05.2017 04:38 12,7 C 21,7 C 86 % 1019,2 hPa 0,0 l/m 1,9 km/h (1 Bft) S-SW 201 0 min 0,000 mm 0,0 UV-I 0 W/m 10,4 C 12,7 C 3,2 km/h (1 Bft) 100,00 %
27.05.2017 04:40 12,7 C 21,7 C 86 % 1019,2 hPa 0,0 l/m 1,9 km/h (1 Bft) S-SW 201 0 min 0,000 mm 0,0 UV-I 0 W/m 10,4 C 12,7 C 3,2 km/h (1 Bft) 100,00 %
27.05.2017 04:42 12,7 C 21,7 C 86 % 1019,2 hPa 0,0 l/m 2,5 km/h (1 Bft) S-SW 201 0 min 0,000 mm 0,0 UV-I 0 W/m 10,4 C 12,7 C 3,2 km/h (1 Bft) 100,00 %
27.05.2017 04:44 12,7 C 21,7 C 86 % 1019,2 hPa 0,0 l/m 3,0 km/h (1 Bft) S-SW 201 0 min 0,000 mm 0,0 UV-I 0 W/m 10,4 C 12,7 C 3,2 km/h (1 Bft) 97,87 %
27.05.2017 04:46 12,7 C 21,7 C 86 % 1019,2 hPa 0,0 l/m 2,7 km/h (1 Bft) S-SW 201 0 min 0,000 mm 0,0 UV-I 0 W/m 10,4 C 12,7 C 3,2 km/h (1 Bft) 100,00 %
27.05.2017 04:48 12,7 C 21,7 C 86 % 1019,2 hPa 0,0 l/m 3,0 km/h (1 Bft) S-SW 201 0 min 0,000 mm 0,0 UV-I 0 W/m 10,4 C 12,7 C 3,2 km/h (1 Bft) 94,34 %
27.05.2017 04:50 12,6 C 21,7 C 86 % 1019,2 hPa 0,0 l/m 2,5 km/h (1 Bft) S-SW 201 0 min 0,000 mm 0,0 UV-I 0 W/m 10,3 C 12,6 C 3,2 km/h (1 Bft) 97,87 %
27.05.2017 04:52 12,6 C 21,7 C 86 % 1019,3 hPa 0,0 l/m 2,5 km/h (1 Bft) S-SW 201 0 min 0,000 mm 0,0 UV-I 0 W/m 10,3 C 12,6 C 3,2 km/h (1 Bft) 97,14 %
27.05.2017 04:54 12,5 C 21,7 C 86 % 1019,2 hPa 0,0 l/m 1,7 km/h (1 Bft) S-SW 201 0 min 0,000 mm 0,0 UV-I 0 W/m 10,2 C 12,5 C 3,2 km/h (1 Bft) 98,11 %
27.05.2017 04:56 12,4 C 21,7 C 86 % 1019,2 hPa 0,0 l/m 1,2 km/h (1 Bft) S-SW 201 0 min 0,000 mm 0,0 UV-I 5 W/m 10,1 C 12,4 C 3,2 km/h (1 Bft) 98,11 %
27.05.2017 04:58 12,3 C 21,7 C 86 % 1019,2 hPa 0,0 l/m 0,8 km/h (0 Bft) S-SW 201 0 min 0,000 mm 0,0 UV-I 5 W/m 10,0 C 12,3 C 1,6 km/h (1 Bft) 97,37 %
27.05.2017 05:00 12,2 C 21,7 C 87 % 1019,3 hPa 0,0 l/m 0,1 km/h (0 Bft) S-SW 201 0 min 0,000 mm 0,0 UV-I 5 W/m 10,1 C 12,2 C 1,6 km/h (1 Bft) 100,00 %
27.05.2017 05:02 12,2 C 21,7 C 87 % 1019,2 hPa 0,0 l/m 0,2 km/h (0 Bft) S-SW 201 0 min 0,000 mm 0,0 UV-I 5 W/m 10,1 C 12,2 C 1,6 km/h (1 Bft) 96,30 %
27.05.2017 05:04 12,1 C 21,7 C 87 % 1019,3 hPa 0,0 l/m 0,6 km/h (0 Bft) S-SW 201 0 min 0,000 mm 0,0 UV-I 5 W/m 10,0 C 12,1 C 3,2 km/h (1 Bft) 100,00 %
27.05.2017 05:06 12,1 C 21,7 C 87 % 1019,3 hPa 0,0 l/m 1,3 km/h (1 Bft) S-SW 201 0 min 0,000 mm 0,0 UV-I 7 W/m 10,0 C 12,1 C 3,2 km/h (1 Bft) 97,62 %
27.05.2017 05:08 12,1 C 21,7 C 87 % 1019,3 hPa 0,0 l/m 1,3 km/h (1 Bft) S-SW 201 0 min 0,000 mm 0,0 UV-I 7 W/m 10,0 C 12,1 C 3,2 km/h (1 Bft) 95,74 %
27.05.2017 05:10 12,2 C 21,7 C 87 % 1019,3 hPa 0,0 l/m 3,1 km/h (1 Bft) S-SW 201 0 min 0,000 mm 0,0 UV-I 7 W/m 10,1 C 12,2 C 6,4 km/h (2 Bft) 96,00 %
27.05.2017 05:12 12,2 C 21,7 C 87 % 1019,3 hPa 0,0 l/m 3,3 km/h (1 Bft) S-SW 201 0 min 0,000 mm 0,0 UV-I 7 W/m 10,1 C 12,2 C 6,4 km/h (2 Bft) 95,74 %
27.05.2017 05:14 12,2 C 21,7 C 87 % 1019,3 hPa 0,0 l/m 2,2 km/h (1 Bft) S-SW 201 0 min 0,000 mm 0,0 UV-I 9 W/m 10,1 C 12,2 C 3,2 km/h (1 Bft) 97,87 %
27.05.2017 05:16 12,2 C 21,7 C 87 % 1019,3 hPa 0,0 l/m 2,0 km/h (1 Bft) S-SW 201 0 min 0,000 mm 0,0 UV-I 9 W/m 10,1 C 12,2 C 4,8 km/h (1 Bft) 94,00 %
27.05.2017 05:18 12,2 C 21,7 C 87 % 1019,3 hPa 0,0 l/m 2,0 km/h (1 Bft) S-SW 200 0 min 0,000 mm 0,0 UV-I 11 W/m 10,1 C 12,2 C 3,2 km/h (1 Bft) 95,74 %
27.05.2017 05:20 12,1 C 21,7 C 87 % 1019,3 hPa 0,0 l/m 0,9 km/h (0 Bft) S-SW 200 0 min 0,000 mm 0,0 UV-I 11 W/m 10,0 C 12,1 C 1,6 km/h (1 Bft) 97,56 %
27.05.2017 05:22 12,0 C 21,7 C 87 % 1019,3 hPa 0,0 l/m 0,5 km/h (0 Bft) S-SW 200 0 min 0,000 mm 0,0 UV-I 12 W/m 9,9 C 12,0 C 1,6 km/h (1 Bft) 95,74 %
27.05.2017 05:24 11,9 C 21,7 C 87 % 1019,3 hPa 0,0 l/m 1,4 km/h (1 Bft) S-SW 200 2 min 0,000 mm 0,0 UV-I 12 W/m 9,8 C 11,9 C 3,2 km/h (1 Bft) 98,00 %
27.05.2017 05:26 11,9 C 21,7 C 88 % 1019,3 hPa 0,0 l/m 1,4 km/h (1 Bft) S-SW 200 2 min 0,000 mm 0,0 UV-I 14 W/m 10,0 C 11,9 C 4,8 km/h (1 Bft) 98,00 %
27.05.2017 05:28 12,0 C 21,7 C 88 % 1019,3 hPa 0,0 l/m 1,8 km/h (1 Bft) S-SW 200 2 min 0,000 mm 0,0 UV-I 14 W/m 10,1 C 12,0 C 4,8 km/h (1 Bft) 94,74 %
27.05.2017 05:30 12,1 C 21,7 C 88 % 1019,3 hPa 0,0 l/m 3,1 km/h (1 Bft) S-SW 200 2 min 0,000 mm 0,0 UV-I 17 W/m 10,2 C 12,1 C 4,8 km/h (1 Bft) 98,21 %
27.05.2017 05:32 12,1 C 21,7 C 87 % 1019,3 hPa 0,0 l/m 2,6 km/h (1 Bft) S-SW 200 2 min 0,000 mm 0,0 UV-I 20 W/m 10,0 C 12,1 C 4,8 km/h (1 Bft) 95,74 %
27.05.2017 05:34 12,1 C 21,7 C 88 % 1019,3 hPa 0,0 l/m 2,8 km/h (1 Bft) S-SW 200 2 min 0,000 mm 0,0 UV-I 23 W/m 10,2 C 12,1 C 6,4 km/h (2 Bft) 97,56 %
27.05.2017 05:36 12,1 C 21,7 C 88 % 1019,4 hPa 0,0 l/m 3,4 km/h (1 Bft) S-SW 200 2 min 0,000 mm 0,0 UV-I 25 W/m 10,2 C 12,1 C 4,8 km/h (1 Bft) 95,74 %
27.05.2017 05:38 12,1 C 21,7 C 88 % 1019,4 hPa 0,0 l/m 4,7 km/h (1 Bft) S-SW 200 0 min 0,000 mm 0,0 UV-I 26 W/m 10,2 C 12,1 C 6,4 km/h (2 Bft) 96,23 %
27.05.2017 05:40 12,0 C 21,7 C 88 % 1019,4 hPa 0,0 l/m 4,2 km/h (1 Bft) S-SW 200 0 min 0,000 mm 0,0 UV-I 28 W/m 10,1 C 12,0 C 4,8 km/h (1 Bft) 93,62 %
27.05.2017 05:42 11,9 C 21,7 C 87 % 1019,4 hPa 0,0 l/m 3,0 km/h (1 Bft) S-SW 200 0 min 0,000 mm 0,0 UV-I 31 W/m 9,8 C 11,9 C 4,8 km/h (1 Bft) 95,83 %
27.05.2017 05:44 11,8 C 21,7 C 88 % 1019,4 hPa 0,0 l/m 2,5 km/h (1 Bft) S-SW 200 0 min 0,000 mm 0,0 UV-I 33 W/m 9,9 C 11,8 C 4,8 km/h (1 Bft) 98,44 %
27.05.2017 05:46 11,8 C 21,7 C 88 % 1019,4 hPa 0,0 l/m 2,2 km/h (1 Bft) S-SW 200 0 min 0,000 mm 0,0 UV-I 36 W/m 9,9 C 11,8 C 4,8 km/h (1 Bft) 96,00 %
27.05.2017 05:48 11,8 C 21,7 C 88 % 1019,4 hPa 0,0 l/m 1,7 km/h (1 Bft) S-SW 200 0 min 0,000 mm 0,0 UV-I 39 W/m 9,9 C 11,8 C 3,2 km/h (1 Bft) 98,00 %
27.05.2017 05:50 11,8 C 21,7 C 88 % 1019,4 hPa 0,0 l/m 3,7 km/h (1 Bft) S-SW 200 0 min 0,000 mm 0,0 UV-I 37 W/m 9,9 C 11,8 C 4,8 km/h (1 Bft) 97,44 %
27.05.2017 05:52 11,8 C 21,7 C 88 % 1019,4 hPa 0,0 l/m 3,8 km/h (1 Bft) S-SW 200 0 min 0,000 mm 0,0 UV-I 38 W/m 9,9 C 11,8 C 6,4 km/h (2 Bft) 95,74 %
27.05.2017 05:54 11,9 C 21,7 C 88 % 1019,4 hPa 0,0 l/m 1,2 km/h (1 Bft) S-SW 200 0 min 0,000 mm 0,0 UV-I 45 W/m 10,0 C 11,9 C 3,2 km/h (1 Bft) 100,00 %
27.05.2017 05:56 11,9 C 21,7 C 88 % 1019,4 hPa 0,0 l/m 1,8 km/h (1 Bft) S-SW 200 0 min 0,000 mm 0,0 UV-I 51 W/m 10,0 C 11,9 C 3,2 km/h (1 Bft) 100,00 %
27.05.2017 05:58 12,0 C 21,7 C 88 % 1019,4 hPa 0,0 l/m 2,4 km/h (1 Bft) S-SW 200 0 min 0,000 mm 0,0 UV-I 54 W/m 10,1 C 12,0 C 4,8 km/h (1 Bft) 98,11 %
27.05.2017 06:00 12,1 C 21,7 C 88 % 1019,4 hPa 0,0 l/m 3,0 km/h (1 Bft) S-SW 200 0 min 0,025 mm 0,0 UV-I 57 W/m 10,2 C 12,1 C 4,8 km/h (1 Bft) 100,00 %
27.05.2017 06:02 12,2 C 21,7 C 87 % 1019,4 hPa 0,0 l/m 2,9 km/h (1 Bft) S-SW 200 0 min 0,000 mm 0,0 UV-I 60 W/m 10,1 C 12,2 C 3,2 km/h (1 Bft) 100,00 %
27.05.2017 06:04 12,2 C 21,7 C 87 % 1019,4 hPa 0,0 l/m 2,5 km/h (1 Bft) S-SW 200 0 min 0,000 mm 0,0 UV-I 62 W/m 10,1 C 12,2 C 3,2 km/h (1 Bft) 100,00 %
27.05.2017 06:06 12,3 C 21,7 C 87 % 1019,4 hPa 0,0 l/m 2,6 km/h (1 Bft) S-SW 200 0 min 0,000 mm 0,0 UV-I 65 W/m 10,2 C 12,3 C 4,8 km/h (1 Bft) 97,87 %
27.05.2017 06:08 12,3 C 21,7 C 87 % 1019,5 hPa 0,0 l/m 1,9 km/h (1 Bft) S-SW 200 0 min 0,000 mm 0,0 UV-I 68 W/m 10,2 C 12,3 C 4,8 km/h (1 Bft) 100,00 %
27.05.2017 06:10 12,3 C 21,7 C 87 % 1019,5 hPa 0,0 l/m 3,3 km/h (1 Bft) S-SW 200 0 min 0,000 mm 0,0 UV-I 72 W/m 10,2 C 12,3 C 4,8 km/h (1 Bft) 97,87 %
27.05.2017 06:12 12,4 C 21,7 C 86 % 1019,5 hPa 0,0 l/m 2,1 km/h (1 Bft) S-SW 200 0 min 0,000 mm 0,0 UV-I 72 W/m 10,1 C 12,4 C 4,8 km/h (1 Bft) 100,00 %
27.05.2017 06:14 12,5 C 21,7 C 86 % 1019,5 hPa 0,0 l/m 3,0 km/h (1 Bft) S-SW 200 0 min 0,000 mm 0,0 UV-I 62 W/m 10,2 C 12,5 C 4,8 km/h (1 Bft) 97,56 %
27.05.2017 06:16 12,6 C 21,7 C 86 % 1019,6 hPa 0,0 l/m 3,6 km/h (1 Bft) S-SW 200 0 min 0,000 mm 0,0 UV-I 48 W/m 10,3 C 12,6 C 4,8 km/h (1 Bft) 100,00 %
27.05.2017 06:18 12,6 C 21,7 C 86 % 1019,6 hPa 0,0 l/m 3,3 km/h (1 Bft) S-SW 200 0 min 0,000 mm 0,0 UV-I 48 W/m 10,3 C 12,6 C 4,8 km/h (1 Bft) 96,00 %
27.05.2017 06:20 12,6 C 21,7 C 86 % 1019,6 hPa 0,0 l/m 2,6 km/h (1 Bft) S-SW 200 0 min 0,000 mm 0,0 UV-I 50 W/m 10,3 C 12,6 C 4,8 km/h (1 Bft) 100,00 %
27.05.2017 06:22 12,6 C 21,7 C 86 % 1019,7 hPa 0,0 l/m 2,9 km/h (1 Bft) S-SW 200 0 min 0,000 mm 0,0 UV-I 78 W/m 10,3 C 12,6 C 6,4 km/h (2 Bft) 97,01 %
27.05.2017 06:24 12,7 C 21,7 C 86 % 1019,6 hPa 0,0 l/m 2,5 km/h (1 Bft) S-SW 200 2 min 0,000 mm 0,0 UV-I 104 W/m 10,4 C 12,7 C 4,8 km/h (1 Bft) 98,00 %
27.05.2017 06:26 12,7 C 21,7 C 85 % 1019,7 hPa 0,0 l/m 1,6 km/h (1 Bft) S-SW 200 2 min 0,000 mm 0,0 UV-I 101 W/m 10,2 C 12,7 C 3,2 km/h (1 Bft) 100,00 %
27.05.2017 06:28 12,8 C 21,7 C 85 % 1019,7 hPa 0,0 l/m 2,0 km/h (1 Bft) S-SW 200 2 min 0,000 mm 0,0 UV-I 116 W/m 10,3 C 12,8 C 4,8 km/h (1 Bft) 98,00 %
27.05.2017 06:30 12,9 C 21,7 C 85 % 1019,7 hPa 0,0 l/m 1,1 km/h (1 Bft) S-SW 200 2 min 0,000 mm 0,0 UV-I 124 W/m 10,4 C 12,9 C 4,8 km/h (1 Bft) 100,00 %
27.05.2017 06:32 13,0 C 21,7 C 85 % 1019,7 hPa 0,0 l/m 2,0 km/h (1 Bft) S-SW 200 2 min 0,000 mm 0,0 UV-I 129 W/m 10,5 C 13,0 C 4,8 km/h (1 Bft) 98,00 %
27.05.2017 06:34 13,1 C 21,7 C 84 % 1019,7 hPa 0,0 l/m 3,8 km/h (1 Bft) S-SW 200 2 min 0,000 mm 0,0 UV-I 134 W/m 10,5 C 13,1 C 4,8 km/h (1 Bft) 97,87 %
27.05.2017 06:36 13,2 C 21,7 C 84 % 1019,8 hPa 0,0 l/m 2,7 km/h (1 Bft) S-SW 200 2 min 0,000 mm 0,0 UV-I 139 W/m 10,6 C 13,2 C 4,8 km/h (1 Bft) 92,45 %
27.05.2017 06:38 13,2 C 21,7 C 83 % 1019,7 hPa 0,0 l/m 3,7 km/h (1 Bft) S-SW 200 2 min 0,000 mm 0,0 UV-I 144 W/m 10,4 C 13,2 C 4,8 km/h (1 Bft) 94,00 %
27.05.2017 06:40 13,3 C 21,7 C 84 % 1019,7 hPa 0,0 l/m 3,3 km/h (1 Bft) S-SW 200 2 min 0,000 mm 0,0 UV-I 149 W/m 10,7 C 13,3 C 4,8 km/h (1 Bft) 94,74 %
27.05.2017 06:42 13,3 C 21,7 C 84 % 1019,7 hPa 0,0 l/m 3,2 km/h (1 Bft) S-SW 200 2 min 0,000 mm 0,0 UV-I 155 W/m 10,7 C 13,3 C 4,8 km/h (1 Bft) 96,00 %
27.05.2017 06:44 13,4 C 21,7 C 84 % 1019,8 hPa 0,0 l/m 4,4 km/h (1 Bft) S-SW 200 2 min 0,000 mm 0,0 UV-I 160 W/m 10,8 C 13,4 C 6,4 km/h (2 Bft) 97,73 %
27.05.2017 06:46 13,5 C 21,7 C 83 % 1019,7 hPa 0,0 l/m 3,9 km/h (1 Bft) S-SW 200 2 min 0,000 mm 0,0 UV-I 165 W/m 10,7 C 13,5 C 4,8 km/h (1 Bft) 94,00 %
27.05.2017 06:48 13,6 C 21,7 C 83 % 1019,7 hPa 0,0 l/m 3,3 km/h (1 Bft) S-SW 200 2 min 0,000 mm 0,0 UV-I 172 W/m 10,8 C 13,6 C 4,8 km/h (1 Bft) 96,23 %
27.05.2017 06:50 13,7 C 21,7 C 83 % 1019,7 hPa 0,0 l/m 5,0 km/h (1 Bft) S-SW 200 2 min 0,000 mm 0,0 UV-I 175 W/m 10,9 C 13,7 C 6,4 km/h (2 Bft) 94,74 %
27.05.2017 06:52 13,7 C 21,7 C 82 % 1019,8 hPa 0,0 l/m 3,8 km/h (1 Bft) S-SW 200 2 min 0,000 mm 0,0 UV-I 182 W/m 10,7 C 13,7 C 6,4 km/h (2 Bft) 97,87 %
27.05.2017 06:54 13,8 C 21,7 C 82 % 1019,7 hPa 0,0 l/m 2,7 km/h (1 Bft) S-SW 200 2 min 0,000 mm 0,0 UV-I 187 W/m 10,8 C 13,8 C 3,2 km/h (1 Bft) 98,11 %
27.05.2017 06:56 13,9 C 21,7 C 82 % 1019,7 hPa 0,0 l/m 3,9 km/h (1 Bft) S-SW 200 2 min 0,000 mm 0,0 UV-I 192 W/m 10,9 C 13,9 C 6,4 km/h (2 Bft) 95,74 %
27.05.2017 06:58 14,0 C 21,7 C 82 % 1019,7 hPa 0,0 l/m 1,6 km/h (1 Bft) S-SW 200 2 min 0,000 mm 0,0 UV-I 198 W/m 11,0 C 14,0 C 3,2 km/h (1 Bft) 95,12 %
27.05.2017 07:00 14,1 C 21,7 C 81 % 1019,7 hPa 0,0 l/m 1,8 km/h (1 Bft) S-SW 200 2 min 0,077 mm 0,0 UV-I 204 W/m 10,9 C 14,1 C 3,2 km/h (1 Bft) 94,00 %
27.05.2017 07:02 14,2 C 21,7 C 81 % 1019,7 hPa 0,0 l/m 1,5 km/h (1 Bft) S-SW 200 2 min 0,000 mm 0,0 UV-I 210 W/m 11,0 C 14,2 C 3,2 km/h (1 Bft) 97,73 %
27.05.2017 07:04 14,3 C 21,7 C 81 % 1019,7 hPa 0,0 l/m 1,8 km/h (1 Bft) S-SW 200 2 min 0,000 mm 0,0 UV-I 216 W/m 11,1 C 14,3 C 4,8 km/h (1 Bft) 95,83 %
27.05.2017 07:06 14,4 C 21,7 C 81 % 1019,7 hPa 0,0 l/m 3,3 km/h (1 Bft) S-SW 200 2 min 0,000 mm 0,0 UV-I 221 W/m 11,2 C 14,4 C 4,8 km/h (1 Bft) 95,74 %
27.05.2017 07:08 14,5 C 21,7 C 80 % 1019,7 hPa 0,0 l/m 3,3 km/h (1 Bft) S-SW 200 2 min 0,000 mm 0,0 UV-I 227 W/m 11,1 C 14,5 C 4,8 km/h (1 Bft) 100,00 %
27.05.2017 07:10 14,6 C 21,7 C 79 % 1019,7 hPa 0,0 l/m 4,8 km/h (1 Bft) S-SW 203 2 min 0,000 mm 0,0 UV-I 231 W/m 11,0 C 14,6 C 6,4 km/h (2 Bft) 98,00 %
27.05.2017 07:12 14,6 C 21,7 C 79 % 1019,7 hPa 0,0 l/m 4,2 km/h (1 Bft) W-SW 238 2 min 0,000 mm 0,0 UV-I 238 W/m 11,0 C 14,6 C 6,4 km/h (2 Bft) 97,73 %
27.05.2017 07:14 14,7 C 21,7 C 79 % 1019,8 hPa 0,0 l/m 1,5 km/h (1 Bft) W-SW 238 2 min 0,000 mm 0,0 UV-I 243 W/m 11,1 C 14,7 C 4,8 km/h (1 Bft) 98,00 %
27.05.2017 07:16 14,8 C 21,7 C 78 % 1019,7 hPa 0,0 l/m 1,9 km/h (1 Bft) W-SW 238 2 min 0,000 mm 0,2 UV-I 248 W/m 11,0 C 14,8 C 3,2 km/h (1 Bft) 90,24 %
27.05.2017 07:18 14,9 C 21,7 C 79 % 1019,7 hPa 0,0 l/m 3,1 km/h (1 Bft) W-SW 238 2 min 0,000 mm 0,5 UV-I 253 W/m 11,3 C 14,9 C 4,8 km/h (1 Bft) 92,00 %
27.05.2017 07:20 15,1 C 21,7 C 79 % 1019,7 hPa 0,0 l/m 2,5 km/h (1 Bft) W-SW 238 2 min 0,000 mm 0,5 UV-I 260 W/m 11,5 C 15,1 C 4,8 km/h (1 Bft) 90,91 %
27.05.2017 07:22 15,2 C 21,7 C 78 % 1019,7 hPa 0,0 l/m 1,8 km/h (1 Bft) W-SW 238 2 min 0,000 mm 0,5 UV-I 264 W/m 11,4 C 15,2 C 4,8 km/h (1 Bft) 96,00 %
27.05.2017 07:24 15,2 C 21,7 C 78 % 1019,8 hPa 0,0 l/m 1,4 km/h (1 Bft) W-SW 238 2 min 0,000 mm 0,5 UV-I 271 W/m 11,4 C 15,2 C 3,2 km/h (1 Bft) 97,56 %
27.05.2017 07:26 15,3 C 21,7 C 78 % 1019,8 hPa 0,0 l/m 1,0 km/h (0 Bft) W-SW 238 2 min 0,000 mm 0,5 UV-I 276 W/m 11,5 C 15,3 C 3,2 km/h (1 Bft) 97,87 %
27.05.2017 07:28 15,3 C 21,7 C 78 % 1019,8 hPa 0,0 l/m 1,5 km/h (1 Bft) W-SW 238 2 min 0,000 mm 0,6 UV-I 282 W/m 11,5 C 15,3 C 3,2 km/h (1 Bft) 92,00 %
27.05.2017 07:30 15,3 C 21,7 C 77 % 1019,8 hPa 0,0 l/m 1,7 km/h (1 Bft) W-SW 238 2 min 0,000 mm 0,6 UV-I 289 W/m 11,3 C 15,3 C 4,8 km/h (1 Bft) 95,12 %
27.05.2017 07:32 15,4 C 21,7 C 78 % 1019,8 hPa 0,0 l/m 2,1 km/h (1 Bft) W-SW 238 2 min 0,000 mm 0,6 UV-I 295 W/m 11,6 C 15,4 C 3,2 km/h (1 Bft) 91,67 %
27.05.2017 07:34 15,5 C 21,7 C 77 % 1019,8 hPa 0,0 l/m 1,9 km/h (1 Bft) W-SW 238 2 min 0,000 mm 0,6 UV-I 300 W/m 11,5 C 15,5 C 3,2 km/h (1 Bft) 97,87 %
27.05.2017 07:36 15,5 C 21,7 C 77 % 1019,8 hPa 0,0 l/m 2,2 km/h (1 Bft) W-SW 238 2 min 0,000 mm 0,7 UV-I 304 W/m 11,5 C 15,5 C 3,2 km/h (1 Bft) 96,00 %
27.05.2017 07:38 15,5 C 21,7 C 77 % 1019,8 hPa 0,0 l/m 3,5 km/h (1 Bft) W-SW 238 2 min 0,000 mm 0,7 UV-I 312 W/m 11,5 C 15,5 C 4,8 km/h (1 Bft) 97,87 %
27.05.2017 07:40 15,7 C 21,7 C 79 % 1019,8 hPa 0,0 l/m 2,4 km/h (1 Bft) W-SW 238 2 min 0,000 mm 0,7 UV-I 318 W/m 12,1 C 15,7 C 3,2 km/h (1 Bft) 96,30 %
27.05.2017 07:42 15,7 C 21,7 C 77 % 1019,8 hPa 0,0 l/m 1,8 km/h (1 Bft) W-SW 238 2 min 0,000 mm 0,7 UV-I 324 W/m 11,7 C 15,7 C 3,2 km/h (1 Bft) 97,01 %
27.05.2017 07:44 15,8 C 21,7 C 76 % 1019,8 hPa 0,0 l/m 0,8 km/h (0 Bft) W-SW 238 2 min 0,000 mm 0,8 UV-I 330 W/m 11,6 C 15,8 C 3,2 km/h (1 Bft) 91,11 %
27.05.2017 07:46 15,8 C 21,7 C 76 % 1019,8 hPa 0,0 l/m 0,9 km/h (0 Bft) W-SW 238 2 min 0,000 mm 0,8 UV-I 335 W/m 11,6 C 15,8 C 3,2 km/h (1 Bft) 94,00 %
27.05.2017 07:48 15,9 C 21,7 C 76 % 1019,8 hPa 0,0 l/m 1,9 km/h (1 Bft) W-SW 238 2 min 0,000 mm 0,8 UV-I 341 W/m 11,7 C 15,9 C 3,2 km/h (1 Bft) 97,56 %
27.05.2017 07:50 15,9 C 21,7 C 77 % 1019,9 hPa 0,0 l/m 0,3 km/h (0 Bft) W-SW 238 2 min 0,000 mm 0,8 UV-I 346 W/m 11,9 C 15,9 C 1,6 km/h (1 Bft) 95,74 %
27.05.2017 07:52 16,1 C 21,7 C 76 % 1019,9 hPa 0,0 l/m 0,4 km/h (0 Bft) W-SW 238 2 min 0,000 mm 0,9 UV-I 352 W/m 11,9 C 16,1 C 1,6 km/h (1 Bft) 98,00 %
27.05.2017 07:54 16,1 C 21,7 C 75 % 1019,9 hPa 0,0 l/m 0,5 km/h (0 Bft) W-SW 238 2 min 0,000 mm 0,9 UV-I 358 W/m 11,7 C 16,1 C 1,6 km/h (1 Bft) 91,49 %
27.05.2017 07:56 16,2 C 21,7 C 76 % 1019,9 hPa 0,0 l/m 0,6 km/h (0 Bft) W-SW 238 2 min 0,000 mm 0,9 UV-I 364 W/m 12,0 C 16,2 C 3,2 km/h (1 Bft) 96,00 %
27.05.2017 07:58 16,4 C 21,7 C 75 % 1020,0 hPa 0,0 l/m 0,5 km/h (0 Bft) W-SW 238 2 min 0,000 mm 0,9 UV-I 370 W/m 12,0 C 16,4 C 3,2 km/h (1 Bft) 91,49 %
27.05.2017 08:00 16,6 C 21,7 C 75 % 1020,0 hPa 0,0 l/m 1,5 km/h (1 Bft) W-SW 238 2 min 0,152 mm 1,0 UV-I 377 W/m 12,1 C 16,6 C 3,2 km/h (1 Bft) 97,56 %
27.05.2017 08:02 16,6 C 21,7 C 74 % 1020,0 hPa 0,0 l/m 1,9 km/h (1 Bft) W-SW 238 2 min 0,000 mm 1,0 UV-I 382 W/m 11,9 C 16,6 C 3,2 km/h (1 Bft) 100,00 %
27.05.2017 08:04 16,5 C 21,7 C 73 % 1020,0 hPa 0,0 l/m 2,1 km/h (1 Bft) W-SW 238 2 min 0,000 mm 1,0 UV-I 388 W/m 11,6 C 16,5 C 3,2 km/h (1 Bft) 100,00 %
27.05.2017 08:06 16,4 C 21,7 C 73 % 1020,0 hPa 0,0 l/m 0,4 km/h (0 Bft) W-SW 238 2 min 0,000 mm 1,1 UV-I 392 W/m 11,5 C 16,4 C 1,6 km/h (1 Bft) 100,00 %
27.05.2017 08:08 16,4 C 21,7 C 72 % 1020,0 hPa 0,0 l/m 0,0 km/h (0 Bft) W-SW 238 2 min 0,000 mm 1,1 UV-I 397 W/m 11,3 C 16,4 C 0,0 km/h (0 Bft) 97,87 %
27.05.2017 08:10 16,6 C 21,7 C 73 % 1020,0 hPa 0,0 l/m 0,0 km/h (0 Bft) W-SW 238 2 min 0,000 mm 1,1 UV-I 403 W/m 11,7 C 16,6 C 1,6 km/h (1 Bft) 100,00 %
27.05.2017 08:12 16,8 C 21,7 C 72 % 1020,0 hPa 0,0 l/m 0,2 km/h (0 Bft) W-SW 238 2 min 0,000 mm 1,2 UV-I 408 W/m 11,7 C 16,8 C 3,2 km/h (1 Bft) 100,00 %
27.05.2017 08:14 17,0 C 21,7 C 71 % 1020,1 hPa 0,0 l/m 2,2 km/h (1 Bft) W-SW 238 2 min 0,000 mm 1,2 UV-I 415 W/m 11,7 C 17,0 C 3,2 km/h (1 Bft) 100,00 %
27.05.2017 08:16 16,9 C 21,7 C 70 % 1020,0 hPa 0,0 l/m 2,2 km/h (1 Bft) W-SW 238 2 min 0,000 mm 1,2 UV-I 421 W/m 11,4 C 16,9 C 3,2 km/h (1 Bft) 96,00 %
27.05.2017 08:18 17,0 C 21,7 C 72 % 1020,0 hPa 0,0 l/m 0,4 km/h (0 Bft) W-SW 238 2 min 0,000 mm 1,3 UV-I 427 W/m 11,9 C 17,0 C 1,6 km/h (1 Bft) 100,00 %
27.05.2017 08:20 17,2 C 21,7 C 71 % 1020,0 hPa 0,0 l/m 1,3 km/h (1 Bft) W-SW 238 2 min 0,000 mm 1,3 UV-I 434 W/m 11,9 C 17,2 C 3,2 km/h (1 Bft) 96,88 %
27.05.2017 08:22 17,2 C 21,7 C 73 % 1020,0 hPa 0,0 l/m 0,4 km/h (0 Bft) W-SW 238 2 min 0,000 mm 1,3 UV-I 440 W/m 12,3 C 17,2 C 1,6 km/h (1 Bft) 97,92 %
27.05.2017 08:24 17,4 C 21,7 C 71 % 1020,1 hPa 0,0 l/m 0,6 km/h (0 Bft) W-SW 238 2 min 0,000 mm 1,3 UV-I 444 W/m 12,1 C 17,4 C 1,6 km/h (1 Bft) 100,00 %
27.05.2017 08:26 17,6 C 21,7 C 71 % 1020,0 hPa 0,0 l/m 0,6 km/h (0 Bft) W-SW 238 2 min 0,000 mm 1,4 UV-I 450 W/m 12,3 C 17,6 C 1,6 km/h (1 Bft) 97,44 %
27.05.2017 08:28 17,7 C 21,7 C 70 % 1020,0 hPa 0,0 l/m 0,5 km/h (0 Bft) W-SW 238 2 min 0,000 mm 1,4 UV-I 458 W/m 12,2 C 17,7 C 1,6 km/h (1 Bft) 100,00 %
27.05.2017 08:30 17,7 C 21,7 C 70 % 1020,0 hPa 0,0 l/m 0,7 km/h (0 Bft) W-SW 238 2 min 0,000 mm 1,4 UV-I 464 W/m 12,2 C 17,7 C 3,2 km/h (1 Bft) 100,00 %
27.05.2017 08:32 17,8 C 21,7 C 72 % 1020,0 hPa 0,0 l/m 0,9 km/h (0 Bft) W-SW 238 2 min 0,000 mm 1,5 UV-I 469 W/m 12,7 C 17,8 C 3,2 km/h (1 Bft) 97,87 %
27.05.2017 08:34 17,9 C 21,7 C 72 % 1020,0 hPa 0,0 l/m 1,5 km/h (1 Bft) W-SW 238 2 min 0,000 mm 1,5 UV-I 474 W/m 12,8 C 17,9 C 3,2 km/h (1 Bft) 98,00 %
27.05.2017 08:36 18,1 C 21,7 C 70 % 1020,1 hPa 0,0 l/m 2,6 km/h (1 Bft) W 281 2 min 0,000 mm 1,5 UV-I 480 W/m 12,5 C 18,1 C 6,4 km/h (2 Bft) 95,74 %
27.05.2017 08:38 18,2 C 21,7 C 69 % 1020,1 hPa 0,0 l/m 4,7 km/h (1 Bft) O 90 2 min 0,000 mm 1,6 UV-I 486 W/m 12,4 C 18,2 C 6,4 km/h (2 Bft) 100,00 %
27.05.2017 08:40 18,2 C 21,7 C 69 % 1020,1 hPa 0,0 l/m 4,2 km/h (1 Bft) N-NO 28 2 min 0,000 mm 1,6 UV-I 492 W/m 12,4 C 18,2 C 6,4 km/h (2 Bft) 100,00 %
27.05.2017 08:42 18,3 C 21,7 C 68 % 1020,1 hPa 0,0 l/m 6,0 km/h (2 Bft) O-NO 57 2 min 0,000 mm 1,6 UV-I 498 W/m 12,3 C 18,3 C 11,3 km/h (2 Bft) 100,00 %
27.05.2017 08:44 18,3 C 21,7 C 66 % 1020,1 hPa 0,0 l/m 5,1 km/h (1 Bft) O-NO 69 2 min 0,000 mm 1,7 UV-I 503 W/m 11,8 C 18,3 C 8,0 km/h (2 Bft) 98,00 %
27.05.2017 08:46 18,3 C 21,7 C 67 % 1020,1 hPa 0,0 l/m 7,1 km/h (2 Bft) O-NO 57 2 min 0,000 mm 1,7 UV-I 510 W/m 12,1 C 18,0 C 12,9 km/h (3 Bft) 97,73 %
27.05.2017 08:48 18,2 C 21,7 C 68 % 1020,1 hPa 0,0 l/m 5,9 km/h (2 Bft) O 80 2 min 0,000 mm 1,7 UV-I 514 W/m 12,2 C 18,2 C 8,0 km/h (2 Bft) 97,87 %
27.05.2017 08:50 18,3 C 21,7 C 69 % 1020,2 hPa 0,0 l/m 4,2 km/h (1 Bft) NO 52 2 min 0,000 mm 1,8 UV-I 520 W/m 12,5 C 18,3 C 6,4 km/h (2 Bft) 100,00 %
27.05.2017 08:52 18,5 C 21,7 C 72 % 1020,1 hPa 0,0 l/m 4,4 km/h (1 Bft) NO 52 2 min 0,000 mm 1,8 UV-I 526 W/m 13,4 C 18,5 C 6,4 km/h (2 Bft) 100,00 %
27.05.2017 08:54 18,6 C 21,7 C 71 % 1020,1 hPa 0,0 l/m 6,6 km/h (2 Bft) NO 55 2 min 0,000 mm 1,9 UV-I 531 W/m 13,2 C 18,5 C 9,7 km/h (2 Bft) 100,00 %
27.05.2017 08:56 18,7 C 21,7 C 68 % 1020,1 hPa 0,0 l/m 6,6 km/h (2 Bft) NO 43 2 min 0,000 mm 1,9 UV-I 537 W/m 12,7 C 18,6 C 8,0 km/h (2 Bft) 93,62 %
27.05.2017 08:58 18,7 C 21,7 C 69 % 1020,1 hPa 0,0 l/m 4,8 km/h (1 Bft) N-NO 25 2 min 0,000 mm 1,9 UV-I 542 W/m 12,9 C 18,7 C 6,4 km/h (2 Bft) 100,00 %
27.05.2017 09:00 18,7 C 21,7 C 69 % 1020,1 hPa 0,0 l/m 5,9 km/h (2 Bft) N-NO 32 2 min 0,279 mm 2,0 UV-I 548 W/m 12,9 C 18,7 C 9,7 km/h (2 Bft) 100,00 %
27.05.2017 09:02 18,6 C 21,7 C 67 % 1020,1 hPa 0,0 l/m 5,2 km/h (1 Bft) NO 43 2 min 0,000 mm 2,0 UV-I 554 W/m 12,3 C 18,6 C 9,7 km/h (2 Bft) 95,74 %
27.05.2017 09:04 18,7 C 21,7 C 70 % 1020,1 hPa 0,0 l/m 3,6 km/h (1 Bft) NO 36 2 min 0,000 mm 2,1 UV-I 560 W/m 13,1 C 18,7 C 6,4 km/h (2 Bft) 100,00 %
27.05.2017 09:06 18,9 C 21,7 C 68 % 1020,0 hPa 0,0 l/m 8,9 km/h (2 Bft) O-NO 77 2 min 0,000 mm 2,1 UV-I 565 W/m 12,9 C 17,8 C 12,9 km/h (3 Bft) 98,00 %
27.05.2017 09:08 18,9 C 21,7 C 66 % 1020,0 hPa 0,0 l/m 7,5 km/h (2 Bft) O 85 2 min 0,000 mm 2,1 UV-I 571 W/m 12,4 C 18,4 C 11,3 km/h (2 Bft) 92,00 %
27.05.2017 09:10 18,9 C 21,7 C 67 % 1020,0 hPa 0,0 l/m 7,2 km/h (2 Bft) O 82 2 min 0,000 mm 2,2 UV-I 575 W/m 12,6 C 18,5 C 11,3 km/h (2 Bft) 97,37 %
27.05.2017 09:12 18,9 C 21,7 C 68 % 1020,0 hPa 0,0 l/m 5,4 km/h (1 Bft) O-NO 76 2 min 0,000 mm 2,2 UV-I 580 W/m 12,9 C 18,9 C 8,0 km/h (2 Bft) 94,00 %
27.05.2017 09:14 18,9 C 22,2 C 66 % 1020,0 hPa 0,0 l/m 6,0 km/h (2 Bft) O 82 2 min 0,000 mm 2,2 UV-I 585 W/m 12,4 C 18,9 C 11,3 km/h (2 Bft) 94,34 %
27.05.2017 09:16 18,9 C 22,2 C 67 % 1020,0 hPa 0,0 l/m 4,9 km/h (1 Bft) O-NO 62 2 min 0,000 mm 2,3 UV-I 582 W/m 12,6 C 18,9 C 6,4 km/h (2 Bft) 97,87 %
27.05.2017 09:18 19,2 C 21,7 C 69 % 1020,0 hPa 0,0 l/m 8,2 km/h (2 Bft) NO 54 2 min 0,000 mm 2,3 UV-I 587 W/m 13,4 C 18,4 C 11,3 km/h (2 Bft) 92,11 %
27.05.2017 09:20 19,2 C 21,7 C 66 % 1020,0 hPa 0,0 l/m 6,2 km/h (2 Bft) O-NO 69 2 min 0,000 mm 2,4 UV-I 599 W/m 12,7 C 19,2 C 8,0 km/h (2 Bft) 97,87 %
27.05.2017 09:22 19,2 C 21,7 C 67 % 1020,1 hPa 0,0 l/m 8,0 km/h (2 Bft) O-NO 63 2 min 0,000 mm 2,4 UV-I 605 W/m 12,9 C 18,5 C 12,9 km/h (3 Bft) 96,23 %
27.05.2017 09:24 19,2 C 21,7 C 69 % 1020,0 hPa 0,0 l/m 6,9 km/h (2 Bft) NO 36 2 min 0,000 mm 2,5 UV-I 611 W/m 13,4 C 19,0 C 9,7 km/h (2 Bft) 96,00 %
27.05.2017 09:26 19,3 C 21,7 C 68 % 1020,1 hPa 0,0 l/m 6,6 km/h (2 Bft) NO 44 2 min 0,000 mm 2,5 UV-I 616 W/m 13,2 C 19,2 C 9,7 km/h (2 Bft) 95,12 %
27.05.2017 09:28 19,3 C 22,2 C 68 % 1020,1 hPa 0,0 l/m 7,4 km/h (2 Bft) O-NO 59 2 min 0,000 mm 2,6 UV-I 622 W/m 13,2 C 18,9 C 12,9 km/h (3 Bft) 96,23 %
27.05.2017 09:30 19,5 C 22,2 C 68 % 1020,1 hPa 0,0 l/m 7,8 km/h (2 Bft) O-NO 64 2 min 0,000 mm 2,6 UV-I 627 W/m 13,4 C 18,9 C 12,9 km/h (3 Bft) 94,29 %
27.05.2017 09:32 19,5 C 22,2 C 66 % 1020,1 hPa 0,0 l/m 5,7 km/h (1 Bft) O-NO 71 2 min 0,000 mm 2,6 UV-I 631 W/m 13,0 C 19,5 C 8,0 km/h (2 Bft) 94,83 %
27.05.2017 09:34 19,5 C 22,2 C 65 % 1020,1 hPa 0,0 l/m 6,0 km/h (2 Bft) O-SO 105 2 min 0,000 mm 2,7 UV-I 636 W/m 12,7 C 19,5 C 11,3 km/h (2 Bft) 97,14 %
27.05.2017 09:36 19,5 C 22,2 C 67 % 1020,2 hPa 0,0 l/m 6,5 km/h (2 Bft) O-NO 71 2 min 0,000 mm 2,7 UV-I 641 W/m 13,2 C 19,5 C 11,3 km/h (2 Bft) 98,11 %
27.05.2017 09:38 19,5 C 22,2 C 67 % 1020,3 hPa 0,0 l/m 4,1 km/h (1 Bft) NO 41 2 min 0,000 mm 2,8 UV-I 645 W/m 13,2 C 19,5 C 8,0 km/h (2 Bft) 93,62 %
27.05.2017 09:40 19,4 C 22,2 C 69 % 1020,1 hPa 0,0 l/m 3,6 km/h (1 Bft) O-NO 76 2 min 0,000 mm 2,8 UV-I 650 W/m 13,6 C 19,4 C 12,9 km/h (3 Bft) 100,00 %
27.05.2017 09:42 19,5 C 22,2 C 68 % 1020,3 hPa 0,0 l/m 5,1 km/h (1 Bft) O-NO 72 2 min 0,000 mm 2,9 UV-I 655 W/m 13,4 C 19,5 C 8,0 km/h (2 Bft) 100,00 %
27.05.2017 09:44 19,6 C 22,2 C 67 % 1020,3 hPa 0,0 l/m 6,9 km/h (2 Bft) O 90 2 min 0,000 mm 2,9 UV-I 660 W/m 13,3 C 19,4 C 12,9 km/h (3 Bft) 97,87 %
27.05.2017 09:46 19,9 C 22,2 C 69 % 1020,3 hPa 0,0 l/m 5,7 km/h (1 Bft) O-NO 64 2 min 0,000 mm 3,0 UV-I 664 W/m 14,0 C 19,9 C 9,7 km/h (2 Bft) 98,11 %
27.05.2017 09:48 20,0 C 22,2 C 66 % 1020,3 hPa 0,0 l/m 7,2 km/h (2 Bft) NO 40 2 min 0,000 mm 3,0 UV-I 669 W/m 13,4 C 19,7 C 9,7 km/h (2 Bft) 97,56 %
27.05.2017 09:50 19,9 C 22,2 C 63 % 1020,3 hPa 0,0 l/m 6,5 km/h (2 Bft) NO 53 2 min 0,000 mm 3,1 UV-I 673 W/m 12,6 C 19,9 C 9,7 km/h (2 Bft) 96,23 %
27.05.2017 09:52 19,8 C 22,2 C 64 % 1020,3 hPa 0,0 l/m 3,6 km/h (1 Bft) O 82 2 min 0,000 mm 3,1 UV-I 677 W/m 12,8 C 19,8 C 6,4 km/h (2 Bft) 97,37 %
27.05.2017 09:54 19,7 C 22,2 C 65 % 1020,3 hPa 0,0 l/m 4,4 km/h (1 Bft) NO 34 2 min 0,000 mm 3,1 UV-I 682 W/m 12,9 C 19,7 C 8,0 km/h (2 Bft) 94,00 %
27.05.2017 09:56 19,9 C 22,2 C 68 % 1020,3 hPa 0,0 l/m 3,9 km/h (1 Bft) N-NO 19 2 min 0,000 mm 3,2 UV-I 688 W/m 13,8 C 19,9 C 8,0 km/h (2 Bft) 97,56 %
27.05.2017 09:58 20,1 C 22,2 C 67 % 1020,2 hPa 0,0 l/m 3,5 km/h (1 Bft) NO 34 2 min 0,000 mm 3,3 UV-I 692 W/m 13,8 C 20,1 C 6,4 km/h (2 Bft) 97,87 %
27.05.2017 10:00 20,1 C 22,2 C 71 % 1020,2 hPa 0,0 l/m 3,7 km/h (1 Bft) N-NO 30 2 min 0,381 mm 3,3 UV-I 695 W/m 14,7 C 20,1 C 6,4 km/h (2 Bft) 98,00 %
27.05.2017 10:02 20,3 C 22,2 C 68 % 1020,2 hPa 0,0 l/m 7,7 km/h (2 Bft) NO 51 2 min 0,000 mm 3,3 UV-I 698 W/m 14,2 C 19,8 C 12,9 km/h (3 Bft) 94,44 %
27.05.2017 10:04 20,4 C 22,2 C 65 % 1020,2 hPa 0,0 l/m 5,7 km/h (1 Bft) N-NO 21 2 min 0,000 mm 3,4 UV-I 705 W/m 13,6 C 20,4 C 14,5 km/h (3 Bft) 96,55 %
27.05.2017 10:06 20,2 C 22,2 C 66 % 1020,2 hPa 0,0 l/m 2,0 km/h (1 Bft) N-NO 21 2 min 0,000 mm 3,4 UV-I 709 W/m 13,6 C 20,2 C 4,8 km/h (1 Bft) 94,64 %
27.05.2017 10:08 20,0 C 22,2 C 65 % 1020,1 hPa 0,0 l/m 2,8 km/h (1 Bft) N-NO 22 2 min 0,000 mm 3,5 UV-I 714 W/m 13,2 C 20,0 C 8,0 km/h (2 Bft) 96,23 %
27.05.2017 10:10 20,2 C 22,2 C 66 % 1020,1 hPa 0,0 l/m 5,4 km/h (1 Bft) O-NO 65 2 min 0,000 mm 3,5 UV-I 720 W/m 13,6 C 20,2 C 11,3 km/h (2 Bft) 94,29 %
27.05.2017 10:12 20,2 C 22,2 C 62 % 1020,2 hPa 0,0 l/m 4,8 km/h (1 Bft) O-SO 107 2 min 0,000 mm 3,6 UV-I 724 W/m 12,7 C 20,2 C 9,7 km/h (2 Bft) 94,64 %
27.05.2017 10:14 20,3 C 22,2 C 66 % 1020,2 hPa 0,0 l/m 3,3 km/h (1 Bft) O 90 2 min 0,000 mm 3,7 UV-I 728 W/m 13,7 C 20,3 C 9,7 km/h (2 Bft) 92,00 %
27.05.2017 10:16 20,4 C 22,2 C 64 % 1020,2 hPa 0,0 l/m 5,9 km/h (2 Bft) NO 54 2 min 0,000 mm 3,7 UV-I 731 W/m 13,4 C 20,4 C 9,7 km/h (2 Bft) 100,00 %
27.05.2017 10:18 20,3 C 22,2 C 65 % 1020,1 hPa 0,0 l/m 9,9 km/h (2 Bft) O 98 2 min 0,000 mm 3,7 UV-I 737 W/m 13,5 C 19,0 C 12,9 km/h (3 Bft) 97,56 %
27.05.2017 10:20 20,3 C 22,2 C 63 % 1020,2 hPa 0,0 l/m 4,3 km/h (1 Bft) O-SO 105 2 min 0,000 mm 3,8 UV-I 740 W/m 13,0 C 20,3 C 9,7 km/h (2 Bft) 95,59 %
27.05.2017 10:22 20,4 C 22,2 C 65 % 1020,1 hPa 0,0 l/m 4,9 km/h (1 Bft) NO 53 2 min 0,000 mm 3,8 UV-I 743 W/m 13,6 C 20,4 C 6,4 km/h (2 Bft) 98,00 %
27.05.2017 10:24 20,6 C 22,2 C 65 % 1020,1 hPa 0,0 l/m 5,8 km/h (2 Bft) O-NO 57 2 min 0,000 mm 3,9 UV-I 750 W/m 13,8 C 20,6 C 8,0 km/h (2 Bft) 92,68 %
27.05.2017 10:26 20,6 C 22,2 C 63 % 1020,2 hPa 0,0 l/m 8,0 km/h (2 Bft) O-NO 61 2 min 0,000 mm 3,9 UV-I 753 W/m 13,3 C 20,0 C 12,9 km/h (3 Bft) 98,00 %
27.05.2017 10:28 20,7 C 22,2 C 65 % 1020,2 hPa 0,0 l/m 6,0 km/h (2 Bft) O-NO 64 2 min 0,000 mm 4,0 UV-I 758 W/m 13,9 C 20,7 C 9,7 km/h (2 Bft) 95,74 %
27.05.2017 10:30 20,7 C 22,2 C 64 % 1020,2 hPa 0,0 l/m 5,5 km/h (1 Bft) NO 34 2 min 0,000 mm 4,0 UV-I 760 W/m 13,6 C 20,7 C 9,7 km/h (2 Bft) 97,87 %
27.05.2017 10:32 20,7 C 22,2 C 60 % 1020,1 hPa 0,0 l/m 3,7 km/h (1 Bft) NO 44 2 min 0,000 mm 4,1 UV-I 763 W/m 12,7 C 20,7 C 6,4 km/h (2 Bft) 94,34 %
27.05.2017 10:34 20,8 C 22,2 C 66 % 1020,1 hPa 0,0 l/m 7,1 km/h (2 Bft) NO 43 2 min 0,000 mm 4,1 UV-I 769 W/m 14,2 C 20,5 C 11,3 km/h (2 Bft) 94,74 %
27.05.2017 10:36 20,8 C 22,2 C 63 % 1020,2 hPa 0,0 l/m 6,5 km/h (2 Bft) NO 36 2 min 0,000 mm 4,1 UV-I 773 W/m 13,5 C 20,8 C 9,7 km/h (2 Bft) 100,00 %
27.05.2017 10:38 20,8 C 22,2 C 65 % 1020,1 hPa 0,0 l/m 7,6 km/h (2 Bft) O 81 2 min 0,000 mm 4,2 UV-I 778 W/m 14,0 C 20,3 C 12,9 km/h (3 Bft) 92,00 %
27.05.2017 10:40 20,8 C 22,2 C 63 % 1020,1 hPa 0,0 l/m 5,6 km/h (1 Bft) NO 44 2 min 0,000 mm 4,2 UV-I 779 W/m 13,5 C 20,8 C 11,3 km/h (2 Bft) 90,57 %
27.05.2017 10:42 20,8 C 22,2 C 64 % 1020,1 hPa 0,0 l/m 4,9 km/h (1 Bft) N-NO 28 2 min 0,000 mm 4,3 UV-I 781 W/m 13,7 C 20,8 C 9,7 km/h (2 Bft) 90,00 %
27.05.2017 10:44 20,9 C 22,2 C 62 % 1020,1 hPa 0,0 l/m 7,4 km/h (2 Bft) NO 44 2 min 0,000 mm 4,3 UV-I 788 W/m 13,3 C 20,5 C 12,9 km/h (3 Bft) 95,12 %
27.05.2017 10:46 21,0 C 22,2 C 62 % 1020,1 hPa 0,0 l/m 6,5 km/h (2 Bft) O-NO 74 2 min 0,000 mm 4,4 UV-I 791 W/m 13,4 C 21,0 C 9,7 km/h (2 Bft) 94,34 %
27.05.2017 10:48 21,1 C 22,2 C 64 % 1020,1 hPa 0,0 l/m 4,4 km/h (1 Bft) NO 48 2 min 0,000 mm 4,4 UV-I 793 W/m 14,0 C 21,1 C 6,4 km/h (2 Bft) 95,74 %
27.05.2017 10:50 21,2 C 22,2 C 64 % 1020,1 hPa 0,0 l/m 7,7 km/h (2 Bft) NO 43 2 min 0,000 mm 4,5 UV-I 797 W/m 14,1 C 20,7 C 12,9 km/h (3 Bft) 92,11 %
27.05.2017 10:52 21,3 C 22,2 C 62 % 1020,1 hPa 0,0 l/m 9,0 km/h (2 Bft) O-NO 76 2 min 0,000 mm 4,5 UV-I 801 W/m 13,7 C 20,4 C 12,9 km/h (3 Bft) 97,83 %
27.05.2017 10:54 21,3 C 22,2 C 64 % 1020,1 hPa 0,0 l/m 7,0 km/h (2 Bft) SO 126 2 min 0,000 mm 4,6 UV-I 804 W/m 14,2 C 21,1 C 12,9 km/h (3 Bft) 96,00 %
27.05.2017 10:56 21,4 C 22,2 C 63 % 1020,1 hPa 0,0 l/m 7,7 km/h (2 Bft) O-SO 103 2 min 0,000 mm 4,6 UV-I 808 W/m 14,1 C 20,9 C 14,5 km/h (3 Bft) 96,00 %
27.05.2017 10:58 21,3 C 22,2 C 63 % 1020,1 hPa 0,0 l/m 4,1 km/h (1 Bft) O-SO 109 2 min 0,000 mm 4,6 UV-I 812 W/m 14,0 C 21,3 C 6,4 km/h (2 Bft) 100,00 %
27.05.2017 11:00 21,3 C 22,2 C 60 % 1020,0 hPa 0,0 l/m 4,1 km/h (1 Bft) O 96 2 min 0,000 mm 4,7 UV-I 814 W/m 13,2 C 21,3 C 9,7 km/h (2 Bft) 97,87 %
27.05.2017 11:02 21,3 C 22,2 C 62 % 1020,1 hPa 0,0 l/m 5,7 km/h (1 Bft) NO 56 2 min 0,483 mm 4,8 UV-I 818 W/m 13,7 C 21,3 C 12,9 km/h (3 Bft) 97,56 %
27.05.2017 11:04 21,4 C 22,2 C 62 % 1020,0 hPa 0,0 l/m 7,6 km/h (2 Bft) NO 53 2 min 0,000 mm 4,8 UV-I 822 W/m 13,8 C 21,0 C 11,3 km/h (2 Bft) 97,56 %
27.05.2017 11:06 21,4 C 22,2 C 60 % 1020,1 hPa 0,0 l/m 6,7 km/h (2 Bft) NO 53 2 min 0,000 mm 4,8 UV-I 824 W/m 13,3 C 21,3 C 14,5 km/h (3 Bft) 93,22 %
27.05.2017 11:08 21,6 C 22,2 C 62 % 1020,1 hPa 0,0 l/m 6,5 km/h (2 Bft) O 88 2 min 0,000 mm 4,8 UV-I 825 W/m 14,0 C 21,6 C 11,3 km/h (2 Bft) 97,37 %
27.05.2017 11:10 21,6 C 22,2 C 59 % 1020,1 hPa 0,0 l/m 7,4 km/h (2 Bft) O-NO 68 2 min 0,000 mm 4,9 UV-I 830 W/m 13,2 C 21,2 C 12,9 km/h (3 Bft) 96,43 %
27.05.2017 11:12 21,7 C 22,2 C 60 % 1020,1 hPa 0,0 l/m 9,1 km/h (2 Bft) O-NO 75 2 min 0,000 mm 4,9 UV-I 834 W/m 13,6 C 20,8 C 12,9 km/h (3 Bft) 97,37 %
27.05.2017 11:14 21,8 C 22,2 C 60 % 1020,0 hPa 0,0 l/m 7,3 km/h (2 Bft) O-NO 72 2 min 0,000 mm 5,0 UV-I 838 W/m 13,7 C 21,5 C 12,9 km/h (3 Bft) 93,62 %
27.05.2017 11:16 21,7 C 22,2 C 58 % 1020,0 hPa 0,0 l/m 4,5 km/h (1 Bft) O-NO 71 2 min 0,000 mm 5,0 UV-I 841 W/m 13,1 C 21,7 C 6,4 km/h (2 Bft) 96,00 %
27.05.2017 11:18 21,7 C 22,2 C 62 % 1020,0 hPa 0,0 l/m 5,1 km/h (1 Bft) O 90 2 min 0,000 mm 5,1 UV-I 843 W/m 14,1 C 21,7 C 9,7 km/h (2 Bft) 92,45 %
27.05.2017 11:20 21,9 C 22,2 C 61 % 1020,0 hPa 0,0 l/m 10,1 km/h (2 Bft) O-NO 65 2 min 0,000 mm 5,1 UV-I 846 W/m 14,0 C 20,7 C 17,7 km/h (3 Bft) 97,56 %
27.05.2017 11:22 21,9 C 22,2 C 58 % 1020,0 hPa 0,0 l/m 9,9 km/h (2 Bft) O-NO 77 2 min 0,000 mm 5,1 UV-I 850 W/m 13,3 C 20,8 C 14,5 km/h (3 Bft) 96,00 %
27.05.2017 11:24 22,0 C 22,2 C 59 % 1020,0 hPa 0,0 l/m 6,5 km/h (2 Bft) N-NO 32 2 min 0,000 mm 5,1 UV-I 852 W/m 13,6 C 22,0 C 14,5 km/h (3 Bft) 97,73 %
27.05.2017 11:26 22,1 C 22,2 C 58 % 1020,0 hPa 0,0 l/m 7,0 km/h (2 Bft) O 91 2 min 0,000 mm 5,2 UV-I 854 W/m 13,4 C 21,9 C 12,9 km/h (3 Bft) 95,74 %
27.05.2017 11:28 22,0 C 22,2 C 60 % 1020,0 hPa 0,0 l/m 6,8 km/h (2 Bft) NO 56 2 min 0,000 mm 5,2 UV-I 853 W/m 13,9 C 21,9 C 9,7 km/h (2 Bft) 98,00 %
27.05.2017 11:30 22,1 C 22,2 C 60 % 1019,9 hPa 0,0 l/m 7,6 km/h (2 Bft) O-NO 77 2 min 0,000 mm 5,3 UV-I 854 W/m 14,0 C 21,7 C 12,9 km/h (3 Bft) 95,45 %
27.05.2017 11:32 22,2 C 22,2 C 62 % 1019,9 hPa 0,0 l/m 7,0 km/h (2 Bft) NO 51 2 min 0,000 mm 5,3 UV-I 859 W/m 14,6 C 22,0 C 14,5 km/h (3 Bft) 90,24 %
27.05.2017 11:34 22,2 C 22,2 C 58 % 1019,9 hPa 0,0 l/m 8,8 km/h (2 Bft) O-NO 57 2 min 0,000 mm 5,3 UV-I 865 W/m 13,5 C 21,4 C 14,5 km/h (3 Bft) 97,62 %
27.05.2017 11:36 22,2 C 22,2 C 59 % 1020,0 hPa 0,0 l/m 10,2 km/h (2 Bft) O-NO 69 2 min 0,000 mm 5,4 UV-I 866 W/m 13,8 C 21,0 C 14,5 km/h (3 Bft) 98,00 %
27.05.2017 11:38 22,2 C 22,2 C 57 % 1019,9 hPa 0,0 l/m 10,7 km/h (2 Bft) O-NO 73 2 min 0,000 mm 5,4 UV-I 871 W/m 13,3 C 20,9 C 16,1 km/h (3 Bft) 100,00 %
27.05.2017 11:40 22,3 C 22,2 C 57 % 1019,9 hPa 0,0 l/m 9,1 km/h (2 Bft) O-NO 60 2 min 0,000 mm 5,4 UV-I 871 W/m 13,4 C 21,4 C 12,9 km/h (3 Bft) 97,44 %
27.05.2017 11:42 22,4 C 22,2 C 58 % 1020,0 hPa 0,0 l/m 6,1 km/h (2 Bft) O 96 2 min 0,000 mm 5,5 UV-I 870 W/m 13,7 C 22,4 C 11,3 km/h (2 Bft) 98,11 %
27.05.2017 11:44 22,4 C 22,2 C 55 % 1019,9 hPa 0,0 l/m 2,0 km/h (1 Bft) O 89 2 min 0,000 mm 5,5 UV-I 872 W/m 12,9 C 22,4 C 9,7 km/h (2 Bft) 97,56 %
27.05.2017 11:46 22,3 C 22,2 C 57 % 1019,9 hPa 0,0 l/m 5,4 km/h (1 Bft) O 84 2 min 0,000 mm 5,5 UV-I 872 W/m 13,4 C 22,3 C 11,3 km/h (2 Bft) 98,11 %
27.05.2017 11:48 22,5 C 22,2 C 61 % 1019,9 hPa 0,0 l/m 8,2 km/h (2 Bft) NO 42 2 min 0,000 mm 5,6 UV-I 873 W/m 14,6 C 21,9 C 12,9 km/h (3 Bft) 100,00 %
27.05.2017 11:50 22,5 C 22,2 C 58 % 1020,0 hPa 0,0 l/m 4,3 km/h (1 Bft) N 360 2 min 0,000 mm 5,6 UV-I 879 W/m 13,8 C 22,5 C 11,3 km/h (2 Bft) 98,11 %
27.05.2017 11:52 22,4 C 22,2 C 62 % 1020,0 hPa 0,0 l/m 3,8 km/h (1 Bft) NO 49 2 min 0,000 mm 5,6 UV-I 885 W/m 14,8 C 22,4 C 8,0 km/h (2 Bft) 100,00 %
27.05.2017 11:54 22,6 C 22,2 C 53 % 1020,0 hPa 0,0 l/m 8,7 km/h (2 Bft) O-NO 74 2 min 0,000 mm 5,7 UV-I 887 W/m 12,5 C 21,9 C 14,5 km/h (3 Bft) 96,00 %
27.05.2017 11:56 22,8 C 22,2 C 54 % 1020,0 hPa 0,0 l/m 7,7 km/h (2 Bft) O 89 2 min 0,000 mm 5,7 UV-I 888 W/m 13,0 C 22,4 C 11,3 km/h (2 Bft) 96,23 %
27.05.2017 11:58 22,7 C 22,2 C 56 % 1020,0 hPa 0,0 l/m 4,4 km/h (1 Bft) O-NO 59 2 min 0,000 mm 5,7 UV-I 891 W/m 13,5 C 22,7 C 8,0 km/h (2 Bft) 100,00 %
27.05.2017 12:00 22,7 C 22,2 C 53 % 1020,0 hPa 0,0 l/m 5,0 km/h (1 Bft) O 90 2 min 0,559 mm 5,8 UV-I 892 W/m 12,6 C 22,7 C 9,7 km/h (2 Bft) 97,87 %
27.05.2017 12:02 22,7 C 22,2 C 55 % 1020,0 hPa 0,0 l/m 9,0 km/h (2 Bft) O-NO 69 2 min 0,000 mm 5,6 UV-I 878 W/m 13,2 C 21,9 C 16,1 km/h (3 Bft) 98,11 %
27.05.2017 12:04 22,7 C 22,2 C 55 % 1020,0 hPa 0,0 l/m 5,6 km/h (1 Bft) NO 39 2 min 0,000 mm 5,7 UV-I 880 W/m 13,2 C 22,7 C 12,9 km/h (3 Bft) 97,56 %
27.05.2017 12:06 22,4 C 22,2 C 57 % 1020,0 hPa 0,0 l/m 3,2 km/h (1 Bft) O-NO 63 2 min 0,000 mm 5,7 UV-I 880 W/m 13,5 C 22,4 C 6,4 km/h (2 Bft) 100,00 %
27.05.2017 12:08 22,4 C 22,8 C 55 % 1020,1 hPa 0,0 l/m 7,8 km/h (2 Bft) O 90 2 min 0,000 mm 5,8 UV-I 890 W/m 12,9 C 21,9 C 14,5 km/h (3 Bft) 96,00 %
27.05.2017 12:10 22,4 C 22,8 C 55 % 1020,0 hPa 0,0 l/m 5,0 km/h (1 Bft) N-NO 17 2 min 0,000 mm 5,8 UV-I 898 W/m 12,9 C 22,4 C 9,7 km/h (2 Bft) 95,74 %
27.05.2017 12:12 22,8 C 22,8 C 57 % 1020,0 hPa 0,0 l/m 3,3 km/h (1 Bft) NO 40 2 min 0,000 mm 5,9 UV-I 907 W/m 13,8 C 22,8 C 6,4 km/h (2 Bft) 100,00 %
27.05.2017 12:14 23,0 C 22,8 C 55 % 1020,0 hPa 0,0 l/m 6,2 km/h (2 Bft) NO 40 2 min 0,000 mm 6,0 UV-I 908 W/m 13,5 C 23,0 C 11,3 km/h (2 Bft) 100,00 %
27.05.2017 12:16 22,9 C 22,8 C 54 % 1020,0 hPa 0,0 l/m 8,6 km/h (2 Bft) N-NO 21 2 min 0,000 mm 5,9 UV-I 902 W/m 13,1 C 22,2 C 12,9 km/h (3 Bft) 98,08 %
27.05.2017 12:18 23,1 C 22,8 C 54 % 1020,0 hPa 0,0 l/m 8,1 km/h (2 Bft) NO 43 2 min 0,000 mm 6,0 UV-I 904 W/m 13,3 C 22,6 C 12,9 km/h (3 Bft) 94,87 %
27.05.2017 12:20 23,2 C 22,8 C 57 % 1020,0 hPa 0,0 l/m 7,1 km/h (2 Bft) NO 47 2 min 0,000 mm 6,0 UV-I 907 W/m 14,2 C 23,0 C 11,3 km/h (2 Bft) 98,21 %
27.05.2017 12:22 23,2 C 22,8 C 51 % 1020,0 hPa 0,0 l/m 6,4 km/h (2 Bft) NO 53 2 min 0,000 mm 6,0 UV-I 911 W/m 12,5 C 23,2 C 11,3 km/h (2 Bft) 97,56 %
27.05.2017 12:24 23,0 C 22,8 C 54 % 1020,0 hPa 0,0 l/m 3,8 km/h (1 Bft) NO 38 2 min 0,000 mm 6,1 UV-I 911 W/m 13,2 C 23,0 C 6,4 km/h (2 Bft) 100,00 %
27.05.2017 12:26 22,7 C 22,8 C 52 % 1020,0 hPa 0,0 l/m 1,8 km/h (1 Bft) NO 38 2 min 0,000 mm 6,1 UV-I 908 W/m 12,3 C 22,7 C 3,2 km/h (1 Bft) 100,00 %
27.05.2017 12:28 22,6 C 22,8 C 55 % 1019,9 hPa 0,0 l/m 3,5 km/h (1 Bft) NO 38 2 min 0,000 mm 6,0 UV-I 908 W/m 13,1 C 22,6 C 6,4 km/h (2 Bft) 96,23 %
27.05.2017 12:30 22,4 C 22,8 C 54 % 1020,0 hPa 0,0 l/m 0,6 km/h (0 Bft) S 191 2 min 0,000 mm 6,1 UV-I 909 W/m 12,6 C 22,4 C 6,4 km/h (2 Bft) 100,00 %
27.05.2017 12:32 22,6 C 22,8 C 54 % 1019,9 hPa 0,0 l/m 6,5 km/h (2 Bft) NO 45 2 min 0,000 mm 6,1 UV-I 911 W/m 12,8 C 22,6 C 9,7 km/h (2 Bft) 100,00 %
27.05.2017 12:34 22,9 C 22,8 C 52 % 1020,0 hPa 0,0 l/m 10,0 km/h (2 Bft) NO 48 2 min 0,000 mm 6,1 UV-I 912 W/m 12,5 C 21,8 C 17,7 km/h (3 Bft) 100,00 %
27.05.2017 12:36 23,2 C 22,8 C 55 % 1020,0 hPa 0,0 l/m 8,7 km/h (2 Bft) NO 47 2 min 0,000 mm 6,1 UV-I 914 W/m 13,6 C 22,5 C 14,5 km/h (3 Bft) 100,00 %
27.05.2017 12:38 23,3 C 22,8 C 47 % 1020,0 hPa 0,0 l/m 7,6 km/h (2 Bft) O-NO 58 2 min 0,000 mm 6,1 UV-I 912 W/m 11,3 C 22,9 C 11,3 km/h (2 Bft) 100,00 %
27.05.2017 12:40 23,3 C 22,8 C 46 % 1020,0 hPa 0,0 l/m 5,3 km/h (1 Bft) N-NO 33 2 min 0,000 mm 6,1 UV-I 912 W/m 11,0 C 23,3 C 9,7 km/h (2 Bft) 100,00 %
27.05.2017 12:42 23,3 C 22,8 C 48 % 1020,1 hPa 0,0 l/m 6,0 km/h (2 Bft) N-NO 28 2 min 0,000 mm 6,1 UV-I 909 W/m 11,7 C 23,3 C 9,7 km/h (2 Bft) 97,73 %
27.05.2017 12:44 23,4 C 22,8 C 44 % 1020,0 hPa 0,0 l/m 3,9 km/h (1 Bft) NO 44 2 min 0,000 mm 6,1 UV-I 912 W/m 10,4 C 23,4 C 8,0 km/h (2 Bft) 100,00 %
27.05.2017 12:46 23,3 C 22,8 C 48 % 1019,9 hPa 0,0 l/m 0,9 km/h (0 Bft) N-NW 337 2 min 0,000 mm 6,1 UV-I 913 W/m 11,7 C 23,3 C 4,8 km/h (1 Bft) 98,00 %
27.05.2017 12:48 23,2 C 22,8 C 47 % 1020,0 hPa 0,0 l/m 1,0 km/h (0 Bft) N-NO 19 2 min 0,000 mm 6,2 UV-I 915 W/m 11,3 C 23,2 C 3,2 km/h (1 Bft) 100,00 %
27.05.2017 12:50 23,3 C 22,8 C 50 % 1019,9 hPa 0,0 l/m 6,6 km/h (2 Bft) O 97 2 min 0,000 mm 6,2 UV-I 912 W/m 12,3 C 23,2 C 12,9 km/h (3 Bft) 96,30 %
27.05.2017 12:52 23,5 C 22,8 C 50 % 1019,9 hPa 0,0 l/m 11,3 km/h (2 Bft) O-SO 120 2 min 0,000 mm 6,2 UV-I 917 W/m 12,5 C 22,2 C 12,9 km/h (3 Bft) 100,00 %
27.05.2017 12:54 23,5 C 22,8 C 48 % 1020,0 hPa 0,0 l/m 6,2 km/h (2 Bft) SO 138 2 min 0,000 mm 6,2 UV-I 918 W/m 11,8 C 23,5 C 11,3 km/h (2 Bft) 98,00 %
27.05.2017 12:56 23,6 C 22,8 C 46 % 1019,9 hPa 0,0 l/m 4,4 km/h (1 Bft) S-SO 163 2 min 0,000 mm 6,1 UV-I 912 W/m 11,3 C 23,6 C 11,3 km/h (2 Bft) 100,00 %
27.05.2017 12:58 23,4 C 22,8 C 46 % 1019,8 hPa 0,0 l/m 5,3 km/h (1 Bft) NO 55 2 min 0,000 mm 6,1 UV-I 911 W/m 11,1 C 23,4 C 11,3 km/h (2 Bft) 94,00 %
27.05.2017 13:00 23,6 C 22,8 C 49 % 1019,9 hPa 0,0 l/m 7,7 km/h (2 Bft) O-NO 71 2 min 0,584 mm 6,2 UV-I 915 W/m 12,2 C 23,2 C 12,9 km/h (3 Bft) 100,00 %
27.05.2017 13:02 23,7 C 22,8 C 48 % 1019,9 hPa 0,0 l/m 8,9 km/h (2 Bft) O-NO 65 2 min 0,000 mm 6,2 UV-I 914 W/m 12,0 C 23,0 C 16,1 km/h (3 Bft) 97,96 %
27.05.2017 13:04 23,8 C 22,8 C 50 % 1019,8 hPa 0,0 l/m 6,7 km/h (2 Bft) O-NO 63 2 min 0,000 mm 6,2 UV-I 913 W/m 12,7 C 23,7 C 12,9 km/h (3 Bft) 95,24 %
27.05.2017 13:06 23,7 C 22,8 C 44 % 1019,9 hPa 0,0 l/m 6,7 km/h (2 Bft) O-SO 118 2 min 0,000 mm 6,1 UV-I 913 W/m 10,7 C 23,6 C 11,3 km/h (2 Bft) 96,23 %
27.05.2017 13:08 23,4 C 22,8 C 45 % 1019,8 hPa 0,0 l/m 3,2 km/h (1 Bft) N 9 2 min 0,000 mm 6,1 UV-I 912 W/m 10,8 C 23,4 C 6,4 km/h (2 Bft) 94,74 %
27.05.2017 13:10 23,5 C 22,8 C 49 % 1019,8 hPa 0,0 l/m 9,1 km/h (2 Bft) O 86 2 min 0,000 mm 6,2 UV-I 913 W/m 12,2 C 22,7 C 16,1 km/h (3 Bft) 94,00 %
27.05.2017 13:12 23,8 C 22,8 C 47 % 1019,8 hPa 0,0 l/m 12,1 km/h (2 Bft) NO 55 2 min 0,000 mm 6,2 UV-I 914 W/m 11,8 C 22,4 C 19,3 km/h (3 Bft) 95,74 %
27.05.2017 13:14 23,8 C 22,8 C 46 % 1019,9 hPa 0,0 l/m 8,4 km/h (2 Bft) NO 42 2 min 0,000 mm 6,1 UV-I 914 W/m 11,5 C 23,2 C 12,9 km/h (3 Bft) 95,12 %
27.05.2017 13:16 23,9 C 22,8 C 47 % 1019,9 hPa 0,0 l/m 8,1 km/h (2 Bft) NO 49 2 min 0,000 mm 6,1 UV-I 913 W/m 11,9 C 23,4 C 14,5 km/h (3 Bft) 96,43 %
27.05.2017 13:18 23,9 C 22,8 C 46 % 1019,8 hPa 0,0 l/m 7,8 km/h (2 Bft) NO 50 2 min 0,000 mm 6,1 UV-I 912 W/m 11,6 C 23,5 C 12,9 km/h (3 Bft) 95,12 %
27.05.2017 13:20 23,9 C 22,8 C 47 % 1019,8 hPa 0,0 l/m 7,1 km/h (2 Bft) O-NO 57 2 min 0,000 mm 6,1 UV-I 912 W/m 11,9 C 23,7 C 11,3 km/h (2 Bft) 94,00 %
27.05.2017 13:22 23,9 C 22,8 C 50 % 1019,8 hPa 0,0 l/m 5,8 km/h (2 Bft) N-NO 33 2 min 0,000 mm 6,1 UV-I 910 W/m 12,8 C 23,9 C 12,9 km/h (3 Bft) 91,49 %
27.05.2017 13:24 23,6 C 22,8 C 45 % 1019,8 hPa 0,0 l/m 0,9 km/h (0 Bft) N-NO 31 2 min 0,000 mm 6,1 UV-I 906 W/m 11,0 C 23,6 C 3,2 km/h (1 Bft) 97,87 %
27.05.2017 13:26 23,3 C 22,8 C 46 % 1019,8 hPa 0,0 l/m 1,2 km/h (1 Bft) NW 325 2 min 0,000 mm 6,1 UV-I 905 W/m 11,0 C 23,3 C 3,2 km/h (1 Bft) 96,00 %
27.05.2017 13:28 23,6 C 22,8 C 49 % 1019,7 hPa 0,0 l/m 9,1 km/h (2 Bft) NO 53 2 min 0,000 mm 6,1 UV-I 908 W/m 12,2 C 22,8 C 16,1 km/h (3 Bft) 95,12 %
27.05.2017 13:30 23,8 C 22,8 C 47 % 1019,7 hPa 0,0 l/m 5,2 km/h (1 Bft) N-NO 33 2 min 0,000 mm 6,1 UV-I 910 W/m 11,8 C 23,8 C 9,7 km/h (2 Bft) 95,74 %
27.05.2017 13:32 23,9 C 22,8 C 44 % 1019,7 hPa 0,0 l/m 5,6 km/h (1 Bft) O-NO 60 2 min 0,000 mm 6,1 UV-I 909 W/m 10,9 C 23,9 C 9,7 km/h (2 Bft) 98,11 %
27.05.2017 13:34 24,0 C 22,8 C 46 % 1019,7 hPa 0,0 l/m 6,9 km/h (2 Bft) O 81 2 min 0,000 mm 6,1 UV-I 907 W/m 11,7 C 23,9 C 12,9 km/h (3 Bft) 96,97 %
27.05.2017 13:36 24,0 C 23,3 C 46 % 1019,6 hPa 0,0 l/m 7,1 km/h (2 Bft) O-NO 64 2 min 0,000 mm 6,1 UV-I 907 W/m 11,7 C 23,8 C 16,1 km/h (3 Bft) 100,00 %
27.05.2017 13:38 23,9 C 23,3 C 47 % 1019,6 hPa 0,0 l/m 6,2 km/h (2 Bft) NO 46 2 min 0,000 mm 6,0 UV-I 904 W/m 11,9 C 23,9 C 11,3 km/h (2 Bft) 97,87 %
27.05.2017 13:40 24,1 C 23,3 C 50 % 1019,6 hPa 0,0 l/m 7,5 km/h (2 Bft) N 5 2 min 0,000 mm 6,0 UV-I 902 W/m 13,0 C 23,8 C 17,7 km/h (3 Bft) 100,00 %
27.05.2017 13:42 24,1 C 23,3 C 51 % 1019,5 hPa 0,0 l/m 10,7 km/h (2 Bft) O-NO 71 2 min 0,000 mm 6,0 UV-I 902 W/m 13,3 C 23,0 C 17,7 km/h (3 Bft) 100,00 %
27.05.2017 13:44 24,1 C 23,3 C 46 % 1019,6 hPa 0,0 l/m 12,2 km/h (2 Bft) O 94 2 min 0,000 mm 6,0 UV-I 901 W/m 11,7 C 22,7 C 17,7 km/h (3 Bft) 94,74 %
27.05.2017 13:46 24,1 C 23,3 C 48 % 1019,5 hPa 0,0 l/m 6,4 km/h (2 Bft) O-SO 114 2 min 0,000 mm 6,0 UV-I 900 W/m 12,4 C 24,1 C 11,3 km/h (2 Bft) 97,73 %
27.05.2017 13:48 24,2 C 23,3 C 45 % 1019,6 hPa 0,0 l/m 12,7 km/h (3 Bft) O-NO 71 2 min 0,000 mm 5,9 UV-I 901 W/m 11,5 C 22,7 C 20,9 km/h (4 Bft) 93,22 %
27.05.2017 13:50 24,2 C 23,3 C 43 % 1019,6 hPa 0,0 l/m 12,7 km/h (3 Bft) O 79 2 min 0,000 mm 5,9 UV-I 897 W/m 10,8 C 22,7 C 19,3 km/h (3 Bft) 92,68 %
27.05.2017 13:52 24,2 C 23,3 C 47 % 1019,6 hPa 0,0 l/m 8,6 km/h (2 Bft) NO 55 2 min 0,000 mm 5,9 UV-I 895 W/m 12,2 C 23,6 C 12,9 km/h (3 Bft) 89,36 %
27.05.2017 13:54 24,3 C 23,3 C 50 % 1019,6 hPa 0,0 l/m 10,0 km/h (2 Bft) O-NO 61 2 min 0,000 mm 5,8 UV-I 891 W/m 13,2 C 23,4 C 16,1 km/h (3 Bft) 97,73 %
27.05.2017 13:56 24,3 C 23,3 C 48 % 1019,6 hPa 0,0 l/m 5,9 km/h (2 Bft) O-NO 75 2 min 0,000 mm 5,8 UV-I 891 W/m 12,6 C 24,3 C 9,7 km/h (2 Bft) 96,43 %
27.05.2017 13:58 24,3 C 23,3 C 44 % 1019,6 hPa 0,0 l/m 9,1 km/h (2 Bft) O 100 2 min 0,000 mm 5,8 UV-I 889 W/m 11,3 C 23,6 C 12,9 km/h (3 Bft) 95,12 %
27.05.2017 14:00 24,3 C 23,3 C 43 % 1019,6 hPa 0,0 l/m 8,0 km/h (2 Bft) NO 49 2 min 0,610 mm 5,8 UV-I 885 W/m 10,9 C 23,9 C 11,3 km/h (2 Bft) 98,00 %
27.05.2017 14:02 24,3 C 23,3 C 46 % 1019,6 hPa 0,0 l/m 8,1 km/h (2 Bft) O-NO 76 2 min 0,000 mm 5,8 UV-I 887 W/m 11,9 C 23,8 C 14,5 km/h (3 Bft) 94,74 %
27.05.2017 14:04 24,4 C 23,3 C 49 % 1019,5 hPa 0,0 l/m 6,6 km/h (2 Bft) N-NO 31 2 min 0,000 mm 5,7 UV-I 882 W/m 13,0 C 24,4 C 17,7 km/h (3 Bft) 96,00 %
27.05.2017 14:06 24,3 C 23,3 C 48 % 1019,5 hPa 0,0 l/m 9,7 km/h (2 Bft) N-NO 12 2 min 0,000 mm 5,7 UV-I 878 W/m 12,6 C 23,5 C 17,7 km/h (3 Bft) 94,00 %
27.05.2017 14:08 24,2 C 23,3 C 45 % 1019,5 hPa 0,0 l/m 10,5 km/h (2 Bft) NO 39 2 min 0,000 mm 5,7 UV-I 880 W/m 11,5 C 23,2 C 16,1 km/h (3 Bft) 100,00 %
27.05.2017 14:10 24,3 C 23,3 C 46 % 1019,5 hPa 0,0 l/m 9,1 km/h (2 Bft) O 86 2 min 0,000 mm 5,7 UV-I 878 W/m 11,9 C 23,6 C 17,7 km/h (3 Bft) 92,00 %
27.05.2017 14:12 24,4 C 23,3 C 48 % 1019,5 hPa 0,0 l/m 11,2 km/h (2 Bft) NO 48 2 min 0,000 mm 5,7 UV-I 874 W/m 12,7 C 23,3 C 17,7 km/h (3 Bft) 95,92 %
27.05.2017 14:14 24,5 C 23,3 C 46 % 1019,4 hPa 0,0 l/m 12,4 km/h (3 Bft) NO 48 2 min 0,000 mm 5,6 UV-I 874 W/m 12,1 C 23,1 C 17,7 km/h (3 Bft) 92,45 %
27.05.2017 14:16 24,4 C 23,3 C 48 % 1019,4 hPa 0,0 l/m 10,3 km/h (2 Bft) O-NO 59 2 min 0,000 mm 5,6 UV-I 872 W/m 12,7 C 23,4 C 14,5 km/h (3 Bft) 97,78 %
27.05.2017 14:18 24,3 C 23,3 C 48 % 1019,4 hPa 0,0 l/m 11,1 km/h (2 Bft) NO 47 2 min 0,000 mm 5,6 UV-I 869 W/m 12,6 C 23,2 C 17,7 km/h (3 Bft) 97,87 %
27.05.2017 14:20 24,3 C 23,3 C 48 % 1019,4 hPa 0,0 l/m 10,2 km/h (2 Bft) NO 44 2 min 0,000 mm 5,5 UV-I 863 W/m 12,6 C 23,3 C 16,1 km/h (3 Bft) 97,87 %
27.05.2017 14:22 24,3 C 23,3 C 49 % 1019,4 hPa 0,0 l/m 9,2 km/h (2 Bft) N-NO 28 2 min 0,000 mm 5,5 UV-I 861 W/m 12,9 C 23,6 C 17,7 km/h (3 Bft) 97,56 %
27.05.2017 14:24 24,1 C 23,3 C 49 % 1019,3 hPa 0,0 l/m 11,8 km/h (2 Bft) NO 36 2 min 0,000 mm 5,5 UV-I 862 W/m 12,7 C 22,8 C 17,7 km/h (3 Bft) 98,00 %
27.05.2017 14:26 24,2 C 23,3 C 49 % 1019,3 hPa 0,0 l/m 6,7 km/h (2 Bft) O-NO 74 2 min 0,000 mm 5,4 UV-I 860 W/m 12,8 C 24,1 C 14,5 km/h (3 Bft) 98,00 %
27.05.2017 14:28 24,3 C 23,3 C 43 % 1019,3 hPa 0,0 l/m 9,3 km/h (2 Bft) O 79 2 min 0,000 mm 5,4 UV-I 860 W/m 10,9 C 23,5 C 16,1 km/h (3 Bft) 94,00 %
27.05.2017 14:30 24,4 C 23,3 C 46 % 1019,3 hPa 0,0 l/m 9,7 km/h (2 Bft) O-NO 76 2 min 0,000 mm 5,4 UV-I 856 W/m 12,0 C 23,6 C 19,3 km/h (3 Bft) 97,73 %
27.05.2017 14:32 24,5 C 23,3 C 43 % 1019,3 hPa 0,0 l/m 13,8 km/h (3 Bft) O 84 2 min 0,000 mm 5,3 UV-I 855 W/m 11,1 C 22,9 C 17,7 km/h (3 Bft) 95,12 %
27.05.2017 14:34 24,4 C 23,3 C 42 % 1019,2 hPa 0,0 l/m 13,9 km/h (3 Bft) O-NO 76 2 min 0,000 mm 5,3 UV-I 856 W/m 10,6 C 22,8 C 19,3 km/h (3 Bft) 97,87 %
27.05.2017 14:36 24,4 C 23,3 C 45 % 1019,3 hPa 0,0 l/m 9,9 km/h (2 Bft) NO 52 2 min 0,000 mm 5,3 UV-I 850 W/m 11,7 C 23,5 C 14,5 km/h (3 Bft) 92,00 %
27.05.2017 14:38 24,5 C 23,3 C 46 % 1019,2 hPa 0,0 l/m 5,9 km/h (2 Bft) O 81 2 min 0,000 mm 5,2 UV-I 846 W/m 12,1 C 24,5 C 9,7 km/h (2 Bft) 97,50 %
27.05.2017 14:40 24,6 C 23,3 C 41 % 1019,2 hPa 0,0 l/m 12,6 km/h (3 Bft) O 94 2 min 0,000 mm 5,2 UV-I 839 W/m 10,5 C 23,2 C 20,9 km/h (4 Bft) 97,73 %
27.05.2017 14:42 24,7 C 23,3 C 47 % 1019,2 hPa 0,0 l/m 11,8 km/h (2 Bft) NO 54 2 min 0,000 mm 5,1 UV-I 837 W/m 12,6 C 23,5 C 24,1 km/h (4 Bft) 98,36 %
27.05.2017 14:44 24,7 C 23,3 C 44 % 1019,1 hPa 0,0 l/m 11,6 km/h (2 Bft) O-NO 63 2 min 0,000 mm 5,1 UV-I 834 W/m 11,6 C 23,5 C 20,9 km/h (4 Bft) 94,74 %
27.05.2017 14:46 24,8 C 23,3 C 44 % 1019,1 hPa 0,0 l/m 16,1 km/h (3 Bft) O-NO 67 2 min 0,000 mm 5,0 UV-I 829 W/m 11,7 C 22,9 C 20,9 km/h (4 Bft) 96,43 %
27.05.2017 14:48 24,7 C 23,3 C 49 % 1019,2 hPa 0,0 l/m 7,4 km/h (2 Bft) O-NO 67 2 min 0,000 mm 5,0 UV-I 823 W/m 13,3 C 24,4 C 12,9 km/h (3 Bft) 95,45 %
27.05.2017 14:50 24,6 C 23,3 C 43 % 1019,1 hPa 0,0 l/m 6,2 km/h (2 Bft) O-NO 58 2 min 0,000 mm 4,9 UV-I 818 W/m 11,2 C 24,6 C 9,7 km/h (2 Bft) 97,44 %
27.05.2017 14:52 24,6 C 23,3 C 46 % 1019,1 hPa 0,0 l/m 5,7 km/h (1 Bft) O-NO 58 2 min 0,000 mm 4,9 UV-I 818 W/m 12,2 C 24,6 C 11,3 km/h (2 Bft) 94,29 %
27.05.2017 14:54 24,8 C 23,3 C 50 % 1019,1 hPa 0,0 l/m 7,9 km/h (2 Bft) NO 53 2 min 0,000 mm 4,9 UV-I 819 W/m 13,7 C 24,4 C 14,5 km/h (3 Bft) 94,64 %
27.05.2017 14:56 24,8 C 23,3 C 43 % 1019,1 hPa 0,0 l/m 15,3 km/h (3 Bft) O 101 2 min 0,000 mm 4,9 UV-I 812 W/m 11,4 C 23,0 C 22,5 km/h (4 Bft) 100,00 %
27.05.2017 14:58 24,8 C 23,3 C 44 % 1019,1 hPa 0,0 l/m 13,2 km/h (3 Bft) O-NO 61 2 min 0,000 mm 4,9 UV-I 816 W/m 11,7 C 23,3 C 17,7 km/h (3 Bft) 97,56 %
27.05.2017 15:00 24,8 C 23,3 C 44 % 1019,1 hPa 0,0 l/m 10,9 km/h (2 Bft) NO 49 2 min 0,609 mm 4,9 UV-I 818 W/m 11,7 C 23,8 C 14,5 km/h (3 Bft) 100,00 %
27.05.2017 15:02 24,8 C 23,3 C 47 % 1019,0 hPa 0,0 l/m 9,9 km/h (2 Bft) NO 37 2 min 0,000 mm 4,8 UV-I 814 W/m 12,7 C 24,0 C 16,1 km/h (3 Bft) 96,23 %
27.05.2017 15:04 24,8 C 23,3 C 43 % 1019,0 hPa 0,0 l/m 10,6 km/h (2 Bft) O 93 2 min 0,000 mm 4,8 UV-I 808 W/m 11,4 C 23,8 C 16,1 km/h (3 Bft) 94,00 %
27.05.2017 15:06 24,8 C 23,3 C 47 % 1019,0 hPa 0,0 l/m 10,1 km/h (2 Bft) NO 48 2 min 0,000 mm 4,7 UV-I 803 W/m 12,7 C 23,9 C 20,9 km/h (4 Bft) 100,00 %
27.05.2017 15:08 24,8 C 23,3 C 49 % 1019,0 hPa 0,0 l/m 8,4 km/h (2 Bft) NO 35 2 min 0,000 mm 4,6 UV-I 796 W/m 13,3 C 24,3 C 16,1 km/h (3 Bft) 94,34 %
27.05.2017 15:10 24,8 C 23,3 C 45 % 1019,0 hPa 0,0 l/m 7,9 km/h (2 Bft) O-SO 105 2 min 0,000 mm 4,6 UV-I 794 W/m 12,0 C 24,4 C 16,1 km/h (3 Bft) 97,37 %
27.05.2017 15:12 24,9 C 23,3 C 44 % 1019,0 hPa 0,0 l/m 8,7 km/h (2 Bft) O-SO 113 2 min 0,000 mm 4,6 UV-I 796 W/m 11,8 C 24,3 C 12,9 km/h (3 Bft) 98,31 %
27.05.2017 15:14 24,9 C 23,3 C 43 % 1019,0 hPa 0,0 l/m 10,1 km/h (2 Bft) O-NO 75 2 min 0,000 mm 4,5 UV-I 793 W/m 11,4 C 24,0 C 17,7 km/h (3 Bft) 97,14 %
27.05.2017 15:16 25,0 C 23,9 C 46 % 1019,0 hPa 0,0 l/m 9,5 km/h (2 Bft) NO 39 2 min 0,000 mm 4,5 UV-I 788 W/m 12,6 C 24,3 C 12,9 km/h (3 Bft) 92,86 %
27.05.2017 15:18 25,1 C 23,9 C 45 % 1019,0 hPa 0,0 l/m 8,4 km/h (2 Bft) O-NO 59 2 min 0,000 mm 4,4 UV-I 780 W/m 12,3 C 24,6 C 16,1 km/h (3 Bft) 94,74 %
27.05.2017 15:20 25,1 C 23,9 C 44 % 1019,0 hPa 0,0 l/m 4,9 km/h (1 Bft) O-NO 63 2 min 0,000 mm 4,3 UV-I 774 W/m 12,0 C 25,1 C 6,4 km/h (2 Bft) 98,00 %
27.05.2017 15:22 25,1 C 23,9 C 45 % 1018,9 hPa 0,0 l/m 9,0 km/h (2 Bft) O-NO 60 2 min 0,000 mm 4,3 UV-I 769 W/m 12,3 C 24,5 C 22,5 km/h (4 Bft) 93,62 %
27.05.2017 15:24 25,1 C 23,9 C 43 % 1018,9 hPa 0,0 l/m 14,8 km/h (3 Bft) O-NO 78 2 min 0,000 mm 4,3 UV-I 768 W/m 11,6 C 23,5 C 22,5 km/h (4 Bft) 94,00 %
27.05.2017 15:26 25,2 C 23,9 C 42 % 1018,9 hPa 0,0 l/m 11,0 km/h (2 Bft) O-NO 77 2 min 0,000 mm 4,3 UV-I 768 W/m 11,4 C 24,2 C 16,1 km/h (3 Bft) 95,12 %
27.05.2017 15:28 25,1 C 23,9 C 43 % 1018,9 hPa 0,0 l/m 10,2 km/h (2 Bft) NO 54 2 min 0,000 mm 4,2 UV-I 762 W/m 11,6 C 24,2 C 14,5 km/h (3 Bft) 98,00 %
27.05.2017 15:30 25,1 C 23,9 C 46 % 1018,9 hPa 0,0 l/m 6,8 km/h (2 Bft) N-NO 22 2 min 0,000 mm 4,1 UV-I 756 W/m 12,7 C 25,0 C 12,9 km/h (3 Bft) 97,78 %
27.05.2017 15:32 24,9 C 23,9 C 49 % 1018,9 hPa 0,0 l/m 3,4 km/h (1 Bft) NO 36 2 min 0,000 mm 4,1 UV-I 753 W/m 13,4 C 24,9 C 11,3 km/h (2 Bft) 93,62 %
27.05.2017 15:34 24,9 C 23,9 C 45 % 1018,9 hPa 0,0 l/m 5,7 km/h (1 Bft) N-NO 20 2 min 0,000 mm 4,1 UV-I 752 W/m 12,1 C 24,9 C 8,0 km/h (2 Bft) 100,00 %
27.05.2017 15:36 24,9 C 23,9 C 46 % 1018,9 hPa 0,0 l/m 6,2 km/h (2 Bft) NO 52 2 min 0,000 mm 4,0 UV-I 747 W/m 12,5 C 24,9 C 8,0 km/h (2 Bft) 97,44 %
27.05.2017 15:38 25,0 C 23,9 C 46 % 1018,8 hPa 0,0 l/m 5,6 km/h (1 Bft) NO 53 2 min 0,000 mm 4,0 UV-I 741 W/m 12,6 C 25,0 C 8,0 km/h (2 Bft) 100,00 %
27.05.2017 15:40 25,1 C 23,9 C 49 % 1018,8 hPa 0,0 l/m 8,0 km/h (2 Bft) O-NO 66 2 min 0,000 mm 3,9 UV-I 730 W/m 13,6 C 24,7 C 16,1 km/h (3 Bft) 98,11 %
27.05.2017 15:42 25,1 C 23,9 C 43 % 1018,8 hPa 0,0 l/m 19,1 km/h (3 Bft) O 80 2 min 0,000 mm 3,8 UV-I 726 W/m 11,6 C 22,9 C 22,5 km/h (4 Bft) 97,56 %
27.05.2017 15:44 25,0 C 23,9 C 42 % 1018,8 hPa 0,0 l/m 18,5 km/h (3 Bft) O-NO 76 2 min 0,000 mm 3,8 UV-I 720 W/m 11,2 C 22,8 C 25,7 km/h (4 Bft) 100,00 %
27.05.2017 15:46 24,9 C 23,9 C 44 % 1018,8 hPa 0,0 l/m 15,3 km/h (3 Bft) O 79 2 min 0,000 mm 3,7 UV-I 718 W/m 11,8 C 23,1 C 19,3 km/h (3 Bft) 97,73 %
27.05.2017 15:48 24,8 C 23,9 C 43 % 1018,8 hPa 0,0 l/m 10,0 km/h (2 Bft) O 86 2 min 0,000 mm 3,7 UV-I 715 W/m 11,4 C 23,9 C 16,1 km/h (3 Bft) 96,23 %
27.05.2017 15:50 24,9 C 23,9 C 42 % 1018,8 hPa 0,0 l/m 10,5 km/h (2 Bft) O 98 2 min 0,000 mm 3,7 UV-I 711 W/m 11,1 C 24,0 C 16,1 km/h (3 Bft) 97,37 %
27.05.2017 15:52 24,9 C 23,9 C 42 % 1018,9 hPa 0,0 l/m 8,6 km/h (2 Bft) O 96 2 min 0,000 mm 3,6 UV-I 709 W/m 11,1 C 24,4 C 16,1 km/h (3 Bft) 97,73 %
27.05.2017 15:54 24,8 C 23,9 C 41 % 1018,8 hPa 0,0 l/m 7,8 km/h (2 Bft) O-SO 116 2 min 0,000 mm 3,6 UV-I 703 W/m 10,6 C 24,4 C 16,1 km/h (3 Bft) 100,00 %
27.05.2017 15:56 24,9 C 23,9 C 43 % 1018,8 hPa 0,0 l/m 14,7 km/h (3 Bft) S-SO 154 2 min 0,000 mm 3,5 UV-I 699 W/m 11,4 C 23,2 C 19,3 km/h (3 Bft) 94,74 %
27.05.2017 15:58 25,1 C 23,9 C 42 % 1018,7 hPa 0,0 l/m 9,5 km/h (2 Bft) O 94 2 min 0,000 mm 3,5 UV-I 692 W/m 11,3 C 24,4 C 16,1 km/h (3 Bft) 96,77 %
27.05.2017 16:00 25,2 C 23,9 C 43 % 1018,7 hPa 0,0 l/m 11,8 km/h (2 Bft) NO 51 2 min 0,000 mm 3,4 UV-I 687 W/m 11,7 C 24,1 C 17,7 km/h (3 Bft) 100,00 %
27.05.2017 16:02 25,2 C 23,9 C 43 % 1018,7 hPa 0,0 l/m 11,3 km/h (2 Bft) NO 44 2 min 0,559 mm 3,4 UV-I 683 W/m 11,7 C 24,1 C 16,1 km/h (3 Bft) 97,56 %
27.05.2017 16:04 25,2 C 23,9 C 47 % 1018,7 hPa 0,0 l/m 14,9 km/h (3 Bft) O-NO 65 2 min 0,000 mm 3,4 UV-I 680 W/m 13,1 C 23,6 C 20,9 km/h (4 Bft) 100,00 %
27.05.2017 16:06 25,2 C 23,9 C 45 % 1018,7 hPa 0,0 l/m 12,1 km/h (2 Bft) NO 37 2 min 0,000 mm 3,3 UV-I 675 W/m 12,4 C 24,0 C 17,7 km/h (3 Bft) 97,87 %
27.05.2017 16:08 25,1 C 23,9 C 46 % 1018,7 hPa 0,0 l/m 7,9 km/h (2 Bft) NO 49 2 min 0,000 mm 3,2 UV-I 669 W/m 12,7 C 24,7 C 14,5 km/h (3 Bft) 100,00 %
27.05.2017 16:10 25,1 C 23,9 C 45 % 1018,7 hPa 0,0 l/m 10,7 km/h (2 Bft) O-NO 69 2 min 0,000 mm 3,2 UV-I 662 W/m 12,3 C 24,1 C 20,9 km/h (4 Bft) 100,00 %
27.05.2017 16:12 25,1 C 23,9 C 47 % 1018,6 hPa 0,0 l/m 10,5 km/h (2 Bft) NO 48 2 min 0,000 mm 3,1 UV-I 661 W/m 13,0 C 24,2 C 17,7 km/h (3 Bft) 100,00 %
27.05.2017 16:14 25,2 C 23,9 C 44 % 1018,6 hPa 0,0 l/m 12,0 km/h (2 Bft) O-NO 66 2 min 0,000 mm 3,1 UV-I 656 W/m 12,1 C 24,0 C 20,9 km/h (4 Bft) 95,74 %
27.05.2017 16:16 25,1 C 23,9 C 43 % 1018,5 hPa 0,0 l/m 17,2 km/h (3 Bft) O-NO 65 2 min 0,000 mm 3,1 UV-I 647 W/m 11,6 C 23,1 C 24,1 km/h (4 Bft) 98,11 %
27.05.2017 16:18 25,0 C 23,9 C 44 % 1018,6 hPa 0,0 l/m 18,2 km/h (3 Bft) O 80 2 min 0,000 mm 3,0 UV-I 642 W/m 11,9 C 22,9 C 20,9 km/h (4 Bft) 100,00 %
27.05.2017 16:20 24,9 C 23,9 C 43 % 1018,5 hPa 0,0 l/m 14,8 km/h (3 Bft) O-NO 68 2 min 0,000 mm 3,0 UV-I 638 W/m 11,4 C 23,2 C 20,9 km/h (4 Bft) 95,74 %
27.05.2017 16:22 24,9 C 23,9 C 44 % 1018,5 hPa 0,0 l/m 16,8 km/h (3 Bft) NO 52 2 min 0,000 mm 2,9 UV-I 633 W/m 11,8 C 22,9 C 20,9 km/h (4 Bft) 100,00 %
27.05.2017 16:24 24,9 C 23,9 C 44 % 1018,5 hPa 0,0 l/m 10,4 km/h (2 Bft) O-NO 71 2 min 0,000 mm 2,9 UV-I 633 W/m 11,8 C 24,0 C 19,3 km/h (3 Bft) 98,31 %
27.05.2017 16:26 25,0 C 23,9 C 43 % 1018,5 hPa 0,0 l/m 8,9 km/h (2 Bft) NO 45 2 min 0,000 mm 2,9 UV-I 629 W/m 11,5 C 24,4 C 16,1 km/h (3 Bft) 95,74 %
27.05.2017 16:28 25,1 C 23,9 C 44 % 1018,6 hPa 0,0 l/m 6,3 km/h (2 Bft) O 95 2 min 0,000 mm 2,8 UV-I 624 W/m 12,0 C 25,1 C 12,9 km/h (3 Bft) 97,56 %
27.05.2017 16:30 25,2 C 23,9 C 44 % 1018,6 hPa 0,0 l/m 5,6 km/h (1 Bft) O-NO 66 2 min 0,000 mm 2,8 UV-I 621 W/m 12,1 C 25,2 C 14,5 km/h (3 Bft) 98,11 %
27.05.2017 16:32 25,2 C 23,9 C 42 % 1018,5 hPa 0,0 l/m 11,0 km/h (2 Bft) O-NO 68 2 min 0,000 mm 2,7 UV-I 615 W/m 11,4 C 24,2 C 17,7 km/h (3 Bft) 98,00 %
27.05.2017 16:34 25,3 C 23,9 C 42 % 1018,5 hPa 0,0 l/m 12,9 km/h (3 Bft) O-NO 77 2 min 0,000 mm 2,7 UV-I 609 W/m 11,5 C 24,0 C 17,7 km/h (3 Bft) 97,37 %
27.05.2017 16:36 25,3 C 23,9 C 41 % 1018,5 hPa 0,0 l/m 14,2 km/h (3 Bft) O-NO 71 2 min 0,000 mm 2,7 UV-I 604 W/m 11,1 C 23,8 C 20,9 km/h (4 Bft) 98,00 %
27.05.2017 16:38 25,3 C 23,9 C 42 % 1018,6 hPa 0,0 l/m 9,9 km/h (2 Bft) NO 34 2 min 0,000 mm 2,6 UV-I 598 W/m 11,5 C 24,5 C 17,7 km/h (3 Bft) 97,73 %
27.05.2017 16:40 25,3 C 23,9 C 42 % 1018,5 hPa 0,0 l/m 8,6 km/h (2 Bft) NO 38 2 min 0,000 mm 2,6 UV-I 594 W/m 11,5 C 24,8 C 12,9 km/h (3 Bft) 100,00 %
27.05.2017 16:42 25,2 C 23,9 C 43 % 1018,5 hPa 0,0 l/m 8,8 km/h (2 Bft) O-NO 66 2 min 0,000 mm 2,5 UV-I 590 W/m 11,7 C 24,6 C 16,1 km/h (3 Bft) 100,00 %
27.05.2017 16:44 25,2 C 23,9 C 45 % 1018,5 hPa 0,0 l/m 12,1 km/h (2 Bft) O 84 2 min 0,000 mm 2,5 UV-I 584 W/m 12,4 C 24,0 C 22,5 km/h (4 Bft) 96,23 %
27.05.2017 16:46 25,2 C 23,9 C 44 % 1018,5 hPa 0,0 l/m 14,2 km/h (3 Bft) O-NO 74 2 min 0,000 mm 2,4 UV-I 576 W/m 12,1 C 23,7 C 19,3 km/h (3 Bft) 97,44 %
27.05.2017 16:48 25,2 C 23,9 C 42 % 1018,5 hPa 0,0 l/m 12,8 km/h (3 Bft) O-NO 59 2 min 0,000 mm 2,4 UV-I 572 W/m 11,4 C 23,9 C 17,7 km/h (3 Bft) 100,00 %
27.05.2017 16:50 25,2 C 23,9 C 46 % 1018,5 hPa 0,0 l/m 8,4 km/h (2 Bft) NO 34 2 min 0,000 mm 2,4 UV-I 568 W/m 12,7 C 24,7 C 16,1 km/h (3 Bft) 98,00 %
27.05.2017 16:52 25,2 C 23,9 C 45 % 1018,4 hPa 0,0 l/m 7,7 km/h (2 Bft) NO 56 2 min 0,000 mm 2,3 UV-I 562 W/m 12,4 C 24,9 C 9,7 km/h (2 Bft) 97,37 %
27.05.2017 16:54 25,2 C 23,9 C 44 % 1018,5 hPa 0,0 l/m 11,9 km/h (2 Bft) O 80 2 min 0,000 mm 2,3 UV-I 557 W/m 12,1 C 24,0 C 17,7 km/h (3 Bft) 100,00 %
27.05.2017 16:56 25,2 C 23,9 C 43 % 1018,3 hPa 0,0 l/m 15,8 km/h (3 Bft) NO 49 2 min 0,000 mm 2,2 UV-I 551 W/m 11,7 C 23,4 C 20,9 km/h (4 Bft) 97,37 %
27.05.2017 16:58 25,1 C 23,9 C 42 % 1018,3 hPa 0,0 l/m 18,1 km/h (3 Bft) O-NO 74 2 min 0,000 mm 2,2 UV-I 545 W/m 11,3 C 23,0 C 22,5 km/h (4 Bft) 96,61 %
27.05.2017 17:00 25,1 C 23,9 C 41 % 1018,3 hPa 0,0 l/m 18,2 km/h (3 Bft) O-NO 65 2 min 0,483 mm 2,2 UV-I 543 W/m 10,9 C 23,0 C 25,7 km/h (4 Bft) 97,87 %
27.05.2017 17:02 25,1 C 23,9 C 44 % 1018,3 hPa 0,0 l/m 13,7 km/h (3 Bft) O-NO 77 2 min 0,000 mm 2,1 UV-I 539 W/m 12,0 C 23,6 C 19,3 km/h (3 Bft) 92,68 %
27.05.2017 17:04 24,9 C 23,9 C 44 % 1018,2 hPa 0,0 l/m 12,4 km/h (3 Bft) O-NO 73 2 min 0,000 mm 2,1 UV-I 532 W/m 11,8 C 23,6 C 16,1 km/h (3 Bft) 97,73 %
27.05.2017 17:06 25,0 C 23,9 C 46 % 1018,2 hPa 0,0 l/m 9,9 km/h (2 Bft) O-NO 69 2 min 0,000 mm 2,0 UV-I 526 W/m 12,6 C 24,2 C 16,1 km/h (3 Bft) 95,45 %
27.05.2017 17:08 25,1 C 23,9 C 44 % 1018,2 hPa 0,0 l/m 12,6 km/h (3 Bft) O 88 2 min 0,000 mm 2,0 UV-I 520 W/m 12,0 C 23,8 C 17,7 km/h (3 Bft) 94,34 %
27.05.2017 17:10 25,1 C 23,9 C 43 % 1018,2 hPa 0,0 l/m 11,1 km/h (2 Bft) O-NO 59 2 min 0,000 mm 1,9 UV-I 514 W/m 11,6 C 24,1 C 17,7 km/h (3 Bft) 97,56 %
27.05.2017 17:12 25,2 C 23,9 C 44 % 1018,2 hPa 0,0 l/m 19,2 km/h (3 Bft) O 84 2 min 0,000 mm 1,9 UV-I 509 W/m 12,1 C 23,0 C 24,1 km/h (4 Bft) 96,23 %
27.05.2017 17:14 25,1 C 23,9 C 43 % 1018,3 hPa 0,0 l/m 15,2 km/h (3 Bft) O-NO 73 2 min 0,000 mm 1,9 UV-I 502 W/m 11,6 C 23,4 C 19,3 km/h (3 Bft) 94,74 %
27.05.2017 17:16 25,1 C 23,9 C 40 % 1018,2 hPa 0,0 l/m 16,6 km/h (3 Bft) O-NO 60 2 min 0,000 mm 1,8 UV-I 494 W/m 10,5 C 23,2 C 20,9 km/h (4 Bft) 94,64 %
27.05.2017 17:18 25,0 C 23,9 C 42 % 1018,2 hPa 0,0 l/m 13,5 km/h (3 Bft) O 80 2 min 0,000 mm 1,8 UV-I 491 W/m 11,2 C 23,5 C 17,7 km/h (3 Bft) 97,73 %
27.05.2017 17:20 25,0 C 23,9 C 42 % 1018,2 hPa 0,0 l/m 11,9 km/h (2 Bft) O-NO 78 2 min 0,000 mm 1,8 UV-I 485 W/m 11,2 C 23,8 C 14,5 km/h (3 Bft) 95,12 %
27.05.2017 17:22 25,1 C 23,9 C 42 % 1018,2 hPa 0,0 l/m 6,0 km/h (2 Bft) O-NO 67 2 min 0,000 mm 1,7 UV-I 479 W/m 11,3 C 25,1 C 9,7 km/h (2 Bft) 95,56 %
27.05.2017 17:24 25,2 C 23,9 C 43 % 1018,2 hPa 0,0 l/m 8,2 km/h (2 Bft) O-NO 76 2 min 0,000 mm 1,7 UV-I 473 W/m 11,7 C 24,8 C 14,5 km/h (3 Bft) 96,55 %
27.05.2017 17:26 25,2 C 23,9 C 42 % 1018,2 hPa 0,0 l/m 9,7 km/h (2 Bft) NO 43 2 min 0,000 mm 1,6 UV-I 470 W/m 11,4 C 24,4 C 14,5 km/h (3 Bft) 96,00 %
27.05.2017 17:28 25,2 C 23,9 C 43 % 1018,2 hPa 0,0 l/m 10,7 km/h (2 Bft) O-NO 59 2 min 0,000 mm 1,6 UV-I 464 W/m 11,7 C 24,3 C 14,5 km/h (3 Bft) 100,00 %
27.05.2017 17:30 25,2 C 23,9 C 41 % 1018,2 hPa 0,0 l/m 9,0 km/h (2 Bft) O 82 2 min 0,000 mm 1,6 UV-I 458 W/m 11,0 C 24,6 C 16,1 km/h (3 Bft) 98,00 %
27.05.2017 17:32 25,2 C 23,9 C 42 % 1018,2 hPa 0,0 l/m 8,6 km/h (2 Bft) N 355 2 min 0,000 mm 1,5 UV-I 452 W/m 11,4 C 24,7 C 12,9 km/h (3 Bft) 97,37 %
27.05.2017 17:34 25,2 C 23,9 C 45 % 1018,2 hPa 0,0 l/m 12,2 km/h (2 Bft) NO 49 2 min 0,000 mm 1,5 UV-I 446 W/m 12,4 C 24,0 C 19,3 km/h (3 Bft) 97,87 %
27.05.2017 17:36 25,1 C 23,9 C 42 % 1018,2 hPa 0,0 l/m 13,7 km/h (3 Bft) O-NO 67 2 min 0,000 mm 1,5 UV-I 441 W/m 11,3 C 23,6 C 20,9 km/h (4 Bft) 98,18 %
27.05.2017 17:38 25,1 C 23,9 C 44 % 1018,2 hPa 0,0 l/m 9,8 km/h (2 Bft) O-NO 71 2 min 0,000 mm 1,4 UV-I 435 W/m 12,0 C 24,3 C 16,1 km/h (3 Bft) 100,00 %
27.05.2017 17:40 25,0 C 23,9 C 43 % 1018,2 hPa 0,0 l/m 9,8 km/h (2 Bft) O-NO 63 2 min 0,000 mm 1,4 UV-I 428 W/m 11,5 C 24,2 C 16,1 km/h (3 Bft) 98,11 %
27.05.2017 17:42 25,0 C 23,9 C 43 % 1018,2 hPa 0,0 l/m 9,1 km/h (2 Bft) O 88 2 min 0,000 mm 1,4 UV-I 423 W/m 11,5 C 24,4 C 14,5 km/h (3 Bft) 100,00 %
27.05.2017 17:44 25,1 C 23,9 C 44 % 1018,2 hPa 0,0 l/m 7,1 km/h (2 Bft) O-NO 71 2 min 0,000 mm 1,3 UV-I 415 W/m 12,0 C 24,9 C 12,9 km/h (3 Bft) 95,74 %
27.05.2017 17:46 25,1 C 23,9 C 46 % 1018,2 hPa 0,0 l/m 12,1 km/h (2 Bft) O-NO 60 2 min 0,000 mm 1,3 UV-I 410 W/m 12,7 C 23,9 C 17,7 km/h (3 Bft) 96,00 %
27.05.2017 17:48 25,1 C 23,9 C 44 % 1018,2 hPa 0,0 l/m 14,8 km/h (3 Bft) O-NO 68 2 min 0,000 mm 1,3 UV-I 406 W/m 12,0 C 23,5 C 19,3 km/h (3 Bft) 94,74 %
27.05.2017 17:50 25,0 C 23,9 C 42 % 1018,2 hPa 0,0 l/m 10,9 km/h (2 Bft) O-NO 59 2 min 0,000 mm 1,2 UV-I 401 W/m 11,2 C 24,0 C 14,5 km/h (3 Bft) 98,00 %
27.05.2017 17:52 24,9 C 23,9 C 44 % 1018,2 hPa 0,0 l/m 8,6 km/h (2 Bft) NO 56 2 min 0,000 mm 1,2 UV-I 394 W/m 11,8 C 24,4 C 12,9 km/h (3 Bft) 96,43 %
27.05.2017 17:54 24,9 C 23,9 C 46 % 1018,2 hPa 0,0 l/m 7,4 km/h (2 Bft) O-NO 57 2 min 0,000 mm 1,2 UV-I 387 W/m 12,5 C 24,6 C 9,7 km/h (2 Bft) 97,14 %
27.05.2017 17:56 24,9 C 23,9 C 47 % 1018,2 hPa 0,0 l/m 8,1 km/h (2 Bft) O-NO 75 2 min 0,000 mm 1,2 UV-I 382 W/m 12,8 C 24,5 C 16,1 km/h (3 Bft) 94,34 %
27.05.2017 17:58 24,9 C 23,9 C 44 % 1018,2 hPa 0,0 l/m 11,0 km/h (2 Bft) O 96 2 min 0,000 mm 1,1 UV-I 376 W/m 11,8 C 23,9 C 20,9 km/h (4 Bft) 96,00 %
27.05.2017 18:00 24,9 C 23,9 C 44 % 1018,1 hPa 0,0 l/m 12,2 km/h (2 Bft) O 90 2 min 0,000 mm 1,1 UV-I 369 W/m 11,8 C 23,6 C 19,3 km/h (3 Bft) 91,49 %
27.05.2017 18:02 24,9 C 23,9 C 45 % 1018,1 hPa 0,0 l/m 13,0 km/h (3 Bft) O-NO 64 2 min 0,381 mm 1,1 UV-I 363 W/m 12,1 C 23,5 C 17,7 km/h (3 Bft) 97,56 %
27.05.2017 18:04 24,9 C 23,9 C 43 % 1018,1 hPa 0,0 l/m 14,1 km/h (3 Bft) O-NO 78 2 min 0,000 mm 1,0 UV-I 357 W/m 11,4 C 23,3 C 19,3 km/h (3 Bft) 94,34 %
27.05.2017 18:06 24,9 C 23,9 C 43 % 1018,1 hPa 0,0 l/m 11,6 km/h (2 Bft) NO 54 2 min 0,000 mm 1,0 UV-I 351 W/m 11,4 C 23,7 C 20,9 km/h (4 Bft) 88,10 %
27.05.2017 18:08 24,8 C 23,9 C 44 % 1018,1 hPa 0,0 l/m 13,7 km/h (3 Bft) NO 55 2 min 0,000 mm 1,0 UV-I 345 W/m 11,7 C 23,3 C 17,7 km/h (3 Bft) 96,15 %
27.05.2017 18:10 24,8 C 23,9 C 44 % 1018,1 hPa 0,0 l/m 9,4 km/h (2 Bft) O-NO 66 2 min 0,000 mm 0,9 UV-I 341 W/m 11,7 C 24,1 C 16,1 km/h (3 Bft) 97,62 %
27.05.2017 18:12 24,8 C 23,9 C 43 % 1018,1 hPa 0,0 l/m 8,2 km/h (2 Bft) O-NO 65 2 min 0,000 mm 0,9 UV-I 337 W/m 11,4 C 24,3 C 14,5 km/h (3 Bft) 96,00 %
27.05.2017 18:14 24,8 C 23,9 C 43 % 1018,2 hPa 0,0 l/m 9,8 km/h (2 Bft) O-NO 63 2 min 0,000 mm 0,9 UV-I 329 W/m 11,4 C 24,0 C 14,5 km/h (3 Bft) 95,12 %
27.05.2017 18:16 24,8 C 23,9 C 46 % 1018,1 hPa 0,0 l/m 7,5 km/h (2 Bft) NO 54 2 min 0,000 mm 0,9 UV-I 322 W/m 12,4 C 24,5 C 14,5 km/h (3 Bft) 96,43 %
27.05.2017 18:18 24,8 C 23,9 C 46 % 1018,2 hPa 0,0 l/m 9,0 km/h (2 Bft) O-NO 61 2 min 0,000 mm 0,8 UV-I 316 W/m 12,4 C 24,2 C 16,1 km/h (3 Bft) 95,45 %
27.05.2017 18:20 24,7 C 23,9 C 45 % 1018,2 hPa 0,0 l/m 8,5 km/h (2 Bft) O-NO 74 2 min 0,000 mm 0,8 UV-I 311 W/m 12,0 C 24,2 C 12,9 km/h (3 Bft) 97,56 %
27.05.2017 18:22 24,8 C 23,9 C 44 % 1018,2 hPa 0,0 l/m 12,4 km/h (3 Bft) O-NO 71 2 min 0,000 mm 0,8 UV-I 304 W/m 11,7 C 23,5 C 17,7 km/h (3 Bft) 95,45 %
27.05.2017 18:24 24,8 C 23,9 C 46 % 1018,2 hPa 0,0 l/m 9,6 km/h (2 Bft) O-NO 71 2 min 0,000 mm 0,8 UV-I 298 W/m 12,4 C 24,0 C 14,5 km/h (3 Bft) 94,00 %
27.05.2017 18:26 24,7 C 23,9 C 44 % 1018,2 hPa 0,0 l/m 11,4 km/h (2 Bft) O 82 2 min 0,000 mm 0,7 UV-I 293 W/m 11,6 C 23,6 C 19,3 km/h (3 Bft) 94,64 %
27.05.2017 18:28 24,7 C 23,9 C 44 % 1018,2 hPa 0,0 l/m 10,5 km/h (2 Bft) O 84 2 min 0,000 mm 0,7 UV-I 288 W/m 11,6 C 23,7 C 14,5 km/h (3 Bft) 97,56 %
27.05.2017 18:30 24,7 C 23,9 C 45 % 1018,2 hPa 0,0 l/m 10,2 km/h (2 Bft) O-NO 61 2 min 0,000 mm 0,7 UV-I 283 W/m 12,0 C 23,8 C 16,1 km/h (3 Bft) 98,11 %
27.05.2017 18:32 24,6 C 23,9 C 45 % 1018,2 hPa 0,0 l/m 12,0 km/h (2 Bft) O-NO 59 2 min 0,000 mm 0,7 UV-I 276 W/m 11,9 C 23,3 C 17,7 km/h (3 Bft) 97,14 %
27.05.2017 18:34 24,6 C 23,9 C 45 % 1018,2 hPa 0,0 l/m 9,7 km/h (2 Bft) O-NO 61 2 min 0,000 mm 0,6 UV-I 270 W/m 11,9 C 23,8 C 17,7 km/h (3 Bft) 94,34 %
27.05.2017 18:36 24,6 C 23,9 C 46 % 1018,2 hPa 0,0 l/m 9,1 km/h (2 Bft) O-NO 74 2 min 0,000 mm 0,6 UV-I 264 W/m 12,2 C 23,9 C 14,5 km/h (3 Bft) 98,00 %
27.05.2017 18:38 24,6 C 23,9 C 46 % 1018,2 hPa 0,0 l/m 8,2 km/h (2 Bft) O-NO 63 2 min 0,000 mm 0,6 UV-I 258 W/m 12,2 C 24,1 C 16,1 km/h (3 Bft) 97,37 %
27.05.2017 18:40 24,6 C 23,9 C 47 % 1018,2 hPa 0,0 l/m 9,7 km/h (2 Bft) O-NO 63 2 min 0,000 mm 0,6 UV-I 252 W/m 12,5 C 23,8 C 12,9 km/h (3 Bft) 98,11 %
27.05.2017 18:42 24,5 C 23,9 C 47 % 1018,2 hPa 0,0 l/m 9,2 km/h (2 Bft) O-NO 60 2 min 0,000 mm 0,6 UV-I 248 W/m 12,4 C 23,8 C 14,5 km/h (3 Bft) 97,44 %
27.05.2017 18:44 24,4 C 23,9 C 45 % 1018,2 hPa 0,0 l/m 7,9 km/h (2 Bft) O-NO 76 2 min 0,000 mm 0,5 UV-I 242 W/m 11,7 C 24,0 C 14,5 km/h (3 Bft) 98,00 %
27.05.2017 18:46 24,5 C 23,9 C 45 % 1018,2 hPa 0,0 l/m 11,4 km/h (2 Bft) O 82 2 min 0,000 mm 0,5 UV-I 236 W/m 11,8 C 23,3 C 16,1 km/h (3 Bft) 98,00 %
27.05.2017 18:48 24,5 C 23,9 C 46 % 1018,2 hPa 0,0 l/m 11,6 km/h (2 Bft) O-NO 73 2 min 0,000 mm 0,5 UV-I 230 W/m 12,1 C 23,3 C 20,9 km/h (4 Bft) 92,00 %
27.05.2017 18:50 24,4 C 23,9 C 46 % 1018,2 hPa 0,0 l/m 13,7 km/h (3 Bft) O-NO 65 2 min 0,000 mm 0,5 UV-I 225 W/m 12,0 C 22,8 C 20,9 km/h (4 Bft) 97,37 %
27.05.2017 18:52 24,4 C 23,9 C 46 % 1018,1 hPa 0,0 l/m 15,2 km/h (3 Bft) O 88 2 min 0,000 mm 0,5 UV-I 219 W/m 12,0 C 22,5 C 19,3 km/h (3 Bft) 92,45 %
27.05.2017 18:54 24,4 C 23,9 C 46 % 1018,1 hPa 0,0 l/m 10,8 km/h (2 Bft) O 98 2 min 0,000 mm 0,2 UV-I 213 W/m 12,0 C 23,3 C 17,7 km/h (3 Bft) 94,34 %
27.05.2017 18:56 24,3 C 23,9 C 46 % 1018,1 hPa 0,0 l/m 15,3 km/h (3 Bft) O 84 2 min 0,000 mm 0,0 UV-I 207 W/m 11,9 C 22,4 C 20,9 km/h (4 Bft) 94,74 %
27.05.2017 18:58 24,3 C 23,9 C 46 % 1018,1 hPa 0,0 l/m 15,0 km/h (3 Bft) O-NO 70 2 min 0,000 mm 0,0 UV-I 202 W/m 11,9 C 22,5 C 20,9 km/h (4 Bft) 98,00 %
27.05.2017 19:00 24,2 C 23,9 C 46 % 1018,1 hPa 0,0 l/m 14,2 km/h (3 Bft) O 93 2 min 0,000 mm 0,0 UV-I 196 W/m 11,8 C 22,5 C 20,9 km/h (4 Bft) 98,00 %
27.05.2017 19:02 24,2 C 23,9 C 46 % 1018,1 hPa 0,0 l/m 12,9 km/h (3 Bft) O-NO 60 2 min 0,279 mm 0,0 UV-I 192 W/m 11,8 C 22,7 C 17,7 km/h (3 Bft) 94,29 %
27.05.2017 19:04 24,2 C 23,9 C 46 % 1018,2 hPa 0,0 l/m 10,8 km/h (2 Bft) O-SO 105 2 min 0,000 mm 0,0 UV-I 186 W/m 11,8 C 23,1 C 19,3 km/h (3 Bft) 96,61 %
27.05.2017 19:06 24,2 C 23,9 C 46 % 1018,2 hPa 0,0 l/m 8,6 km/h (2 Bft) O-SO 102 2 min 0,000 mm 0,0 UV-I 181 W/m 11,8 C 23,6 C 12,9 km/h (3 Bft) 97,56 %
27.05.2017 19:08 24,2 C 23,9 C 47 % 1018,1 hPa 0,0 l/m 7,6 km/h (2 Bft) O-NO 70 2 min 0,000 mm 0,0 UV-I 176 W/m 12,2 C 23,9 C 12,9 km/h (3 Bft) 98,00 %
27.05.2017 19:10 24,1 C 23,9 C 45 % 1018,1 hPa 0,0 l/m 11,0 km/h (2 Bft) O-NO 71 2 min 0,000 mm 0,0 UV-I 172 W/m 11,4 C 23,0 C 16,1 km/h (3 Bft) 94,59 %
27.05.2017 19:12 24,1 C 23,9 C 46 % 1018,1 hPa 0,0 l/m 9,8 km/h (2 Bft) O 92 2 min 0,000 mm 0,0 UV-I 166 W/m 11,7 C 23,2 C 14,5 km/h (3 Bft) 96,43 %
27.05.2017 19:14 24,1 C 23,9 C 46 % 1018,1 hPa 0,0 l/m 7,7 km/h (2 Bft) O 90 2 min 0,000 mm 0,0 UV-I 162 W/m 11,7 C 23,7 C 14,5 km/h (3 Bft) 96,00 %
27.05.2017 19:16 24,1 C 23,9 C 45 % 1018,0 hPa 0,0 l/m 9,4 km/h (2 Bft) O 81 2 min 0,000 mm 0,0 UV-I 157 W/m 11,4 C 23,3 C 16,1 km/h (3 Bft) 97,73 %
27.05.2017 19:18 24,1 C 23,9 C 45 % 1018,0 hPa 0,0 l/m 7,4 km/h (2 Bft) O-NO 75 2 min 0,000 mm 0,0 UV-I 152 W/m 11,4 C 23,8 C 14,5 km/h (3 Bft) 96,00 %
27.05.2017 19:20 24,1 C 23,9 C 47 % 1018,0 hPa 0,0 l/m 6,0 km/h (2 Bft) O 82 2 min 0,000 mm 0,0 UV-I 148 W/m 12,1 C 24,1 C 9,7 km/h (2 Bft) 97,50 %
27.05.2017 19:22 24,1 C 23,9 C 47 % 1018,0 hPa 0,0 l/m 8,7 km/h (2 Bft) O 82 2 min 0,000 mm 0,0 UV-I 143 W/m 12,1 C 23,5 C 14,5 km/h (3 Bft) 95,24 %
27.05.2017 19:24 24,0 C 23,9 C 47 % 1018,0 hPa 0,0 l/m 6,5 km/h (2 Bft) O-NO 61 2 min 0,000 mm 0,0 UV-I 139 W/m 12,0 C 24,0 C 9,7 km/h (2 Bft) 97,37 %
27.05.2017 19:26 23,9 C 23,9 C 47 % 1018,0 hPa 0,0 l/m 7,9 km/h (2 Bft) O-NO 71 2 min 0,000 mm 0,0 UV-I 134 W/m 11,9 C 23,5 C 12,9 km/h (3 Bft) 96,92 %
27.05.2017 19:28 23,9 C 23,9 C 48 % 1018,0 hPa 0,0 l/m 7,7 km/h (2 Bft) O 85 2 min 0,000 mm 0,0 UV-I 129 W/m 12,2 C 23,5 C 11,3 km/h (2 Bft) 100,00 %
27.05.2017 19:30 23,8 C 23,9 C 48 % 1018,0 hPa 0,0 l/m 8,4 km/h (2 Bft) O-NO 74 2 min 0,000 mm 0,0 UV-I 124 W/m 12,1 C 23,2 C 11,3 km/h (2 Bft) 100,00 %
27.05.2017 19:32 23,7 C 23,9 C 48 % 1018,1 hPa 0,0 l/m 9,5 km/h (2 Bft) O-NO 71 2 min 0,000 mm 0,0 UV-I 120 W/m 12,0 C 22,8 C 16,1 km/h (3 Bft) 98,21 %
27.05.2017 19:34 23,7 C 23,9 C 48 % 1018,1 hPa 0,0 l/m 9,2 km/h (2 Bft) O 80 2 min 0,000 mm 0,0 UV-I 115 W/m 12,0 C 22,9 C 12,9 km/h (3 Bft) 95,45 %
27.05.2017 19:36 23,6 C 23,9 C 49 % 1018,1 hPa 0,0 l/m 10,6 km/h (2 Bft) O-NO 69 2 min 0,000 mm 0,0 UV-I 111 W/m 12,2 C 22,5 C 12,9 km/h (3 Bft) 96,23 %
27.05.2017 19:38 23,6 C 23,9 C 49 % 1018,1 hPa 0,0 l/m 9,3 km/h (2 Bft) O-NO 78 2 min 0,000 mm 0,0 UV-I 107 W/m 12,2 C 22,8 C 14,5 km/h (3 Bft) 95,74 %
27.05.2017 19:40 23,4 C 23,9 C 50 % 1018,1 hPa 0,0 l/m 10,0 km/h (2 Bft) O-NO 78 2 min 0,000 mm 0,0 UV-I 103 W/m 12,4 C 22,4 C 14,5 km/h (3 Bft) 97,87 %
27.05.2017 19:42 23,4 C 23,9 C 50 % 1018,1 hPa 0,0 l/m 10,5 km/h (2 Bft) O-NO 68 2 min 0,000 mm 0,0 UV-I 99 W/m 12,4 C 22,3 C 14,5 km/h (3 Bft) 100,00 %
27.05.2017 19:44 23,3 C 23,9 C 49 % 1018,1 hPa 0,0 l/m 10,3 km/h (2 Bft) O-NO 69 2 min 0,000 mm 0,0 UV-I 95 W/m 12,0 C 22,2 C 16,1 km/h (3 Bft) 98,11 %
27.05.2017 19:46 23,3 C 23,9 C 50 % 1018,1 hPa 0,0 l/m 8,6 km/h (2 Bft) O 83 2 min 0,000 mm 0,0 UV-I 91 W/m 12,3 C 22,6 C 12,9 km/h (3 Bft) 95,12 %
27.05.2017 19:48 23,2 C 23,9 C 51 % 1018,1 hPa 0,0 l/m 7,8 km/h (2 Bft) O-NO 68 2 min 0,000 mm 0,0 UV-I 86 W/m 12,5 C 22,8 C 14,5 km/h (3 Bft) 98,21 %
27.05.2017 19:50 23,1 C 23,9 C 53 % 1018,1 hPa 0,0 l/m 6,9 km/h (2 Bft) O-SO 109 2 min 0,000 mm 0,0 UV-I 84 W/m 13,0 C 22,9 C 9,7 km/h (2 Bft) 100,00 %
27.05.2017 19:52 23,1 C 23,9 C 52 % 1018,2 hPa 0,0 l/m 6,1 km/h (2 Bft) O 91 2 min 0,000 mm 0,0 UV-I 80 W/m 12,7 C 23,1 C 11,3 km/h (2 Bft) 100,00 %
27.05.2017 19:54 23,0 C 23,9 C 51 % 1018,2 hPa 0,0 l/m 8,4 km/h (2 Bft) O-NO 67 2 min 0,000 mm 0,0 UV-I 76 W/m 12,3 C 22,4 C 14,5 km/h (3 Bft) 100,00 %
27.05.2017 19:56 22,9 C 23,9 C 51 % 1018,2 hPa 0,0 l/m 6,1 km/h (2 Bft) O 84 2 min 0,000 mm 0,0 UV-I 72 W/m 12,2 C 22,9 C 11,3 km/h (2 Bft) 89,47 %
27.05.2017 19:58 22,9 C 23,9 C 52 % 1018,2 hPa 0,0 l/m 7,1 km/h (2 Bft) O 91 2 min 0,000 mm 0,0 UV-I 68 W/m 12,5 C 22,7 C 11,3 km/h (2 Bft) 95,24 %
27.05.2017 20:00 22,8 C 23,9 C 52 % 1018,2 hPa 0,0 l/m 5,8 km/h (2 Bft) O-SO 103 2 min 0,000 mm 0,0 UV-I 65 W/m 12,4 C 22,8 C 11,3 km/h (2 Bft) 98,00 %
27.05.2017 20:02 22,7 C 23,9 C 52 % 1018,2 hPa 0,0 l/m 6,4 km/h (2 Bft) O-NO 59 2 min 0,152 mm 0,0 UV-I 62 W/m 12,3 C 22,7 C 11,3 km/h (2 Bft) 100,00 %
27.05.2017 20:04 22,6 C 23,9 C 53 % 1018,2 hPa 0,0 l/m 5,3 km/h (1 Bft) O 84 2 min 0,000 mm 0,0 UV-I 57 W/m 12,5 C 22,6 C 9,7 km/h (2 Bft) 100,00 %
27.05.2017 20:06 22,5 C 23,9 C 53 % 1018,2 hPa 0,0 l/m 6,0 km/h (2 Bft) O-NO 65 2 min 0,000 mm 0,0 UV-I 54 W/m 12,4 C 22,5 C 11,3 km/h (2 Bft) 100,00 %
27.05.2017 20:08 22,4 C 23,9 C 53 % 1018,1 hPa 0,0 l/m 7,5 km/h (2 Bft) O-NO 74 2 min 0,000 mm 0,0 UV-I 51 W/m 12,3 C 22,0 C 12,9 km/h (3 Bft) 97,87 %
27.05.2017 20:10 22,3 C 23,9 C 53 % 1018,1 hPa 0,0 l/m 6,1 km/h (2 Bft) O-NO 68 0 min 0,000 mm 0,0 UV-I 47 W/m 12,2 C 22,3 C 9,7 km/h (2 Bft) 96,00 %
27.05.2017 20:12 22,3 C 23,9 C 53 % 1018,1 hPa 0,0 l/m 6,1 km/h (2 Bft) O-NO 71 0 min 0,000 mm 0,0 UV-I 44 W/m 12,2 C 22,3 C 8,0 km/h (2 Bft) 93,62 %
27.05.2017 20:14 22,2 C 23,9 C 53 % 1018,1 hPa 0,0 l/m 6,4 km/h (2 Bft) O 81 0 min 0,000 mm 0,0 UV-I 41 W/m 12,2 C 22,2 C 11,3 km/h (2 Bft) 100,00 %
27.05.2017 20:16 22,2 C 23,9 C 54 % 1018,1 hPa 0,0 l/m 7,7 km/h (2 Bft) O-NO 73 2 min 0,000 mm 0,0 UV-I 39 W/m 12,4 C 21,8 C 11,3 km/h (2 Bft) 95,12 %
27.05.2017 20:18 22,1 C 23,9 C 54 % 1018,1 hPa 0,0 l/m 7,2 km/h (2 Bft) O-NO 67 2 min 0,000 mm 0,0 UV-I 36 W/m 12,3 C 21,8 C 11,3 km/h (2 Bft) 92,45 %
27.05.2017 20:20 21,9 C 23,9 C 54 % 1018,1 hPa 0,0 l/m 8,1 km/h (2 Bft) O-NO 78 0 min 0,000 mm 0,0 UV-I 33 W/m 12,2 C 21,3 C 11,3 km/h (2 Bft) 97,73 %
27.05.2017 20:22 21,8 C 23,9 C 54 % 1018,1 hPa 0,0 l/m 7,1 km/h (2 Bft) O-NO 77 2 min 0,000 mm 0,0 UV-I 32 W/m 12,1 C 21,6 C 9,7 km/h (2 Bft) 100,00 %
27.05.2017 20:24 21,7 C 23,9 C 55 % 1018,1 hPa 0,0 l/m 5,8 km/h (2 Bft) O-NO 65 2 min 0,000 mm 0,0 UV-I 29 W/m 12,3 C 21,7 C 8,0 km/h (2 Bft) 97,56 %
27.05.2017 20:26 21,6 C 23,9 C 54 % 1018,2 hPa 0,0 l/m 6,3 km/h (2 Bft) O-NO 71 2 min 0,000 mm 0,0 UV-I 27 W/m 11,9 C 21,6 C 11,3 km/h (2 Bft) 100,00 %
27.05.2017 20:28 21,6 C 23,9 C 55 % 1018,2 hPa 0,0 l/m 5,7 km/h (1 Bft) O 90 2 min 0,000 mm 0,0 UV-I 25 W/m 12,2 C 21,6 C 9,7 km/h (2 Bft) 100,00 %
27.05.2017 20:30 21,6 C 23,9 C 55 % 1018,2 hPa 0,0 l/m 6,4 km/h (2 Bft) O 91 2 min 0,000 mm 0,0 UV-I 23 W/m 12,2 C 21,6 C 8,0 km/h (2 Bft) 100,00 %
27.05.2017 20:32 21,5 C 23,9 C 54 % 1018,2 hPa 0,0 l/m 6,8 km/h (2 Bft) O 82 2 min 0,000 mm 0,0 UV-I 18 W/m 11,8 C 21,4 C 9,7 km/h (2 Bft) 98,00 %
27.05.2017 20:34 21,4 C 23,9 C 55 % 1018,3 hPa 0,0 l/m 5,8 km/h (2 Bft) O-NO 78 2 min 0,000 mm 0,0 UV-I 17 W/m 12,0 C 21,4 C 9,7 km/h (2 Bft) 100,00 %
27.05.2017 20:36 21,4 C 23,9 C 55 % 1018,3 hPa 0,0 l/m 5,6 km/h (1 Bft) O-NO 71 2 min 0,000 mm 0,0 UV-I 16 W/m 12,0 C 21,4 C 8,0 km/h (2 Bft) 98,00 %
27.05.2017 20:38 21,3 C 23,9 C 55 % 1018,3 hPa 0,0 l/m 6,4 km/h (2 Bft) O 86 2 min 0,000 mm 0,0 UV-I 14 W/m 11,9 C 21,3 C 11,3 km/h (2 Bft) 100,00 %
27.05.2017 20:40 21,3 C 23,9 C 55 % 1018,3 hPa 0,0 l/m 6,4 km/h (2 Bft) O-NO 78 0 min 0,000 mm 0,0 UV-I 14 W/m 11,9 C 21,3 C 8,0 km/h (2 Bft) 97,87 %
27.05.2017 20:42 21,3 C 23,9 C 55 % 1018,3 hPa 0,0 l/m 5,7 km/h (1 Bft) O-NO 71 0 min 0,000 mm 0,0 UV-I 13 W/m 11,9 C 21,3 C 8,0 km/h (2 Bft) 98,18 %
27.05.2017 20:44 21,2 C 23,9 C 55 % 1018,3 hPa 0,0 l/m 5,4 km/h (1 Bft) O 80 0 min 0,000 mm 0,0 UV-I 12 W/m 11,8 C 21,2 C 6,4 km/h (2 Bft) 100,00 %
27.05.2017 20:46 21,1 C 23,9 C 56 % 1018,4 hPa 0,0 l/m 4,7 km/h (1 Bft) O-NO 76 0 min 0,000 mm 0,0 UV-I 11 W/m 12,0 C 21,1 C 8,0 km/h (2 Bft) 100,00 %
27.05.2017 20:48 21,1 C 23,9 C 56 % 1018,4 hPa 0,0 l/m 4,5 km/h (1 Bft) O-NO 76 0 min 0,000 mm 0,0 UV-I 11 W/m 12,0 C 21,1 C 6,4 km/h (2 Bft) 100,00 %
27.05.2017 20:50 21,0 C 23,9 C 56 % 1018,4 hPa 0,0 l/m 4,9 km/h (1 Bft) O-NO 78 0 min 0,000 mm 0,0 UV-I 10 W/m 11,9 C 21,0 C 6,4 km/h (2 Bft) 97,56 %
27.05.2017 20:52 20,9 C 23,9 C 56 % 1018,5 hPa 0,0 l/m 5,0 km/h (1 Bft) O-NO 78 0 min 0,000 mm 0,0 UV-I 9 W/m 11,8 C 20,9 C 6,4 km/h (2 Bft) 98,00 %
27.05.2017 20:54 20,9 C 23,9 C 56 % 1018,5 hPa 0,0 l/m 3,8 km/h (1 Bft) O-NO 78 0 min 0,000 mm 0,0 UV-I 8 W/m 11,8 C 20,9 C 4,8 km/h (1 Bft) 94,00 %
27.05.2017 20:56 20,8 C 23,9 C 56 % 1018,6 hPa 0,0 l/m 4,8 km/h (1 Bft) O 89 0 min 0,000 mm 0,0 UV-I 7 W/m 11,7 C 20,8 C 6,4 km/h (2 Bft) 95,83 %
27.05.2017 20:58 20,8 C 23,9 C 56 % 1018,5 hPa 0,0 l/m 4,0 km/h (1 Bft) O 80 0 min 0,000 mm 0,0 UV-I 7 W/m 11,7 C 20,8 C 6,4 km/h (2 Bft) 94,29 %
27.05.2017 21:00 20,8 C 23,9 C 57 % 1018,5 hPa 0,0 l/m 3,9 km/h (1 Bft) O 80 0 min 0,000 mm 0,0 UV-I 7 W/m 12,0 C 20,8 C 6,4 km/h (2 Bft) 98,00 %
27.05.2017 21:02 20,7 C 23,9 C 57 % 1018,5 hPa 0,0 l/m 4,0 km/h (1 Bft) O 80 0 min 0,051 mm 0,0 UV-I 5 W/m 11,9 C 20,7 C 6,4 km/h (2 Bft) 94,74 %
27.05.2017 21:04 20,7 C 23,9 C 57 % 1018,5 hPa 0,0 l/m 4,0 km/h (1 Bft) O 80 0 min 0,000 mm 0,0 UV-I 5 W/m 11,9 C 20,7 C 6,4 km/h (2 Bft) 96,92 %
27.05.2017 21:06 20,6 C 23,9 C 57 % 1018,6 hPa 0,0 l/m 4,3 km/h (1 Bft) O 80 0 min 0,000 mm 0,0 UV-I 5 W/m 11,8 C 20,6 C 4,8 km/h (1 Bft) 97,87 %
27.05.2017 21:08 20,5 C 23,9 C 58 % 1018,6 hPa 0,0 l/m 3,9 km/h (1 Bft) O 80 0 min 0,000 mm 0,0 UV-I 5 W/m 11,9 C 20,5 C 6,4 km/h (2 Bft) 92,68 %
27.05.2017 21:10 20,4 C 23,9 C 58 % 1018,7 hPa 0,0 l/m 4,8 km/h (1 Bft) O-NO 73 0 min 0,000 mm 0,0 UV-I 4 W/m 11,9 C 20,4 C 6,4 km/h (2 Bft) 96,00 %
27.05.2017 21:12 20,3 C 23,9 C 58 % 1018,6 hPa 0,0 l/m 4,9 km/h (1 Bft) O-NO 73 0 min 0,000 mm 0,0 UV-I 0 W/m 11,8 C 20,3 C 6,4 km/h (2 Bft) 94,00 %
27.05.2017 21:14 20,3 C 23,9 C 59 % 1018,7 hPa 0,0 l/m 4,5 km/h (1 Bft) O-NO 73 0 min 0,000 mm 0,0 UV-I 0 W/m 12,0 C 20,3 C 6,4 km/h (2 Bft) 97,56 %
27.05.2017 21:16 20,2 C 23,9 C 59 % 1018,7 hPa 0,0 l/m 5,0 km/h (1 Bft) O-NO 73 0 min 0,000 mm 0,0 UV-I 0 W/m 11,9 C 20,2 C 6,4 km/h (2 Bft) 96,00 %
27.05.2017 21:18 20,1 C 23,9 C 60 % 1018,7 hPa 0,0 l/m 4,6 km/h (1 Bft) O-NO 73 0 min 0,000 mm 0,0 UV-I 0 W/m 12,1 C 20,1 C 6,4 km/h (2 Bft) 96,00 %
27.05.2017 21:20 20,0 C 23,9 C 60 % 1018,7 hPa 0,0 l/m 4,2 km/h (1 Bft) O-NO 71 0 min 0,000 mm 0,0 UV-I 0 W/m 12,0 C 20,0 C 6,4 km/h (2 Bft) 95,74 %
27.05.2017 21:22 19,9 C 23,9 C 60 % 1018,7 hPa 0,0 l/m 5,3 km/h (1 Bft) O-NO 73 0 min 0,000 mm 0,0 UV-I 0 W/m 11,9 C 19,9 C 6,4 km/h (2 Bft) 95,74 %
27.05.2017 21:24 19,8 C 23,9 C 60 % 1018,7 hPa 0,0 l/m 5,8 km/h (2 Bft) O 84 0 min 0,000 mm 0,0 UV-I 0 W/m 11,8 C 19,8 C 8,0 km/h (2 Bft) 100,00 %
27.05.2017 21:26 19,8 C 23,9 C 60 % 1018,7 hPa 0,0 l/m 4,8 km/h (1 Bft) O-NO 75 0 min 0,000 mm 0,0 UV-I 0 W/m 11,8 C 19,8 C 6,4 km/h (2 Bft) 98,00 %
27.05.2017 21:28 19,8 C 23,9 C 60 % 1018,8 hPa 0,0 l/m 5,0 km/h (1 Bft) O 81 0 min 0,000 mm 0,0 UV-I 0 W/m 11,8 C 19,8 C 8,0 km/h (2 Bft) 98,00 %
27.05.2017 21:30 19,7 C 23,9 C 60 % 1018,8 hPa 0,0 l/m 5,1 km/h (1 Bft) O 80 0 min 0,000 mm 0,0 UV-I 0 W/m 11,7 C 19,7 C 6,4 km/h (2 Bft) 95,45 %
27.05.2017 21:32 19,7 C 23,9 C 60 % 1018,8 hPa 0,0 l/m 5,1 km/h (1 Bft) O 88 0 min 0,000 mm 0,0 UV-I 0 W/m 11,7 C 19,7 C 8,0 km/h (2 Bft) 100,00 %
27.05.2017 21:34 19,7 C 23,9 C 59 % 1018,9 hPa 0,0 l/m 5,2 km/h (1 Bft) O 80 0 min 0,000 mm 0,0 UV-I 0 W/m 11,5 C 19,7 C 9,7 km/h (2 Bft) 97,37 %
27.05.2017 21:36 19,7 C 23,9 C 59 % 1018,9 hPa 0,0 l/m 6,2 km/h (2 Bft) O-NO 69 0 min 0,000 mm 0,0 UV-I 0 W/m 11,5 C 19,7 C 9,7 km/h (2 Bft) 100,00 %
27.05.2017 21:38 19,8 C 23,9 C 59 % 1018,9 hPa 0,0 l/m 5,8 km/h (2 Bft) O-NO 77 0 min 0,000 mm 0,0 UV-I 0 W/m 11,6 C 19,8 C 8,0 km/h (2 Bft) 97,87 %
27.05.2017 21:40 19,8 C 23,9 C 59 % 1019,0 hPa 0,0 l/m 6,4 km/h (2 Bft) O 79 0 min 0,000 mm 0,0 UV-I 0 W/m 11,6 C 19,8 C 12,9 km/h (3 Bft) 97,37 %
27.05.2017 21:42 19,8 C 23,9 C 59 % 1019,0 hPa 0,0 l/m 7,2 km/h (2 Bft) O-NO 75 0 min 0,000 mm 0,0 UV-I 0 W/m 11,6 C 19,5 C 12,9 km/h (3 Bft) 98,11 %
27.05.2017 21:44 19,8 C 23,9 C 59 % 1019,0 hPa 0,0 l/m 9,7 km/h (2 Bft) O 83 0 min 0,000 mm 0,0 UV-I 0 W/m 11,6 C 18,5 C 12,9 km/h (3 Bft) 97,56 %
27.05.2017 21:46 19,8 C 23,9 C 59 % 1019,0 hPa 0,0 l/m 6,9 km/h (2 Bft) O-NO 78 0 min 0,000 mm 0,0 UV-I 0 W/m 11,6 C 19,6 C 11,3 km/h (2 Bft) 100,00 %
27.05.2017 21:48 19,8 C 23,9 C 59 % 1019,1 hPa 0,0 l/m 6,5 km/h (2 Bft) O 89 0 min 0,000 mm 0,0 UV-I 0 W/m 11,6 C 19,8 C 9,7 km/h (2 Bft) 97,87 %
27.05.2017 21:50 19,8 C 23,9 C 59 % 1019,1 hPa 0,0 l/m 7,2 km/h (2 Bft) O 84 0 min 0,000 mm 0,0 UV-I 0 W/m 11,6 C 19,5 C 11,3 km/h (2 Bft) 97,87 %
27.05.2017 21:52 19,8 C 23,9 C 59 % 1019,1 hPa 0,0 l/m 8,5 km/h (2 Bft) O-NO 67 0 min 0,000 mm 0,0 UV-I 0 W/m 11,6 C 18,9 C 12,9 km/h (3 Bft) 94,74 %
27.05.2017 21:54 19,7 C 23,9 C 59 % 1019,1 hPa 0,0 l/m 7,3 km/h (2 Bft) O 79 0 min 0,000 mm 0,0 UV-I 0 W/m 11,5 C 19,3 C 11,3 km/h (2 Bft) 94,00 %
27.05.2017 21:56 19,7 C 23,9 C 59 % 1019,1 hPa 0,0 l/m 7,6 km/h (2 Bft) O 84 0 min 0,000 mm 0,0 UV-I 0 W/m 11,5 C 19,2 C 11,3 km/h (2 Bft) 94,00 %
27.05.2017 21:58 19,7 C 23,9 C 59 % 1019,1 hPa 0,0 l/m 8,7 km/h (2 Bft) NO 53 0 min 0,000 mm 0,0 UV-I 0 W/m 11,5 C 18,8 C 12,9 km/h (3 Bft) 97,44 %
27.05.2017 22:00 19,7 C 23,9 C 59 % 1019,1 hPa 0,0 l/m 7,3 km/h (2 Bft) O 85 0 min 0,051 mm 0,0 UV-I 0 W/m 11,5 C 19,3 C 11,3 km/h (2 Bft) 96,23 %
27.05.2017 22:02 19,7 C 23,9 C 59 % 1019,1 hPa 0,0 l/m 7,6 km/h (2 Bft) O 85 0 min 0,000 mm 0,0 UV-I 0 W/m 11,5 C 19,2 C 11,3 km/h (2 Bft) 94,74 %
27.05.2017 22:04 19,7 C 23,9 C 59 % 1019,1 hPa 0,0 l/m 8,4 km/h (2 Bft) O-NO 71 0 min 0,000 mm 0,0 UV-I 0 W/m 11,5 C 18,9 C 12,9 km/h (3 Bft) 100,00 %
27.05.2017 22:06 19,6 C 23,9 C 60 % 1019,1 hPa 0,0 l/m 8,3 km/h (2 Bft) O-NO 72 0 min 0,000 mm 0,0 UV-I 0 W/m 11,6 C 18,8 C 12,9 km/h (3 Bft) 95,59 %
27.05.2017 22:08 19,5 C 23,9 C 60 % 1019,1 hPa 0,0 l/m 8,5 km/h (2 Bft) O 83 0 min 0,000 mm 0,0 UV-I 0 W/m 11,5 C 18,6 C 11,3 km/h (2 Bft) 96,23 %
27.05.2017 22:10 19,4 C 23,9 C 60 % 1019,1 hPa 0,0 l/m 7,5 km/h (2 Bft) O-NO 70 0 min 0,000 mm 0,0 UV-I 0 W/m 11,4 C 18,9 C 11,3 km/h (2 Bft) 95,45 %
27.05.2017 22:12 19,3 C 23,9 C 61 % 1019,2 hPa 0,0 l/m 7,4 km/h (2 Bft) O-NO 73 0 min 0,000 mm 0,0 UV-I 0 W/m 11,6 C 18,9 C 11,3 km/h (2 Bft) 96,23 %
27.05.2017 22:14 19,2 C 23,9 C 61 % 1019,2 hPa 0,0 l/m 5,9 km/h (2 Bft) O 92 0 min 0,000 mm 0,0 UV-I 0 W/m 11,5 C 19,2 C 11,3 km/h (2 Bft) 97,56 %
27.05.2017 22:16 19,2 C 23,3 C 61 % 1019,2 hPa 0,0 l/m 5,2 km/h (1 Bft) O 79 0 min 0,000 mm 0,0 UV-I 0 W/m 11,5 C 19,2 C 12,9 km/h (3 Bft) 98,11 %
27.05.2017 22:18 19,1 C 23,3 C 62 % 1019,3 hPa 0,0 l/m 4,5 km/h (1 Bft) O-NO 72 0 min 0,000 mm 0,0 UV-I 0 W/m 11,6 C 19,1 C 6,4 km/h (2 Bft) 94,29 %
27.05.2017 22:20 19,1 C 23,3 C 61 % 1019,3 hPa 0,0 l/m 5,9 km/h (2 Bft) O-NO 72 0 min 0,000 mm 0,0 UV-I 0 W/m 11,4 C 19,1 C 9,7 km/h (2 Bft) 96,23 %
27.05.2017 22:22 19,0 C 23,3 C 62 % 1019,3 hPa 0,0 l/m 6,1 km/h (2 Bft) O-NO 69 0 min 0,000 mm 0,0 UV-I 0 W/m 11,6 C 19,0 C 8,0 km/h (2 Bft) 100,00 %
27.05.2017 22:24 18,9 C 23,3 C 62 % 1019,3 hPa 0,0 l/m 6,1 km/h (2 Bft) O 85 0 min 0,000 mm 0,0 UV-I 0 W/m 11,5 C 18,9 C 8,0 km/h (2 Bft) 96,23 %
27.05.2017 22:26 18,9 C 23,3 C 62 % 1019,3 hPa 0,0 l/m 5,8 km/h (2 Bft) O-NO 74 0 min 0,000 mm 0,0 UV-I 0 W/m 11,5 C 18,9 C 11,3 km/h (2 Bft) 97,50 %
27.05.2017 22:28 18,9 C 23,3 C 62 % 1019,3 hPa 0,0 l/m 5,1 km/h (1 Bft) O-NO 63 0 min 0,000 mm 0,0 UV-I 0 W/m 11,5 C 18,9 C 8,0 km/h (2 Bft) 96,00 %
27.05.2017 22:30 18,8 C 23,3 C 62 % 1019,3 hPa 0,0 l/m 4,5 km/h (1 Bft) O-NO 78 0 min 0,000 mm 0,0 UV-I 0 W/m 11,4 C 18,8 C 6,4 km/h (2 Bft) 97,56 %
27.05.2017 22:32 18,8 C 23,3 C 62 % 1019,4 hPa 0,0 l/m 4,1 km/h (1 Bft) O-NO 69 0 min 0,000 mm 0,0 UV-I 0 W/m 11,4 C 18,8 C 6,4 km/h (2 Bft) 96,23 %
27.05.2017 22:34 18,7 C 23,3 C 63 % 1019,4 hPa 0,0 l/m 2,8 km/h (1 Bft) O-NO 68 0 min 0,000 mm 0,0 UV-I 0 W/m 11,5 C 18,7 C 4,8 km/h (1 Bft) 94,00 %
27.05.2017 22:36 18,6 C 23,3 C 63 % 1019,4 hPa 0,0 l/m 3,4 km/h (1 Bft) O-NO 76 0 min 0,000 mm 0,0 UV-I 0 W/m 11,4 C 18,6 C 4,8 km/h (1 Bft) 98,00 %
27.05.2017 22:38 18,5 C 23,3 C 64 % 1019,5 hPa 0,0 l/m 5,1 km/h (1 Bft) O-NO 76 0 min 0,000 mm 0,0 UV-I 0 W/m 11,6 C 18,5 C 8,0 km/h (2 Bft) 92,59 %
27.05.2017 22:40 18,5 C 23,3 C 64 % 1019,5 hPa 0,0 l/m 3,9 km/h (1 Bft) O-NO 76 0 min 0,000 mm 0,0 UV-I 0 W/m 11,6 C 18,5 C 6,4 km/h (2 Bft) 98,51 %
27.05.2017 22:42 18,4 C 23,3 C 64 % 1019,5 hPa 0,0 l/m 4,7 km/h (1 Bft) O-NO 64 0 min 0,000 mm 0,0 UV-I 0 W/m 11,5 C 18,4 C 6,4 km/h (2 Bft) 92,86 %
27.05.2017 22:44 18,3 C 23,3 C 64 % 1019,6 hPa 0,0 l/m 4,8 km/h (1 Bft) O-NO 63 0 min 0,000 mm 0,0 UV-I 0 W/m 11,4 C 18,3 C 6,4 km/h (2 Bft) 94,00 %
27.05.2017 22:46 18,3 C 23,3 C 65 % 1019,6 hPa 0,0 l/m 3,8 km/h (1 Bft) O-NO 63 0 min 0,000 mm 0,0 UV-I 0 W/m 11,6 C 18,3 C 6,4 km/h (2 Bft) 97,56 %
27.05.2017 22:49 18,2 C 23,3 C 65 % 1019,7 hPa 0,0 l/m 9,0 km/h (2 Bft) O-NO 74 0 min 0,000 mm 0,0 UV-I 0 W/m 11,5 C 17,0 C 14,5 km/h (3 Bft) 96,34 %
27.05.2017 22:50 18,2 C 23,3 C 65 % 1019,7 hPa 0,0 l/m 8,3 km/h (2 Bft) O-NO 68 0 min 0,000 mm 0,0 UV-I 0 W/m 11,5 C 17,3 C 12,9 km/h (3 Bft) 93,33 %
27.05.2017 22:52 18,1 C 23,3 C 65 % 1019,6 hPa 0,0 l/m 10,1 km/h (2 Bft) O-NO 65 0 min 0,000 mm 0,0 UV-I 0 W/m 11,4 C 16,5 C 16,1 km/h (3 Bft) 95,74 %
27.05.2017 22:54 18,1 C 23,3 C 66 % 1019,7 hPa 0,0 l/m 11,6 km/h (2 Bft) O-NO 74 0 min 0,000 mm 0,0 UV-I 0 W/m 11,6 C 16,0 C 19,3 km/h (3 Bft) 92,00 %
27.05.2017 22:56 18,0 C 23,3 C 65 % 1019,7 hPa 0,0 l/m 16,0 km/h (3 Bft) O 79 0 min 0,000 mm 0,0 UV-I 0 W/m 11,3 C 14,6 C 20,9 km/h (4 Bft) 95,12 %
27.05.2017 22:58 18,1 C 23,3 C 65 % 1019,7 hPa 0,0 l/m 14,9 km/h (3 Bft) NO 51 0 min 0,000 mm 0,0 UV-I 0 W/m 11,4 C 15,0 C 22,5 km/h (4 Bft) 96,23 %
27.05.2017 23:00 18,1 C 23,3 C 65 % 1019,8 hPa 0,0 l/m 18,1 km/h (3 Bft) O 96 0 min 0,000 mm 0,0 UV-I 0 W/m 11,4 C 14,2 C 24,1 km/h (4 Bft) 97,37 %
27.05.2017 23:02 18,2 C 23,3 C 65 % 1019,8 hPa 0,0 l/m 15,6 km/h (3 Bft) O-NO 77 0 min 0,051 mm 0,0 UV-I 0 W/m 11,5 C 14,9 C 22,5 km/h (4 Bft) 94,00 %
27.05.2017 23:04 18,2 C 23,3 C 64 % 1019,8 hPa 0,0 l/m 15,7 km/h (3 Bft) NO 51 0 min 0,000 mm 0,0 UV-I 0 W/m 11,3 C 14,9 C 19,3 km/h (3 Bft) 97,87 %
27.05.2017 23:06 18,3 C 23,3 C 64 % 1019,8 hPa 0,0 l/m 13,6 km/h (3 Bft) O-NO 64 0 min 0,000 mm 0,0 UV-I 0 W/m 11,4 C 15,6 C 20,9 km/h (4 Bft) 97,87 %
27.05.2017 23:08 18,3 C 23,3 C 63 % 1019,8 hPa 0,0 l/m 13,9 km/h (3 Bft) O-NO 78 0 min 0,000 mm 0,0 UV-I 0 W/m 11,1 C 15,5 C 22,5 km/h (4 Bft) 97,56 %
27.05.2017 23:10 18,3 C 23,3 C 63 % 1019,9 hPa 0,0 l/m 12,8 km/h (3 Bft) O-NO 66 0 min 0,000 mm 0,0 UV-I 0 W/m 11,1 C 15,8 C 16,1 km/h (3 Bft) 98,21 %
27.05.2017 23:12 18,3 C 23,3 C 63 % 1019,8 hPa 0,0 l/m 12,5 km/h (3 Bft) O-NO 61 0 min 0,000 mm 0,0 UV-I 0 W/m 11,1 C 15,9 C 19,3 km/h (3 Bft) 95,12 %
27.05.2017 23:14 18,3 C 23,3 C 63 % 1019,8 hPa 0,0 l/m 14,4 km/h (3 Bft) O-NO 71 0 min 0,000 mm 0,0 UV-I 0 W/m 11,1 C 15,4 C 20,9 km/h (4 Bft) 94,34 %
27.05.2017 23:16 18,3 C 23,3 C 63 % 1019,8 hPa 0,0 l/m 15,9 km/h (3 Bft) O-NO 57 0 min 0,000 mm 0,0 UV-I 0 W/m 11,1 C 15,0 C 19,3 km/h (3 Bft) 97,87 %
27.05.2017 23:18 18,3 C 23,3 C 63 % 1019,9 hPa 0,0 l/m 13,1 km/h (3 Bft) O-NO 59 0 min 0,000 mm 0,0 UV-I 0 W/m 11,1 C 15,7 C 19,3 km/h (3 Bft) 94,87 %
27.05.2017 23:20 18,2 C 23,3 C 64 % 1019,8 hPa 0,0 l/m 12,6 km/h (3 Bft) O 88 0 min 0,000 mm 0,0 UV-I 0 W/m 11,3 C 15,8 C 16,1 km/h (3 Bft) 96,00 %
27.05.2017 23:22 18,2 C 23,3 C 64 % 1019,8 hPa 0,0 l/m 15,0 km/h (3 Bft) O-NO 61 0 min 0,000 mm 0,0 UV-I 0 W/m 11,3 C 15,1 C 19,3 km/h (3 Bft) 97,73 %
27.05.2017 23:24 18,1 C 23,3 C 64 % 1019,8 hPa 0,0 l/m 12,6 km/h (3 Bft) O 84 0 min 0,000 mm 0,0 UV-I 0 W/m 11,2 C 15,6 C 16,1 km/h (3 Bft) 96,23 %
27.05.2017 23:26 18,1 C 23,3 C 64 % 1019,8 hPa 0,0 l/m 15,4 km/h (3 Bft) O-NO 62 0 min 0,000 mm 0,0 UV-I 0 W/m 11,2 C 14,8 C 22,5 km/h (4 Bft) 97,56 %
27.05.2017 23:28 18,0 C 23,3 C 65 % 1019,8 hPa 0,0 l/m 14,9 km/h (3 Bft) O-NO 63 0 min 0,000 mm 0,0 UV-I 0 W/m 11,3 C 14,9 C 19,3 km/h (3 Bft) 94,34 %
27.05.2017 23:30 17,9 C 23,3 C 65 % 1019,8 hPa 0,0 l/m 14,3 km/h (3 Bft) O-NO 66 0 min 0,000 mm 0,0 UV-I 0 W/m 11,2 C 14,9 C 24,1 km/h (4 Bft) 100,00 %
27.05.2017 23:32 17,8 C 23,3 C 65 % 1019,8 hPa 0,0 l/m 15,8 km/h (3 Bft) O-NO 65 0 min 0,000 mm 0,0 UV-I 0 W/m 11,1 C 14,4 C 22,5 km/h (4 Bft) 98,00 %
27.05.2017 23:34 17,8 C 23,3 C 65 % 1019,7 hPa 0,0 l/m 16,3 km/h (3 Bft) O 86 0 min 0,000 mm 0,0 UV-I 0 W/m 11,1 C 14,2 C 24,1 km/h (4 Bft) 94,74 %
27.05.2017 23:36 17,8 C 23,3 C 65 % 1019,7 hPa 0,0 l/m 16,0 km/h (3 Bft) O-NO 74 0 min 0,000 mm 0,0 UV-I 0 W/m 11,1 C 14,3 C 20,9 km/h (4 Bft) 98,21 %
27.05.2017 23:38 17,8 C 23,3 C 65 % 1019,7 hPa 0,0 l/m 14,1 km/h (3 Bft) O-NO 59 0 min 0,000 mm 0,0 UV-I 0 W/m 11,1 C 14,8 C 19,3 km/h (3 Bft) 98,11 %
27.05.2017 23:40 17,8 C 23,3 C 65 % 1019,7 hPa 0,0 l/m 18,2 km/h (3 Bft) O-NO 64 0 min 0,000 mm 0,0 UV-I 0 W/m 11,1 C 13,8 C 24,1 km/h (4 Bft) 100,00 %
27.05.2017 23:42 17,8 C 23,3 C 65 % 1019,7 hPa 0,0 l/m 18,5 km/h (3 Bft) O-NO 75 0 min 0,000 mm 0,0 UV-I 0 W/m 11,1 C 13,7 C 29,0 km/h (5 Bft) 98,21 %
27.05.2017 23:44 17,8 C 23,3 C 65 % 1019,8 hPa 0,0 l/m 16,8 km/h (3 Bft) O 99 0 min 0,000 mm 0,0 UV-I 0 W/m 11,1 C 14,1 C 25,7 km/h (4 Bft) 98,21 %
27.05.2017 23:46 17,7 C 23,3 C 65 % 1019,8 hPa 0,0 l/m 13,4 km/h (3 Bft) NO 52 0 min 0,000 mm 0,0 UV-I 0 W/m 11,0 C 14,9 C 20,9 km/h (4 Bft) 100,00 %
27.05.2017 23:48 17,7 C 23,3 C 65 % 1019,8 hPa 0,0 l/m 13,3 km/h (3 Bft) O-SO 103 0 min 0,000 mm 0,0 UV-I 0 W/m 11,0 C 15,0 C 19,3 km/h (3 Bft) 98,21 %
27.05.2017 23:50 17,6 C 23,3 C 65 % 1019,8 hPa 0,0 l/m 11,9 km/h (2 Bft) O-NO 58 0 min 0,000 mm 0,0 UV-I 0 W/m 10,9 C 15,3 C 16,1 km/h (3 Bft) 100,00 %
27.05.2017 23:52 17,6 C 23,3 C 66 % 1019,8 hPa 0,0 l/m 15,4 km/h (3 Bft) O-NO 57 0 min 0,000 mm 0,0 UV-I 0 W/m 11,2 C 14,2 C 24,1 km/h (4 Bft) 96,00 %
27.05.2017 23:54 17,6 C 23,3 C 65 % 1019,8 hPa 0,0 l/m 14,3 km/h (3 Bft) O 88 0 min 0,000 mm 0,0 UV-I 0 W/m 10,9 C 14,5 C 22,5 km/h (4 Bft) 100,00 %
27.05.2017 23:56 17,5 C 23,3 C 65 % 1019,8 hPa 0,0 l/m 13,0 km/h (3 Bft) O-NO 68 0 min 0,000 mm 0,0 UV-I 0 W/m 10,8 C 14,8 C 20,9 km/h (4 Bft) 97,83 %
27.05.2017 23:58 17,5 C 23,3 C 65 % 1019,8 hPa 0,0 l/m 13,7 km/h (3 Bft) O 83 0 min 0,000 mm 0,0 UV-I 0 W/m 10,8 C 14,6 C 17,7 km/h (3 Bft) 100,00 %
_ Min-Zeit 05:44 03:40 17:16 19:16 - 00:00 - - - - - - 05:24 05:44 00:10 00:02
Minimum _ 11,8 C 21,7 C 40 % 1018,0 hPa - 0,0 km/h (0 Bft) - - - - - - 9,8 C 11,8 C 0,0 km/h (0 Bft) 9,09 %
_ Max-Zeit 16:04 15:16 05:26 09:38 00:00 17:12 - - 05:24 14:00 12:48 12:54 11:52 16:30 23:42 00:54
Maximum _ 25,3 C 23,9 C 88 % 1020,3 hPa 0,0 l/m 19,2 km/h
O (3 Bft)
- - 2 min 0,610 mm 6,2 UV-I 918 W/m 14,8 C 25,2 C 29,0 km/h
O-NO (5 Bft)
100,00 %
Durchschnitt _ 19,3 C 22,8 C 64 % 1019,2 hPa #0,0 l/m 6,0 km/h (2 Bft) O-NO - #14:22 h #5,766 mm 3,5 UV-I 495 W/m 11,7 C 18,9 C 9,7 km/h (2 Bft) 96,79 %